GFSGBSN_sfc_rhum_000.txt.gz
RH
78 78 75 76 73 70 66 67 68 67 67 66 65 67 68 68 68 68 68 69 71 73 73 73 77 79 89 90 77 49 55 53 55 63 69 83 75 68 73 69 66 73 63 56 50 52 54
77 75 79 76 76 75 71 67 68 69 70 69 69 68 68 70 71 71 71 70 72 74 73 72 77 81 92 96 54 49 50 50 64 69 71 80 73 59 64 64 63 62 58 57 54 47 44
78 75 78 75 74 76 73 68 69 71 71 70 70 70 70 69 69 70 71 69 69 75 78 74 78 82 88 76 55 58 53 49 58 68 72 82 80 51 56 63 59 60 69 55 48 47 46
80 75 74 74 74 76 75 71 71 71 72 71 71 74 73 73 73 73 72 70 70 74 76 76 76 89 88 60 54 54 58 58 60 67 70 84 78 56 56 50 45 57 63 70 54 46 42
78 78 75 75 76 75 77 76 71 72 71 71 71 71 72 78 80 84 79 77 77 76 70 76 86 88 83 58 70 62 57 64 73 72 77 72 74 65 59 63 55 50 59 63 52 42 45
76 78 80 78 78 77 77 78 73 72 71 70 73 73 70 76 80 87 84 79 79 76 79 71 73 88 78 77 69 64 61 56 72 80 79 94 85 80 85 85 88 66 57 70 61 48 49
76 77 79 82 79 80 76 79 74 72 72 73 76 80 77 82 82 90 94 93 93 96 86 89 80 79 71 61 63 68 56 58 70 87 94 94 93 95 85 70 73 65 64 67 52 42 47
76 77 78 81 80 80 77 76 75 72 73 75 80 81 82 85 89 92 92 88 72 73 90 77 78 74 62 72 82 68 52 74 86 78 78 94 91 70 75 72 67 54 52 61 53 47 46
77 77 77 79 82 80 78 76 76 74 73 75 82 83 88 90 94 97 90 72 86 70 86 87 75 77 72 67 80 78 59 71 87 66 83 80 82 62 68 70 63 60 58 71 65 50 50
80 81 81 81 82 84 83 81 79 78 79 83 84 82 89 93 98 94 95 84 90 74 99 95 84 78 72 77 85 63 51 64 79 69 75 86 75 75 69 82 73 90 55 49 52 57 64
84 84 86 86 83 87 88 86 82 80 84 86 87 83 88 95 96 97 90 90 92 96 97 78 80 61 73 79 77 80 52 60 88 76 76 86 89 91 79 70 71 80 50 50 52 61 67
85 86 88 88 88 88 90 90 88 85 87 87 88 88 88 97 98 96 93 90 92 100 96 93 82 80 83 74 78 76 74 78 68 71 75 75 70 77 82 71 59 53 49 48 55 60 74
90 89 90 90 90 90 91 92 90 88 88 88 88 87 89 91 96 96 92 95 99 99 86 93 85 76 76 84 80 79 82 90 84 93 90 74 83 61 59 56 48 51 50 78 70 76 75
89 90 89 90 89 91 91 92 90 89 90 91 90 91 89 85 96 93 96 96 100 96 84 72 81 74 84 72 81 75 88 94 85 73 72 86 95 58 43 66 70 58 58 72 75 78 69
89 89 91 90 88 90 91 90 89 92 94 94 90 84 93 91 94 92 95 100 98 79 76 80 76 80 90 72 86 87 86 88 74 59 68 81 82 47 36 40 55 59 56 56 67 78 81
91 89 89 88 86 90 92 90 90 92 94 93 91 94 96 86 92 95 98 98 95 70 72 68 82 77 96 80 91 92 91 73 73 57 56 61 62 50 43 32 35 46 43 59 68 77 80
90 88 88 88 90 93 94 92 90 91 93 92 94 95 93 87 95 98 99 95 85 63 66 68 82 86 76 85 88 90 87 76 59 57 54 52 56 62 44 48 45 44 50 58 60 69 69
88 87 87 90 91 93 95 93 90 91 91 90 97 94 94 88 99 97 95 93 70 73 85 80 66 65 71 79 78 87 87 71 56 66 67 59 64 63 53 66 48 48 45 50 64 67 71
88 86 88 91 91 92 94 92 88 92 89 96 95 98 89 99 99 99 95 85 76 81 84 82 71 62 55 68 82 78 88 73 70 66 67 62 72 85 74 72 73 66 55 50 57 62 68
89 88 89 91 91 92 93 93 88 93 92 96 93 89 99 99 96 89 94 88 92 94 92 72 68 65 58 72 76 88 89 73 67 66 76 59 68 66 73 69 64 74 60 56 53 67 65
88 89 90 91 91 90 92 91 90 94 94 97 95 70 77 95 91 76 75 89 94 93 81 66 75 59 67 80 83 88 77 70 61 70 62 53 61 64 58 64 63 60 59 57 54 51 56
89 90 90 90 91 90 92 92 90 94 90 97 87 83 76 81 65 62 70 80 76 67 69 73 80 72 65 70 72 83 71 75 69 62 59 55 59 52 52 49 47 56 59 60 59 58 57
88 90 89 89 90 90 91 92 92 92 88 94 94 86 61 68 63 60 64 67 63 58 63 66 66 67 59 58 56 62 60 60 59 53 54 48 49 52 59 57 56 46 44 68 61 57 55
90 90 90 88 89 90 90 93 94 91 85 91 95 89 70 62 60 57 59 60 64 57 62 57 49 58 51 43 46 44 52 56 56 58 49 47 50 52 56 68 54 45 66 44 52 58 56
88 88 90 89 89 88 90 93 95 90 87 94 97 87 71 72 70 63 63 64 58 59 60 56 56 58 53 47 60 77 57 51 61 61 58 49 56 70 63 65 56 65 58 64 58 72 66
91 89 90 90 89 88 92 95 96 91 88 92 96 95 77 70 67 60 60 65 65 63 60 59 56 60 54 63 57 87 84 72 59 68 56 59 61 56 92 82 67 57 57 52 55 73 65
91 91 91 89 88 90 95 96 96 93 89 94 95 95 87 82 87 74 60 60 64 70 68 61 58 62 70 80 82 84 73 69 62 62 60 67 73 70 80 80 71 57 56 53 65 64 72
94 93 92 89 88 93 96 96 96 94 90 95 96 95 94 93 93 89 79 71 74 73 62 60 63 63 75 78 82 89 83 74 79 77 68 60 77 82 88 85 75 64 63 62 66 70 63
94 94 91 88 89 94 95 96 96 94 92 91 96 93 95 93 93 93 90 86 80 75 71 79 76 73 70 87 90 89 88 87 79 78 80 68 64 69 72 74 69 74 69 71 64 64 67

GFSGBSN_sfc_rhum_003.txt.gz
RH
78 76 77 79 77 76 72 68 67 68 67 67 67 65 66 66 68 68 68 68 70 71 74 73 75 80 88 96 77 49 52 53 54 62 71 80 82 71 75 64 60 58 54 51 48 50 52
76 76 76 79 77 78 77 74 68 68 68 69 69 69 69 68 68 70 70 70 69 71 76 77 76 81 86 96 53 48 52 50 49 66 73 74 78 57 65 62 60 58 53 48 52 49 45
74 77 75 76 75 74 78 76 71 70 69 71 70 71 72 73 72 70 70 70 69 70 77 77 77 82 85 77 55 56 55 58 50 62 77 70 75 52 56 63 57 58 61 55 52 46 45
74 74 78 75 76 76 76 77 75 71 71 72 72 72 75 74 74 74 74 72 73 76 77 76 72 86 84 60 56 57 54 58 54 63 70 66 75 69 56 48 52 60 55 71 54 41 40
74 74 77 79 76 77 76 76 79 74 71 71 71 73 75 75 75 78 83 80 76 77 77 74 90 88 84 58 73 59 53 61 62 76 75 62 81 76 62 62 61 62 80 68 60 44 45
72 74 77 79 79 79 79 76 79 76 72 72 73 78 79 75 74 79 83 88 80 80 77 73 74 89 81 76 69 65 63 56 70 81 80 81 95 88 76 79 92 70 65 54 56 43 44
72 76 78 80 80 79 79 78 77 76 72 74 78 80 81 80 81 86 88 99 98 96 84 81 81 76 70 59 61 70 62 59 64 85 87 85 91 96 76 71 62 56 53 53 56 42 41
74 77 77 80 79 80 78 78 76 76 72 74 79 82 83 83 85 87 95 94 74 69 88 77 74 69 63 69 79 70 55 68 84 87 72 83 93 74 71 73 62 59 59 59 52 44 41
76 76 80 80 79 80 81 79 76 74 75 74 81 83 82 82 89 95 96 85 76 70 86 84 71 78 77 66 76 77 61 66 81 67 74 80 78 62 68 82 75 64 64 61 61 50 44
80 81 83 82 81 81 85 85 82 78 78 83 86 85 84 85 98 97 96 95 85 80 99 90 90 74 73 74 82 65 58 63 75 64 62 84 72 70 73 76 72 85 54 55 53 59 65
80 82 84 85 86 85 85 88 86 84 84 86 87 85 84 91 97 96 92 93 91 90 98 82 84 58 71 68 71 84 58 62 80 63 66 88 84 76 82 74 69 76 61 62 56 54 51
81 85 86 86 87 88 89 88 90 90 90 90 90 86 87 95 98 94 94 92 94 100 97 97 81 89 85 78 72 76 70 67 65 60 56 88 72 74 70 67 66 50 57 62 53 51 61
81 86 89 89 87 88 88 90 91 93 92 92 90 89 90 88 95 95 92 93 100 98 90 97 93 85 75 86 76 77 79 81 94 89 81 88 86 85 84 65 58 54 72 97 95 72 64
84 86 86 89 88 89 90 90 91 91 93 94 92 91 88 84 92 91 93 97 99 84 86 73 80 79 80 74 83 78 79 88 85 81 72 96 98 72 77 79 73 75 73 78 75 69 59
83 87 89 89 88 89 89 90 91 92 94 95 91 81 92 87 91 94 95 100 90 84 77 78 78 82 77 72 79 83 83 74 78 86 64 77 85 59 58 53 60 78 81 52 63 66 68
82 85 88 90 86 87 89 90 92 92 94 94 87 93 90 85 88 94 99 99 93 86 70 63 77 73 81 77 98 79 83 61 76 73 67 74 70 58 38 42 38 59 47 74 60 67 71
83 84 88 89 89 91 92 91 92 91 94 91 98 99 88 88 89 98 99 97 89 78 57 64 76 92 67 86 94 87 79 78 76 70 65 55 62 66 41 46 49 54 76 59 55 63 64
80 82 88 89 90 92 92 93 92 89 89 90 98 96 96 91 99 96 97 88 83 69 70 75 73 74 83 73 82 80 86 76 68 62 60 51 62 68 54 58 46 42 49 50 58 63 63
89 80 88 89 90 91 92 92 90 87 90 96 97 94 97 96 99 97 92 91 86 80 78 80 74 68 70 81 92 82 80 68 66 61 66 56 69 78 64 60 65 54 45 47 53 57 63
88 88 87 89 91 92 91 92 92 88 93 95 98 98 100 99 97 99 96 92 91 87 82 81 67 59 67 76 80 91 83 72 70 56 68 57 67 72 72 67 62 68 57 53 47 59 59
85 90 87 89 92 92 90 91 91 90 95 94 99 93 89 97 97 96 94 90 91 91 92 85 78 66 63 87 90 92 88 68 64 76 62 52 61 62 59 60 56 56 56 52 51 44 48
83 93 86 88 91 92 91 92 91 89 94 94 97 91 91 79 72 98 92 98 89 93 92 83 74 64 62 74 79 90 78 73 68 62 66 58 61 53 55 55 54 62 60 52 50 55 52
85 89 90 89 91 92 91 91 91 91 89 99 95 92 76 71 63 67 73 90 91 85 85 66 65 58 65 62 64 66 65 60 60 57 58 61 52 57 59 53 47 52 47 61 55 56 46
86 84 93 90 91 91 91 90 91 93 86 94 94 90 79 63 63 58 58 77 87 67 76 59 55 54 52 55 54 47 49 49 48 55 48 62 64 59 57 52 59 48 58 53 55 50 46
84 84 91 92 91 90 89 89 92 93 93 96 96 91 75 62 62 59 61 70 66 65 60 60 62 62 52 51 74 75 66 54 60 59 55 51 51 65 63 59 52 64 58 58 53 59 62
84 84 90 93 91 90 89 88 92 94 92 93 97 94 78 67 64 59 60 59 65 75 55 62 58 62 54 62 71 91 97 70 63 62 57 57 54 54 91 71 51 50 55 51 55 60 65
86 86 86 94 91 89 89 90 94 95 93 92 95 94 87 73 81 73 61 60 58 62 63 58 58 58 66 68 70 83 70 63 63 63 60 63 67 64 74 71 64 54 56 52 63 54 67
83 82 86 95 90 88 89 93 95 96 94 92 96 96 92 87 92 89 81 70 74 63 57 58 57 56 80 78 78 79 73 70 72 64 59 58 71 73 82 78 62 57 59 58 61 66 61
84 84 86 94 90 89 91 94 95 96 94 91 97 93 95 92 92 94 91 87 83 76 69 79 69 68 64 82 89 91 84 81 78 71 76 58 53 63 64 66 72 71 68 69 61 62 64

GFSGBSN_sfc_rhum_006.txt.gz
RH
75 80 75 75 76 77 78 74 71 69 69 68 68 67 66 66 65 66 66 66 66 70 72 73 73 76 76 92 64 44 51 46 41 55 62 51 76 61 64 52 42 46 35 35 32 34 34
72 76 78 75 76 78 75 79 77 71 69 68 70 70 69 70 68 67 68 69 69 68 71 75 75 80 69 86 40 37 38 41 39 50 67 50 59 46 42 46 48 40 39 36 32 35 35
69 73 76 76 75 77 75 76 78 73 70 69 71 71 72 73 72 71 67 67 69 69 70 73 76 66 74 63 39 38 43 40 39 42 56 49 46 63 43 53 42 39 47 40 37 37 37
70 73 76 76 77 78 78 77 79 76 72 71 71 74 76 76 74 72 70 70 72 77 71 71 68 68 70 45 39 43 39 44 41 36 46 45 50 77 80 41 46 52 49 51 34 37 36
72 76 75 74 76 78 79 80 81 80 76 72 71 74 75 79 77 78 78 78 83 75 73 70 67 68 68 49 55 44 40 45 48 42 40 48 63 86 67 73 67 56 57 50 40 36 36
72 75 76 76 77 76 77 79 80 78 81 74 75 77 79 80 78 78 78 79 86 78 73 66 63 76 58 61 50 45 42 41 52 54 62 70 81 96 85 81 81 62 53 42 44 34 34
74 75 76 77 77 79 77 78 80 76 80 78 78 80 82 83 82 80 84 88 97 99 84 74 65 54 56 46 50 54 46 48 54 66 85 64 92 95 67 73 47 36 41 46 37 32 36
77 75 77 76 77 79 78 79 80 77 77 77 79 82 84 84 82 83 92 97 78 70 95 71 64 56 57 52 65 55 47 56 64 84 82 68 94 64 74 61 56 42 46 46 34 35 35
78 76 78 78 79 80 79 82 80 78 76 78 79 82 84 84 80 89 94 92 85 83 92 82 75 70 60 56 64 62 54 50 62 79 87 78 75 61 81 62 57 48 49 41 40 42 40
78 78 79 81 80 82 84 86 85 82 82 82 83 84 85 82 95 91 96 94 89 81 100 89 89 72 66 61 70 46 48 46 62 79 85 59 58 80 75 69 55 55 41 44 50 62 55
79 81 81 82 82 83 86 87 86 87 88 86 87 84 86 85 86 92 94 90 88 87 97 68 81 50 55 60 49 57 49 47 62 79 81 76 80 88 84 66 47 48 47 48 53 59 52
80 77 81 84 83 84 86 87 89 89 92 91 90 87 88 83 80 87 90 87 88 98 94 93 82 85 80 64 51 60 66 46 59 67 63 53 82 78 54 53 50 47 47 50 46 50 61
78 79 81 84 86 85 86 86 89 91 92 95 94 90 85 66 74 89 91 93 100 98 85 98 97 93 74 67 56 65 73 74 94 97 99 81 88 90 54 78 63 49 59 97 91 80 56
89 77 82 85 84 85 87 88 89 90 92 93 96 92 83 71 70 92 93 98 100 84 94 83 84 88 81 60 56 69 64 64 71 84 64 98 98 95 62 60 79 62 51 50 62 56 43
90 81 82 83 84 86 88 88 89 92 94 94 95 86 88 80 79 88 96 100 84 91 84 94 74 89 67 58 54 77 57 54 69 74 73 95 98 78 67 59 55 84 81 38 43 44 40
85 85 78 81 83 86 89 88 90 94 94 96 85 83 81 71 86 95 99 98 94 83 82 58 57 53 57 56 88 78 54 39 57 61 58 60 94 69 65 65 62 63 50 68 46 55 52
83 83 87 80 84 88 91 90 90 94 94 94 81 96 77 82 92 96 100 98 89 75 68 45 47 50 46 51 84 59 50 48 45 50 55 51 50 73 58 75 74 61 81 64 43 41 40
84 86 88 81 85 89 92 92 91 92 91 82 85 96 97 91 98 95 98 92 87 84 69 39 40 40 38 46 68 85 50 55 34 50 62 54 38 80 64 45 42 47 51 48 54 52 40
83 82 88 88 86 90 93 93 91 91 85 80 75 93 97 88 98 97 87 89 85 83 64 45 53 45 40 47 73 70 57 42 44 56 55 42 42 59 72 57 46 56 46 47 36 36 41
83 85 84 92 88 92 93 93 93 91 92 75 76 96 99 99 89 96 94 90 92 72 55 55 52 52 53 53 45 56 58 59 59 50 65 52 43 37 48 46 41 52 45 46 46 48 40
86 87 83 86 87 92 93 93 93 93 94 79 78 78 78 94 95 96 95 89 88 88 75 77 60 55 45 59 69 63 56 69 57 65 59 51 46 42 43 41 38 41 47 42 44 40 40
83 87 84 80 92 91 93 93 93 93 94 88 68 73 70 69 76 88 97 94 90 93 83 87 92 55 48 54 58 68 70 62 67 63 57 48 52 40 43 48 40 42 40 43 43 40 34
79 86 86 84 87 91 93 93 93 94 91 90 73 71 63 60 57 78 88 92 89 84 93 88 72 57 57 54 44 49 50 48 49 56 60 52 46 45 48 40 41 50 41 40 37 33 32
77 86 84 84 87 92 93 92 92 94 89 76 66 65 66 52 52 58 73 89 96 87 91 74 53 54 48 44 42 43 48 48 44 44 44 51 48 48 54 42 65 36 39 32 35 32 30
77 84 87 88 85 94 92 91 91 92 93 88 81 72 67 58 46 51 74 90 79 71 70 55 57 55 40 42 51 60 58 78 60 52 48 45 78 78 58 76 37 36 44 39 42 39 35
76 82 83 85 85 96 91 90 90 92 94 90 86 75 67 56 45 50 56 81 92 81 57 58 56 52 58 51 60 85 94 79 86 71 51 63 83 86 79 63 49 36 41 35 34 32 37
77 78 83 86 85 93 91 90 90 92 95 88 85 76 69 63 54 51 48 68 80 84 62 54 61 59 76 69 70 81 67 49 67 72 84 65 58 84 60 70 40 38 40 41 39 39 47
76 77 85 87 86 90 91 90 90 94 95 93 90 81 77 70 69 77 65 54 60 66 71 53 61 66 90 83 68 69 67 47 46 44 50 58 57 55 65 86 85 46 47 44 47 50 47
74 75 84 85 81 87 91 89 92 95 96 92 96 82 84 80 79 84 77 71 67 57 66 73 69 55 83 87 67 66 59 58 46 48 53 45 42 43 43 45 58 53 50 50 44 47 47

GFSGBSN_sfc_rhum_009.txt.gz
RH
71 75 77 78 74 74 79 79 76 73 70 68 68 69 68 67 68 68 68 67 65 65 69 72 73 75 69 76 59 42 50 41 36 52 56 49 41 47 62 44 46 45 33 28 28 26 27
73 72 76 78 78 74 76 76 81 77 73 70 69 70 71 70 71 70 70 69 69 66 66 71 75 78 66 73 32 33 37 36 36 42 56 51 41 34 40 44 44 39 34 32 28 28 28
73 68 74 78 78 79 77 75 78 83 76 72 70 70 74 72 73 73 71 68 68 67 67 68 73 63 64 54 30 30 33 34 32 34 43 46 40 40 39 54 34 39 44 36 33 29 29
73 70 74 77 79 80 82 82 81 80 78 74 71 72 76 76 76 75 73 70 71 72 70 69 67 62 82 36 32 35 34 35 32 32 35 36 41 43 55 57 58 44 50 64 36 31 28
70 74 76 78 77 78 81 84 83 80 80 78 75 72 74 80 80 80 77 77 77 80 72 68 62 68 67 46 48 34 33 37 32 35 34 34 47 60 62 95 85 65 63 58 44 28 31
71 74 79 80 78 76 78 81 82 84 80 82 80 79 79 81 82 83 81 78 76 81 72 62 54 72 50 54 40 39 35 37 38 40 44 47 66 78 77 85 91 65 67 45 50 30 32
73 76 80 78 77 78 78 80 81 82 81 85 83 81 82 82 83 82 80 91 90 97 92 82 66 51 45 37 39 49 37 43 42 46 67 55 85 87 66 58 68 50 56 43 38 29 32
80 79 79 78 78 78 79 81 82 84 82 84 84 83 83 82 81 82 83 92 74 68 95 75 57 54 43 46 56 51 38 52 52 63 52 72 91 54 45 56 62 58 48 41 34 32 33
81 79 79 79 78 78 80 82 82 82 82 82 83 83 83 81 80 82 86 76 79 76 96 87 77 65 52 55 57 51 46 48 47 58 56 75 71 47 44 66 74 61 64 43 43 35 33
84 79 79 79 80 78 80 83 86 85 86 84 84 84 83 84 80 61 80 77 87 88 100 87 93 83 72 76 84 47 42 46 50 55 51 66 57 69 49 68 78 71 55 37 40 45 50
93 92 78 80 79 81 80 83 85 88 90 90 86 85 86 82 62 83 90 89 90 92 98 65 92 59 68 86 48 47 36 49 58 56 86 78 73 79 62 71 70 70 45 40 46 45 57
88 87 91 79 80 83 81 82 86 86 89 92 91 89 88 83 73 67 83 85 88 98 95 88 82 90 84 89 59 44 45 42 42 54 86 60 60 66 59 63 80 62 51 56 49 48 59
80 83 88 85 76 82 82 83 86 88 90 91 96 93 89 52 63 79 88 90 100 98 79 98 97 93 89 92 71 57 64 72 89 98 99 85 94 83 74 94 92 71 78 91 79 74 50
82 87 84 84 83 78 80 85 86 88 89 92 95 97 89 58 72 83 93 98 99 68 83 90 94 95 98 80 61 54 65 73 64 78 96 98 97 88 72 92 91 83 75 54 62 55 42
78 89 83 81 81 79 80 86 86 89 90 94 96 98 96 79 77 89 96 100 89 81 87 94 93 98 99 88 42 47 58 64 52 70 99 87 91 75 83 70 63 81 74 38 40 33 35
75 87 89 83 87 85 81 86 88 90 94 97 88 94 86 62 78 94 99 96 94 77 88 84 67 57 67 67 50 54 64 54 48 50 71 90 98 88 91 74 83 67 41 55 39 49 46
78 85 86 84 85 88 84 87 89 91 96 95 89 94 60 72 90 99 98 96 90 76 79 79 48 44 38 43 47 54 52 36 38 41 70 91 94 94 90 82 86 90 66 53 35 36 38
76 81 86 85 83 90 89 88 91 92 96 94 88 95 88 89 99 95 97 94 85 83 84 63 33 34 32 33 47 51 45 35 28 41 89 76 91 99 74 46 49 60 60 44 43 46 35
74 80 86 85 83 85 93 90 92 93 89 87 88 77 95 90 98 97 79 92 87 87 81 54 41 33 28 33 46 52 48 33 37 36 72 54 66 98 92 60 64 73 48 46 40 36 38
73 80 87 88 84 86 95 92 93 94 86 87 73 98 100 99 83 90 93 93 95 76 70 47 40 32 35 38 34 48 51 39 42 36 65 54 48 48 46 44 57 71 60 44 43 44 38
72 78 84 88 85 88 96 93 93 94 93 95 77 86 72 97 94 91 92 87 94 92 72 50 60 41 42 40 40 49 46 46 42 48 48 54 49 36 30 32 39 44 51 51 49 43 41
71 75 80 86 83 81 94 94 93 95 95 98 79 56 75 84 73 79 92 91 95 86 70 75 86 48 38 38 34 40 43 45 55 53 47 50 56 40 42 39 35 38 38 41 43 41 38
70 74 80 84 87 87 90 94 93 95 95 97 84 59 58 60 58 69 76 84 86 81 86 60 73 60 47 37 31 37 34 41 44 47 58 59 60 46 47 39 42 49 37 36 37 34 34
69 73 77 83 84 85 88 94 93 94 91 81 72 61 60 54 41 46 63 83 92 89 85 78 87 87 46 36 36 40 48 53 47 46 43 55 56 48 58 41 65 34 31 29 32 32 31
69 74 75 84 83 84 88 93 93 94 94 87 81 74 60 57 39 40 54 80 86 89 90 84 77 60 42 41 56 77 83 84 64 59 52 55 61 67 66 66 48 39 34 34 35 36 28
68 72 74 82 82 84 88 93 92 92 94 94 89 80 64 63 41 41 58 83 92 91 86 77 54 42 42 61 70 90 98 96 91 82 73 64 63 76 75 64 62 35 35 29 29 40 25
66 72 73 82 82 84 85 89 92 91 93 94 93 80 78 64 45 44 46 76 93 79 65 58 54 56 76 84 76 73 69 61 86 94 94 96 96 95 96 86 47 33 34 31 37 41 35
63 73 73 80 82 82 87 86 92 91 93 94 94 82 69 64 58 61 53 62 90 92 58 65 63 65 92 81 71 64 53 48 53 60 77 79 89 94 95 90 82 36 40 40 45 41 35
64 74 74 80 83 82 88 88 92 91 94 92 98 84 69 82 77 70 66 66 71 72 75 54 73 64 77 94 63 60 61 44 42 56 43 64 44 43 45 51 48 39 46 42 39 41 40

GFSGBSN_sfc_rhum_012.txt.gz
RH
69 76 78 73 75 80 80 82 83 78 74 71 69 68 68 69 68 68 67 68 67 66 68 71 73 74 71 71 57 48 50 45 44 54 65 59 57 49 62 51 49 51 44 36 32 32 30
67 72 78 76 76 80 80 76 82 84 78 75 72 70 71 72 71 72 70 68 68 68 69 70 73 77 74 77 33 32 42 39 38 41 58 59 55 43 44 48 55 48 46 46 37 31 31
71 69 74 76 76 79 80 79 80 82 80 79 75 74 76 75 72 73 73 71 67 68 69 69 72 69 70 58 29 30 36 40 37 36 42 52 52 62 42 48 43 43 55 47 44 36 34
73 72 70 75 76 80 81 82 84 81 77 81 76 76 77 79 77 76 74 72 71 74 74 71 70 64 79 42 38 35 33 36 34 32 37 37 42 55 61 51 61 65 57 78 47 39 36
75 73 73 76 75 78 80 82 84 83 79 79 79 79 76 79 81 82 81 74 75 76 78 71 68 70 68 46 50 38 36 40 34 33 36 32 43 62 62 72 87 77 80 73 64 41 38
88 76 77 78 79 78 78 79 82 85 84 84 84 84 81 80 82 83 82 76 73 78 77 62 55 72 59 52 44 41 37 38 41 39 44 50 60 77 80 82 92 79 85 60 68 48 42
80 88 79 80 80 81 78 78 80 82 84 87 85 86 83 83 83 83 82 78 87 94 91 75 66 52 43 41 39 44 39 42 45 50 66 55 79 87 78 70 67 61 59 67 47 44 44
79 80 87 81 80 81 80 78 80 82 85 87 86 88 84 84 82 82 80 83 71 83 94 81 64 59 44 45 53 48 39 55 59 74 58 71 85 59 54 57 64 62 75 76 51 42 42
70 77 90 88 80 80 80 79 81 82 85 87 87 87 85 83 82 83 82 77 70 73 99 90 79 70 59 52 59 52 47 53 60 69 65 77 65 55 51 54 63 64 68 78 72 47 51
67 69 75 87 91 79 80 80 80 82 84 88 86 87 85 86 84 70 80 68 76 83 100 92 92 81 66 76 84 47 43 51 58 64 59 65 52 52 60 60 55 67 54 64 74 82 74
69 71 69 81 84 88 80 79 79 81 85 89 88 87 86 80 77 76 85 86 88 92 98 80 89 65 68 88 68 66 52 66 66 58 58 78 68 60 65 76 54 66 56 67 70 81 86
68 73 70 79 86 87 88 78 79 82 86 88 91 88 88 91 83 80 83 82 89 99 95 88 87 92 91 86 82 69 64 61 54 64 59 72 56 58 61 56 65 54 68 83 80 77 90
69 70 72 76 85 87 85 82 79 82 85 87 93 92 90 69 80 82 82 91 100 99 68 96 96 84 80 92 92 89 80 76 80 94 88 91 87 68 74 86 63 66 88 98 100 99 92
71 70 74 75 84 87 87 87 78 83 85 89 93 96 91 71 82 82 85 96 99 58 76 89 93 93 99 90 94 94 93 77 63 74 86 88 86 87 79 86 77 82 92 99 98 97 60
68 73 74 79 85 86 86 88 79 83 87 92 95 99 98 86 84 85 92 100 80 67 86 94 96 99 98 94 92 94 81 78 62 59 98 97 95 80 68 63 74 82 99 83 84 41 53
71 72 76 76 87 86 84 88 82 86 91 96 99 98 96 88 89 95 99 95 77 75 86 91 97 78 74 84 88 74 69 52 57 51 61 93 100 82 81 75 83 86 74 98 84 60 74
68 71 76 80 87 86 86 82 87 94 93 90 96 99 84 89 94 99 99 91 73 70 82 94 82 59 53 60 61 53 46 44 48 50 77 92 98 96 81 95 90 97 97 82 68 60 60
62 69 79 82 90 88 85 86 91 89 95 90 97 98 87 91 99 98 97 82 87 87 83 86 84 81 40 43 53 55 57 56 39 50 85 89 96 100 98 74 73 77 82 60 55 66 62
59 67 81 83 89 88 85 90 95 90 92 94 97 97 95 88 98 98 84 87 91 91 86 88 71 45 32 36 45 42 53 43 54 64 78 92 98 99 99 94 95 92 77 59 60 56 62
57 64 77 83 84 88 86 86 97 92 85 87 97 99 100 99 90 88 89 95 96 85 87 79 58 41 37 36 34 54 48 48 45 55 71 86 81 99 97 76 82 89 72 58 64 70 60
58 61 69 78 81 88 88 85 96 93 87 95 95 91 81 98 96 93 90 91 95 96 85 74 54 46 39 44 39 41 51 45 48 51 61 83 92 86 60 62 63 65 66 62 62 58 65
57 60 66 76 82 84 84 85 92 93 90 97 97 84 88 87 71 81 90 92 95 91 92 76 70 61 60 46 39 45 44 48 49 53 48 53 77 66 50 45 51 63 60 59 55 51 51
56 59 65 74 78 81 83 86 90 93 92 99 96 77 72 74 81 88 84 86 87 88 85 79 67 58 67 42 35 28 33 38 45 54 64 65 74 68 63 50 49 59 50 56 56 52 51
56 58 65 74 75 77 82 88 91 94 87 88 83 81 90 85 53 63 60 66 83 88 89 82 73 66 67 47 44 54 60 55 56 55 52 71 77 70 70 59 79 51 42 39 43 42 42
56 58 64 73 74 79 80 86 87 95 93 87 80 93 96 88 59 52 43 68 89 90 96 90 82 70 72 61 70 85 90 85 76 64 69 54 70 83 80 82 58 55 44 46 47 46 38
56 58 64 71 74 79 80 83 88 93 94 95 90 92 96 87 62 50 52 74 92 96 94 90 73 76 81 68 84 94 90 96 96 87 72 72 82 91 94 84 84 52 45 36 41 59 45
56 59 64 72 74 79 80 86 88 92 94 96 96 87 97 97 68 57 60 68 91 93 93 84 81 85 88 92 83 92 92 81 97 94 95 92 94 97 91 94 77 45 43 38 56 58 49
57 59 65 73 74 78 80 88 89 94 93 96 95 86 95 93 74 69 62 66 94 95 85 79 88 86 96 94 93 85 73 74 87 80 87 83 97 96 98 99 93 42 48 54 58 54 48
58 60 65 73 74 80 80 85 86 88 93 94 99 86 93 99 90 76 70 72 79 92 88 74 84 72 87 93 94 75 71 57 67 91 73 84 77 78 80 77 56 54 58 55 51 52 55

GFSGBSN_sfc_rhum_015.txt.gz
RH
72 74 72 71 75 77 79 81 81 83 78 74 72 70 69 69 69 67 68 67 66 66 66 70 73 74 81 89 84 57 48 48 54 62 71 77 81 77 73 70 68 71 59 50 46 44 41
78 74 76 72 76 78 77 77 81 85 81 78 76 74 73 71 73 72 72 69 68 67 67 68 68 77 89 95 46 44 51 47 45 60 75 75 75 65 66 60 59 59 55 53 46 45 43
79 86 75 74 76 80 78 80 80 82 80 80 78 79 79 75 73 73 73 73 70 67 68 68 68 73 88 74 44 43 46 50 47 46 46 61 65 70 70 72 54 57 71 56 56 48 50
73 76 86 75 77 78 80 82 82 83 80 78 80 83 80 80 76 75 75 73 74 74 75 72 68 81 93 51 50 48 45 45 43 42 44 42 44 55 70 67 66 79 72 83 58 52 49
66 69 77 88 77 77 79 81 82 82 83 81 83 84 81 81 81 83 83 77 74 75 75 72 82 90 86 52 62 51 48 46 43 42 43 34 51 63 71 82 88 90 89 87 71 52 52
65 66 72 78 83 78 78 80 81 82 82 83 84 85 84 82 83 84 83 79 73 75 74 69 64 76 68 58 54 51 47 45 50 51 52 60 68 86 94 90 88 81 81 78 84 62 55
63 64 65 69 84 85 79 79 81 80 82 82 83 86 87 84 85 83 87 90 91 94 92 88 78 60 44 50 45 55 47 52 52 63 74 67 88 86 84 79 76 68 76 78 72 54 59
65 63 61 68 72 80 89 81 81 81 82 83 83 87 89 86 85 84 88 89 84 84 94 81 73 66 50 47 60 54 47 62 65 78 77 80 88 68 63 68 76 79 89 85 68 60 62
62 61 62 66 69 73 83 89 82 79 80 83 85 89 88 87 86 91 95 75 82 72 93 81 82 79 67 59 66 61 53 59 70 83 81 85 70 56 61 67 76 79 89 81 75 63 65
60 63 64 62 71 68 84 90 88 79 78 80 83 89 88 88 90 90 96 76 84 78 100 85 90 83 71 70 81 52 47 54 68 82 74 80 59 61 69 71 67 83 60 61 66 73 89
62 64 65 64 66 69 76 87 90 87 78 79 83 90 89 76 83 89 90 89 86 92 98 79 86 65 68 84 73 72 50 60 76 70 74 83 72 72 72 67 61 71 54 58 60 74 81
61 65 67 70 69 69 74 87 88 88 84 80 85 89 89 84 86 89 89 84 88 95 95 90 85 91 89 88 75 71 65 62 74 88 78 72 65 69 63 53 54 66 71 73 76 82 98
57 63 69 68 75 69 76 81 84 89 89 81 88 91 90 72 90 87 83 91 98 97 67 94 89 83 77 81 84 85 92 95 98 100 99 96 93 76 72 83 77 78 88 89 93 97 89
55 63 70 69 76 77 84 83 83 88 89 84 91 93 87 73 86 84 89 96 98 69 79 80 83 76 96 74 87 85 98 98 94 98 96 96 92 89 76 77 77 85 82 92 89 87 75
59 63 70 70 76 74 82 81 87 88 90 93 94 98 97 95 86 84 92 100 87 70 79 93 95 100 99 91 84 93 92 97 75 90 90 99 94 71 68 65 64 79 92 66 96 88 98
56 60 64 71 79 87 82 83 86 86 88 95 99 98 96 88 86 90 98 92 83 72 82 91 98 95 88 80 92 97 95 82 74 59 63 84 96 66 70 68 71 75 65 95 99 98 96
55 55 59 70 80 89 83 87 87 92 89 96 99 99 95 87 91 97 99 93 74 71 77 94 95 97 92 87 91 91 77 61 64 58 55 72 96 92 95 96 84 92 93 80 92 87 89
56 57 58 67 76 87 90 89 87 86 91 97 98 99 97 94 99 98 98 80 75 79 76 87 92 93 85 65 83 72 68 47 54 60 67 88 98 99 89 80 71 61 79 73 93 99 89
55 56 58 65 78 89 88 87 86 86 94 98 96 99 97 88 99 99 86 79 76 87 87 91 93 78 66 53 77 60 65 52 68 70 87 92 98 95 98 93 85 81 78 67 71 97 78
57 56 58 64 73 87 83 85 82 85 95 95 98 98 100 100 95 92 91 89 93 85 91 85 84 70 71 60 54 54 53 60 56 65 79 90 96 99 98 94 82 83 73 80 93 96 73
58 54 58 62 70 83 78 85 84 88 89 93 97 96 84 98 96 93 84 87 94 96 91 86 86 85 67 56 46 59 53 51 60 67 80 90 100 98 92 85 77 76 80 90 98 73 62
58 54 57 60 68 78 78 83 90 94 88 96 98 97 88 88 82 95 93 94 89 93 91 90 90 61 61 64 48 52 57 58 58 74 89 86 98 94 91 72 72 81 83 69 61 59 54
58 54 57 60 66 73 81 84 88 91 93 99 97 86 78 91 84 92 90 87 85 82 86 81 83 75 74 68 60 68 43 44 46 56 64 73 83 92 69 75 71 81 70 69 63 60 54
58 54 57 58 67 73 79 82 88 90 95 97 89 86 91 92 85 83 83 82 87 85 84 82 88 88 72 71 63 68 68 65 64 64 59 73 84 75 82 65 78 48 46 56 59 57 57
57 55 56 62 66 73 77 78 86 86 87 91 85 92 96 95 76 77 76 65 89 88 92 90 87 77 83 79 79 92 93 87 84 75 65 65 78 86 86 90 63 56 46 50 55 55 50
60 56 55 63 66 73 76 78 86 88 88 96 89 92 96 93 81 61 64 88 93 94 95 95 85 80 90 76 92 98 98 97 92 91 79 73 81 86 96 86 85 54 48 44 47 62 54
63 59 56 59 66 73 76 79 85 89 87 96 96 88 97 96 78 70 71 80 91 94 97 95 90 91 91 94 94 97 96 87 96 86 96 92 90 93 92 95 83 57 47 45 62 56 57
64 62 58 60 65 73 74 77 83 89 90 95 96 88 95 96 83 71 68 76 95 94 94 95 95 96 98 97 96 93 94 94 95 88 84 88 96 98 94 98 90 51 50 46 53 59 67
64 60 60 61 64 71 73 75 82 86 90 94 99 88 94 98 93 80 72 74 71 86 93 96 95 90 89 94 96 90 80 77 91 93 80 93 83 88 85 78 63 59 62 59 56 59 72

GFSGBSN_sfc_rhum_018.txt.gz
RH
75 82 87 81 74 73 76 80 81 82 77 78 76 73 72 70 71 70 69 67 66 66 67 69 74 76 84 98 88 54 47 51 61 70 82 84 89 85 80 74 73 82 73 61 60 58 54
66 70 72 78 88 77 73 76 79 82 81 80 78 76 76 73 73 74 72 71 68 67 67 68 69 77 88 92 55 50 57 52 52 69 84 82 86 77 80 74 73 64 62 62 56 55 54
64 66 64 68 80 89 78 77 82 82 81 79 80 82 82 79 74 75 74 74 72 68 68 68 68 76 95 80 50 53 49 56 51 55 68 75 76 85 80 80 64 64 79 68 62 62 61
65 66 65 66 68 77 88 83 82 83 82 81 81 84 85 83 76 77 74 75 77 75 74 72 69 84 94 57 56 55 53 54 52 45 48 47 51 72 66 66 74 84 86 92 64 59 57
61 64 65 65 65 70 82 86 83 83 82 81 81 82 85 84 83 83 83 80 77 76 74 72 84 92 88 55 68 54 55 56 47 47 47 36 49 62 67 85 91 91 97 88 80 57 59
54 56 64 64 64 64 72 76 90 83 83 80 81 84 85 85 84 85 85 82 76 75 74 71 65 89 75 64 60 57 52 52 53 55 56 60 66 85 92 90 92 78 93 84 81 71 64
62 61 60 64 62 64 67 73 77 89 83 82 80 82 86 86 85 86 88 92 93 97 97 90 80 73 49 56 52 61 55 55 60 68 83 72 90 88 82 82 84 86 82 86 78 63 73
58 64 62 63 63 66 63 69 77 86 87 81 82 82 84 88 85 87 89 94 82 75 96 84 79 71 56 53 61 62 53 69 74 88 81 81 88 64 66 70 82 86 93 90 72 60 63
51 50 64 64 65 66 67 67 69 80 90 84 79 80 83 88 86 92 95 86 80 76 96 82 84 81 74 65 69 64 57 66 77 85 77 78 67 59 68 76 84 84 90 85 84 67 60
53 54 52 64 65 65 66 69 67 78 86 92 79 80 84 88 92 96 92 81 82 78 97 88 88 80 75 70 79 54 50 57 71 84 76 75 66 68 70 78 77 92 71 72 74 81 89
56 54 56 60 62 71 71 67 72 74 85 92 83 81 89 78 89 95 79 86 88 89 88 71 85 66 71 78 72 75 50 59 88 84 81 87 84 81 79 71 64 79 61 67 72 82 88
57 55 56 63 64 76 71 70 77 76 87 90 95 85 89 82 89 84 90 84 89 95 92 93 83 89 90 87 78 75 69 62 82 87 76 74 64 67 65 55 62 69 71 73 81 77 97
56 56 56 62 67 69 73 72 83 78 85 92 95 90 89 65 90 88 83 88 97 96 68 96 88 89 79 82 82 81 85 95 99 100 98 98 95 77 72 71 64 67 82 94 99 98 85
58 56 56 54 57 68 74 77 81 81 84 90 96 93 83 68 89 84 89 93 94 67 84 74 77 76 88 72 90 80 92 95 87 98 100 98 98 96 74 72 80 78 76 92 93 99 76
59 56 56 56 58 73 82 87 82 79 84 90 95 97 96 93 84 88 91 100 86 72 79 78 81 92 94 85 81 87 90 90 65 91 96 98 95 73 71 61 61 88 95 64 81 85 90
61 60 59 57 57 71 82 86 79 80 84 91 99 98 97 88 85 93 98 97 80 81 84 80 88 90 87 79 87 92 86 73 72 84 75 84 98 76 76 70 70 77 66 92 96 98 97
58 60 57 56 59 66 78 87 90 82 84 84 98 98 97 89 89 98 99 97 76 81 77 84 89 94 85 88 82 80 80 74 76 76 82 81 87 92 88 96 78 86 94 76 70 77 98
58 58 58 55 62 67 82 79 86 84 86 98 99 100 97 93 99 98 99 81 70 82 80 81 83 90 91 87 94 94 87 66 62 61 88 71 89 96 87 62 64 74 72 72 82 79 73
63 58 57 55 66 69 77 81 82 86 87 99 96 99 97 90 99 98 88 79 77 84 82 89 93 86 75 85 84 79 66 51 64 59 67 75 99 98 96 88 89 97 82 69 66 90 94
65 58 57 54 65 71 78 84 83 86 86 99 98 98 100 99 91 93 86 86 88 79 77 84 88 80 83 83 67 65 63 60 64 63 80 87 98 98 90 98 87 98 79 72 70 78 74
66 59 55 55 58 68 76 84 82 85 90 99 99 95 86 97 97 86 85 82 88 93 88 86 94 92 89 90 68 69 58 62 66 78 88 94 100 99 96 92 95 73 69 74 82 80 90
65 60 57 56 56 66 74 80 80 86 92 99 99 97 89 86 83 90 89 92 85 85 88 94 96 80 86 92 58 60 59 60 72 85 89 94 98 100 97 88 93 86 72 78 77 88 93
66 61 56 55 58 66 72 80 82 88 93 100 98 90 83 87 86 94 95 89 86 78 83 80 85 89 90 81 64 57 61 49 61 78 92 96 98 99 99 88 87 96 77 75 75 78 87
65 60 58 55 57 66 75 79 82 87 93 99 91 93 91 94 89 86 82 88 89 84 86 86 86 94 70 80 79 78 75 70 58 68 65 86 86 81 95 90 84 53 70 70 80 79 78
64 62 60 57 54 62 70 75 80 86 90 99 92 94 95 95 81 80 83 86 81 90 86 82 89 78 79 82 90 84 89 90 86 80 71 65 76 94 95 94 67 55 50 68 74 67 58
64 64 61 59 55 64 71 75 79 88 90 98 96 94 94 91 84 69 74 68 93 94 93 92 91 87 93 82 95 96 97 90 93 90 84 85 80 90 97 94 83 58 51 48 49 64 56
64 66 61 58 57 63 69 78 76 88 89 97 96 90 94 95 80 72 77 70 92 92 94 96 94 98 94 95 92 99 92 84 93 87 96 94 92 94 92 93 85 64 53 51 67 56 62
64 65 64 58 58 63 66 75 76 83 87 96 99 92 93 96 83 67 62 81 92 91 94 93 99 97 100 97 95 92 92 96 92 87 92 88 94 94 93 97 92 59 48 56 52 73 75
64 66 65 61 62 62 65 72 76 80 88 91 99 91 94 97 93 85 73 68 63 77 90 97 94 92 90 94 93 92 98 94 88 92 86 92 83 92 87 84 68 66 67 68 62 68 81

GFSGBSN_sfc_rhum_021.txt.gz
RH
62 65 66 68 67 72 83 83 81 82 76 77 81 79 75 73 71 73 70 71 69 68 68 70 74 77 85 95 88 57 54 56 66 77 86 88 91 88 87 82 79 86 82 67 64 66 66
65 65 66 65 68 70 72 78 87 81 80 76 80 82 80 78 75 76 74 73 70 68 69 69 70 77 88 90 54 54 54 57 61 82 92 89 91 84 90 84 82 72 67 66 62 62 63
57 60 62 63 63 64 66 71 86 88 80 76 80 81 84 82 76 75 77 74 73 70 70 68 70 77 95 77 53 54 49 58 58 70 81 84 83 87 82 89 74 73 84 72 67 64 66
54 54 63 63 62 63 64 65 76 83 88 80 80 80 83 85 82 78 77 74 78 76 73 71 70 86 88 58 62 60 56 57 54 57 53 56 72 85 80 65 73 86 89 95 68 63 62
55 57 60 62 63 66 63 65 65 75 82 86 81 81 83 84 85 82 83 80 80 77 73 73 86 91 85 53 72 60 57 56 53 51 52 39 50 65 62 84 85 86 94 90 78 62 63
53 51 52 59 62 64 65 67 62 65 73 86 85 81 79 84 86 85 86 82 80 77 76 73 67 89 76 65 64 60 60 55 58 56 59 59 66 79 84 90 87 87 99 93 86 74 70
54 51 57 50 60 63 65 62 68 66 68 77 90 84 80 86 86 87 88 91 91 94 97 89 80 79 56 58 54 65 56 60 60 68 83 76 90 92 76 89 89 94 93 87 79 63 75
53 51 55 52 51 63 62 66 65 66 68 72 89 92 80 82 86 87 88 90 84 72 94 83 82 73 60 59 67 61 53 69 77 92 85 88 96 77 68 74 80 87 89 86 77 67 70
55 54 54 58 54 56 64 66 64 66 68 71 84 91 87 82 89 93 89 85 78 78 94 78 87 84 79 68 71 69 60 72 86 94 92 91 74 60 67 76 82 87 92 77 82 72 68
55 55 55 55 56 62 66 74 74 68 72 78 81 89 93 81 97 90 92 81 82 77 97 81 92 84 79 72 82 57 54 62 73 87 86 86 67 65 71 78 79 84 73 75 77 88 91
58 58 58 54 57 58 65 76 75 70 77 76 81 87 95 90 94 96 81 86 86 78 90 74 88 67 72 79 71 78 59 60 76 83 88 90 93 78 79 74 70 73 65 78 82 92 95
61 60 61 60 55 54 58 70 73 74 71 74 77 90 95 90 90 82 84 83 86 92 94 87 86 87 90 84 78 77 73 61 75 84 78 79 72 75 76 62 64 68 74 80 79 88 95
59 60 61 60 59 62 60 69 75 75 75 82 78 89 94 76 90 87 80 88 98 97 72 93 81 88 82 86 83 83 90 93 94 99 97 98 95 82 78 79 66 71 89 98 98 96 85
62 62 61 59 60 61 62 72 80 82 85 79 82 84 86 77 89 79 81 94 92 70 92 77 83 87 92 80 82 80 86 90 85 98 100 98 98 96 82 80 81 84 88 95 91 94 85
65 66 61 59 60 57 64 73 79 85 79 81 85 94 96 97 84 77 87 99 85 70 80 78 70 89 88 74 77 88 88 77 74 87 96 96 95 91 84 70 80 99 99 74 86 84 95
65 66 64 57 57 56 60 74 85 87 83 89 99 97 98 89 79 86 94 88 83 80 77 72 89 78 78 80 88 86 78 79 81 69 68 82 97 83 82 70 80 89 70 96 99 96 94
65 66 64 58 56 57 61 77 84 83 85 89 97 97 97 85 80 96 99 93 81 83 77 83 84 84 72 82 82 84 76 73 75 80 75 78 90 92 94 96 89 91 95 91 78 88 94
66 66 65 59 54 59 63 72 81 84 88 90 96 100 97 89 98 97 99 88 72 91 83 81 80 74 86 80 83 87 94 76 69 84 88 75 92 96 81 70 62 65 70 78 89 87 77
66 66 65 60 57 65 67 72 81 81 84 99 98 98 96 90 99 99 92 83 81 90 83 81 82 78 73 82 88 90 80 61 69 76 88 78 99 96 98 83 83 99 74 65 69 84 76
66 66 65 61 56 62 69 73 77 78 82 97 98 100 99 97 92 83 87 85 88 76 80 81 88 81 85 84 78 82 78 60 60 61 65 71 99 98 90 97 88 96 88 80 78 90 74
66 65 64 61 54 60 68 75 78 80 86 99 98 97 93 99 98 79 77 79 83 93 82 78 91 89 92 92 76 92 73 61 71 68 82 92 100 100 96 94 99 96 77 78 92 75 74
64 62 64 60 54 57 66 73 79 84 92 100 98 97 89 87 85 84 86 94 86 80 90 95 97 85 86 94 70 68 66 65 74 87 87 96 99 100 97 90 95 98 94 80 75 65 60
64 62 63 59 58 53 65 76 81 85 92 100 99 91 85 87 86 90 90 85 83 76 80 73 86 93 86 83 76 70 74 65 57 79 93 98 99 100 100 94 96 99 86 76 69 64 66
65 63 64 59 59 54 65 72 79 82 89 99 97 98 94 91 85 80 81 74 88 83 88 85 81 94 74 76 78 80 85 84 72 76 75 95 98 98 99 98 97 85 81 56 59 66 73
66 63 65 62 57 55 63 68 76 80 84 98 98 98 93 93 77 79 79 86 85 85 90 86 81 79 83 87 95 92 92 87 87 79 86 77 83 97 99 97 73 58 93 88 88 86 81
66 65 64 65 58 56 63 66 74 81 86 96 98 98 93 92 86 70 77 87 93 94 93 92 91 90 94 90 96 89 98 85 82 92 88 88 82 94 94 95 87 61 55 71 70 90 66
67 65 65 67 60 60 63 66 74 80 86 95 98 94 93 94 83 73 80 81 86 89 94 96 92 98 96 97 94 98 94 86 90 79 98 95 94 97 90 89 86 70 62 56 83 60 63
64 66 65 66 65 62 62 64 71 77 86 94 97 96 94 96 83 71 67 86 95 88 93 92 97 99 99 98 97 96 90 89 95 88 87 85 83 89 87 97 91 62 55 60 55 76 80
63 66 66 67 66 65 61 63 69 74 84 90 99 94 93 93 92 87 78 68 65 73 88 97 92 96 95 95 95 95 95 95 92 95 91 94 82 89 82 82 68 70 74 74 66 70 83

GFSGBSN_sfc_rhum_024.txt.gz
RH
56 57 57 62 63 66 65 67 70 82 88 78 78 79 81 77 74 69 73 70 70 69 69 70 75 79 85 91 89 61 61 59 70 79 79 85 89 85 87 86 85 89 86 72 68 64 70
54 58 62 62 65 66 67 66 66 66 81 87 78 81 80 84 78 76 76 73 72 69 70 71 70 77 89 82 51 56 54 57 76 77 82 89 89 86 90 88 84 79 75 72 66 64 65
54 54 55 54 62 62 62 65 66 66 67 83 86 82 82 84 81 77 76 76 73 71 72 69 70 78 95 79 57 60 51 60 61 76 94 92 84 86 88 92 80 84 88 80 74 68 66
54 54 54 56 56 57 67 63 62 66 63 66 85 88 82 82 84 81 76 77 77 77 73 71 72 86 85 58 66 62 60 56 56 60 55 74 82 92 86 78 71 82 81 95 71 68 63
55 54 53 54 55 53 54 65 66 65 66 66 71 87 86 81 83 84 83 80 80 82 76 74 88 90 86 54 75 63 57 56 59 62 56 41 60 77 78 90 88 79 88 86 73 63 68
53 51 51 54 55 55 58 61 65 68 66 67 68 76 90 84 81 85 86 82 79 80 78 74 72 93 76 68 66 62 65 54 58 60 60 64 68 80 85 94 94 87 86 78 72 72 73
54 51 51 56 56 55 53 56 61 65 70 64 67 75 91 91 82 85 86 94 97 96 90 87 83 80 62 61 58 68 62 61 62 67 88 78 88 94 83 85 86 96 90 89 70 59 72
55 55 59 59 58 57 57 58 63 68 69 68 69 75 82 92 87 86 87 93 76 71 92 85 84 81 66 66 72 68 58 73 80 90 84 89 96 76 74 71 76 79 86 84 66 59 76
59 58 58 60 59 57 55 57 61 71 73 70 72 76 84 90 95 93 84 80 80 72 88 80 87 80 82 70 76 74 64 74 88 95 94 92 76 66 73 81 79 77 88 87 82 69 66
59 57 58 62 59 59 58 58 65 69 70 70 73 70 75 91 99 92 89 82 78 68 95 76 94 87 83 72 76 59 58 69 81 94 93 91 72 75 80 82 82 90 74 77 83 90 89
60 60 62 63 60 59 60 64 70 65 66 77 75 72 73 85 98 95 92 85 80 71 91 76 89 65 74 75 74 80 63 63 78 81 84 86 92 93 90 74 74 77 68 80 84 92 95
66 65 66 66 63 60 61 68 65 65 69 75 73 72 75 93 98 83 79 79 82 88 96 90 86 89 91 82 74 75 72 65 73 77 78 75 76 76 77 65 66 68 77 80 85 89 95
64 67 66 66 63 61 64 61 62 73 80 77 82 85 81 88 98 83 74 83 95 96 74 88 85 80 75 83 79 81 87 94 95 100 98 94 88 80 75 85 74 75 99 97 98 98 89
61 64 66 66 65 61 59 57 68 79 84 83 80 78 86 86 94 81 80 87 94 72 89 76 79 78 83 76 76 77 87 93 84 96 100 99 93 86 84 77 83 84 86 95 93 95 86
65 67 66 66 64 61 55 58 71 87 84 84 84 98 96 84 94 76 73 91 82 74 77 82 82 96 97 76 75 81 86 89 63 80 98 98 94 90 75 76 67 97 98 76 94 95 97
66 67 66 66 64 60 56 61 71 84 88 87 96 94 93 84 92 86 85 87 80 74 75 72 88 80 87 84 85 90 78 76 72 64 74 86 96 84 84 80 78 92 82 98 99 96 94
63 67 66 66 63 57 55 65 70 76 85 84 95 96 91 94 92 95 95 89 82 81 73 79 81 86 76 77 82 83 80 69 78 81 75 73 91 91 92 96 87 98 99 99 96 95 88
63 66 66 66 62 58 56 69 71 77 87 88 95 100 96 93 99 98 95 86 78 90 84 83 78 78 82 74 80 79 85 74 72 80 86 71 95 96 83 68 65 68 78 81 90 90 87
66 66 64 66 62 59 57 70 72 79 86 99 98 97 97 88 100 99 91 87 84 91 85 81 85 78 72 86 96 82 85 68 76 82 84 75 98 98 93 86 81 100 87 69 67 84 88
66 66 64 63 63 61 61 66 72 81 85 98 97 99 99 98 94 88 86 83 96 80 76 72 76 78 86 95 88 91 89 67 74 75 70 70 98 96 93 86 96 98 94 96 90 95 74
65 67 63 64 62 58 61 68 73 85 84 98 98 98 92 100 98 79 76 82 88 93 82 76 86 84 94 98 98 95 86 77 72 68 72 85 99 95 96 91 100 99 95 98 98 80 85
67 66 63 66 61 58 57 70 76 85 87 99 98 96 95 90 82 78 84 89 81 88 86 85 93 78 89 97 79 80 85 76 68 87 88 92 98 100 97 85 96 98 96 95 88 77 74
68 67 64 65 65 57 56 69 75 82 88 98 97 93 83 89 81 92 83 89 76 78 84 75 80 90 96 88 80 75 70 73 80 74 88 98 100 100 95 98 94 98 90 89 87 72 69
67 66 66 64 65 57 56 64 70 79 88 99 97 100 94 97 89 78 82 82 87 78 83 83 76 89 76 82 83 78 88 87 86 81 69 95 99 99 98 99 98 91 82 70 75 66 64
66 66 64 64 66 60 58 62 67 76 83 98 98 99 95 95 76 75 85 80 82 88 93 86 80 80 80 91 96 93 89 91 89 90 80 73 88 99 99 97 93 64 90 73 78 75 61
66 63 64 65 66 64 61 63 66 74 82 93 99 98 99 92 82 66 79 90 94 96 97 92 95 92 92 95 95 92 90 89 82 90 92 90 88 98 100 98 94 64 60 73 71 94 74
67 67 64 66 66 65 64 61 64 72 80 91 99 96 99 96 86 74 84 90 83 90 91 95 92 95 93 97 99 95 89 89 91 94 97 98 97 97 96 88 83 71 66 77 91 70 62
68 64 61 67 66 66 66 61 63 73 80 90 97 96 98 95 86 77 69 91 95 88 94 94 95 97 98 99 96 90 92 93 96 89 92 92 91 91 87 95 91 65 66 77 61 74 77
68 66 65 67 66 66 64 62 66 71 80 83 98 94 97 94 91 89 79 70 72 75 87 94 88 90 92 97 95 96 96 92 93 94 91 93 79 86 80 80 66 72 62 64 70 73 81

GFSGBSN_sfc_rhum_027.txt.gz
RH
55 56 56 55 54 55 60 61 62 66 64 68 75 85 82 78 80 75 70 72 70 69 68 70 73 78 78 85 88 59 59 56 62 72 77 75 76 74 74 75 74 83 76 68 64 60 59
55 55 55 55 56 56 53 55 63 61 65 68 67 77 85 83 80 82 76 75 72 70 70 71 70 74 80 75 46 54 51 54 77 80 80 73 75 71 75 77 72 68 69 68 64 60 58
55 55 53 54 55 54 56 59 60 62 64 66 65 72 83 85 80 83 76 77 74 72 72 69 72 76 92 78 56 57 53 55 56 69 83 83 72 75 78 87 74 74 82 71 69 65 63
55 52 52 53 54 55 52 52 51 57 60 64 63 68 71 86 85 82 80 77 77 77 75 72 74 80 81 56 64 60 56 52 53 55 66 81 84 82 82 72 69 80 80 78 62 60 61
52 53 54 54 59 59 58 56 55 53 59 64 67 65 67 83 89 84 84 83 80 79 76 76 87 82 86 53 70 63 54 52 57 57 52 54 68 76 79 88 84 84 85 88 67 58 60
56 59 52 57 58 58 58 54 55 57 59 68 66 68 66 76 89 86 88 84 79 81 78 77 72 92 73 68 64 64 62 51 57 63 62 63 69 81 79 90 88 81 86 71 71 58 64
62 60 56 56 62 60 59 55 52 59 57 69 70 69 70 76 88 92 89 94 94 92 86 84 80 76 64 63 59 67 61 58 58 68 89 73 82 88 82 80 75 87 90 79 69 60 65
62 57 59 59 61 58 60 57 58 57 59 69 71 72 75 74 86 91 88 93 79 72 93 83 85 85 71 66 70 71 59 71 73 86 79 84 91 67 57 70 74 76 82 80 60 54 61
56 59 61 62 64 63 61 59 61 64 68 70 67 70 74 71 79 95 91 77 76 61 81 77 86 81 82 70 79 75 64 74 82 92 88 89 71 67 73 77 76 82 87 70 63 64 61
62 64 64 64 64 64 64 60 62 67 67 64 62 66 75 71 86 95 95 82 77 57 90 71 88 85 82 71 77 63 61 68 81 90 90 91 70 74 83 83 79 86 70 70 75 84 77
66 58 65 65 64 63 64 63 63 65 62 68 70 71 72 68 93 93 95 85 69 66 82 74 94 66 76 76 68 80 63 63 84 85 87 84 85 93 82 72 74 77 66 73 76 88 83
60 63 63 62 65 64 64 64 58 56 68 75 76 73 70 82 90 82 92 87 69 85 88 92 86 92 93 79 73 74 70 64 69 74 78 78 71 74 79 71 67 65 77 78 81 89 96
62 63 64 66 65 65 63 62 55 59 71 85 84 83 77 74 85 94 92 89 97 90 74 95 88 86 77 84 81 78 89 94 95 100 96 84 86 75 70 76 73 72 99 95 97 98 83
64 63 64 66 65 66 63 58 56 63 77 83 83 83 82 75 79 95 90 98 90 72 85 67 75 80 81 77 72 74 86 91 80 88 100 93 90 82 77 74 82 88 89 91 91 87 73
62 63 64 66 65 65 61 55 58 72 83 86 82 94 92 90 86 95 98 99 80 75 81 79 75 84 85 77 80 76 81 82 68 82 99 95 92 84 85 78 68 96 98 72 87 76 94
64 64 66 66 65 65 59 57 64 75 86 86 96 97 98 90 87 97 100 84 79 72 75 73 87 81 84 87 91 87 85 75 77 62 68 79 98 80 84 71 75 88 74 97 99 95 87
67 65 66 64 66 64 61 58 64 71 84 86 95 97 94 88 93 99 100 87 90 77 67 74 82 86 80 85 83 85 80 68 72 80 72 82 89 84 94 96 77 94 98 98 90 90 79
68 65 66 65 66 63 64 59 62 73 80 91 98 99 96 92 100 99 99 84 84 91 79 80 75 75 77 82 88 80 80 70 71 82 87 75 90 99 86 62 64 64 78 80 97 84 89
66 64 66 63 65 63 60 59 63 75 82 98 98 98 95 87 100 100 88 90 90 89 85 81 84 78 77 79 89 81 80 69 78 79 87 77 95 98 88 84 69 96 87 90 94 98 93
62 67 66 66 66 67 60 61 68 78 84 98 97 100 99 97 95 95 90 92 94 82 85 73 80 75 81 85 76 89 87 74 76 74 69 67 91 89 83 84 91 99 97 96 98 97 77
66 67 65 66 65 65 58 62 72 83 88 98 97 98 94 100 99 84 76 81 96 92 86 79 87 77 77 88 83 86 82 80 79 76 77 82 99 95 91 83 94 99 96 97 99 86 91
68 67 65 65 63 64 59 62 70 77 88 97 99 97 97 93 87 75 84 87 84 95 88 87 94 79 79 95 85 91 84 83 77 84 85 82 98 100 96 81 83 99 95 95 94 90 78
68 67 65 64 63 65 61 62 68 74 86 97 96 94 88 86 84 79 88 88 82 84 85 76 78 77 89 73 80 80 76 66 68 89 83 96 100 100 94 79 94 99 94 95 93 83 77
63 62 63 65 64 65 64 63 64 71 82 98 96 99 96 98 92 80 76 86 83 80 89 84 77 84 73 81 83 88 89 88 91 89 78 88 99 99 98 98 98 88 77 80 81 75 70
64 66 64 64 65 65 65 64 62 66 75 97 96 99 94 96 80 79 80 80 90 85 90 86 79 75 80 85 95 92 86 95 94 93 93 83 84 99 99 96 81 67 74 84 81 87 68
64 65 63 62 66 66 65 66 62 66 76 93 96 99 99 93 86 70 90 81 91 94 94 89 94 93 88 92 96 97 95 85 89 95 93 85 81 97 99 99 96 68 66 76 73 84 68
66 66 65 65 66 66 66 64 62 68 75 92 96 98 99 94 90 78 84 93 87 91 92 97 95 92 93 97 99 99 91 88 96 94 91 98 96 96 97 99 82 68 68 78 74 62 61
65 66 66 66 65 66 67 62 64 69 76 90 95 93 100 96 92 77 71 90 92 89 91 93 92 96 99 99 99 97 97 92 95 88 95 90 96 96 95 93 91 66 80 79 58 68 71
64 63 64 65 67 68 64 61 63 70 71 81 97 86 91 96 89 92 81 75 72 71 86 95 92 88 92 98 96 94 88 96 92 93 91 95 78 82 79 76 65 70 62 65 71 74 75

GFSGBSN_sfc_rhum_030.txt.gz
RH
54 55 54 54 54 54 55 55 60 59 61 63 62 64 69 79 83 82 80 73 72 71 71 70 71 76 63 63 54 46 56 46 52 63 63 63 56 51 52 47 52 50 40 43 41 47 43
54 54 52 53 54 55 56 53 51 51 55 59 62 65 63 73 80 86 84 76 73 72 72 73 70 74 58 49 35 40 38 46 56 65 65 58 56 53 53 52 52 47 50 47 45 43 41
52 53 54 54 55 57 59 58 57 55 52 51 56 65 64 64 73 85 84 80 75 73 73 70 72 60 70 50 40 42 42 46 55 57 75 58 57 62 56 61 53 53 60 46 42 40 43
54 56 55 56 55 57 59 58 58 55 53 56 54 64 66 66 67 83 87 84 80 79 76 72 74 58 62 45 43 43 41 43 47 49 58 59 57 63 56 55 55 57 56 54 42 45 43
53 62 59 59 57 61 60 58 58 55 53 57 55 66 68 67 66 77 88 88 84 79 76 74 67 64 65 46 52 41 39 47 48 41 44 56 58 67 61 62 61 56 51 55 47 37 40
61 59 60 61 59 64 63 61 61 56 56 55 59 66 72 71 71 81 88 87 82 80 77 72 60 75 61 57 50 50 43 41 49 50 54 53 51 53 50 59 55 47 56 46 48 41 45
58 59 60 60 61 59 62 59 61 60 59 62 61 67 70 71 74 77 92 99 99 98 81 65 66 58 56 52 49 55 44 45 46 53 64 60 68 66 51 46 43 55 56 58 50 43 46
59 62 61 62 61 64 61 62 61 62 61 66 68 69 66 68 74 71 91 98 74 63 85 67 66 60 60 56 61 59 46 51 56 66 57 68 74 46 47 50 55 58 61 54 45 41 46
62 63 58 62 64 65 64 62 63 63 61 64 67 67 64 65 75 79 90 92 61 50 63 75 68 63 64 59 62 63 50 52 54 66 62 60 55 52 55 55 60 60 69 65 58 44 39
63 56 63 63 64 65 66 65 63 62 59 57 67 72 67 68 80 77 85 83 91 61 96 74 79 68 61 59 65 50 45 50 63 62 63 62 48 57 61 62 55 60 46 54 58 61 65
57 59 63 64 67 66 66 66 65 64 60 62 69 78 75 72 87 76 89 92 94 76 96 64 81 59 58 57 60 71 47 53 62 64 66 66 66 71 71 61 53 62 50 53 55 62 66
62 61 62 63 65 66 66 64 63 58 59 68 77 86 82 80 84 66 81 95 93 97 85 85 80 90 84 62 62 69 66 56 53 60 63 54 54 59 54 51 52 52 60 63 59 69 89
64 63 64 66 67 66 65 63 58 57 65 74 82 86 80 75 75 76 86 95 99 93 63 90 77 85 70 70 70 66 81 88 79 97 96 66 63 60 58 67 61 66 95 79 90 94 64
66 66 68 66 67 62 65 61 58 59 67 84 87 81 75 71 67 86 96 99 98 63 66 61 67 73 80 65 67 73 83 89 61 65 86 81 77 63 66 65 59 74 70 74 69 54 43
68 69 68 66 65 64 65 62 59 63 74 87 86 88 86 78 77 93 97 99 88 56 60 71 73 80 83 67 65 72 72 63 56 63 88 83 82 61 59 55 57 88 97 60 85 63 78
68 68 66 66 63 66 66 63 61 64 74 84 97 92 83 78 75 91 100 100 67 59 56 56 72 60 72 72 72 66 64 53 55 51 56 65 89 57 57 61 63 74 58 90 97 81 67
67 65 66 65 64 66 67 60 61 65 74 82 98 93 86 76 82 98 100 99 76 56 52 58 64 69 60 68 62 61 60 54 54 54 53 59 68 68 75 82 65 83 96 98 71 72 68
62 64 66 64 67 65 68 58 61 68 77 86 97 100 93 80 99 99 99 83 69 66 61 63 56 57 59 61 65 64 61 54 49 56 65 54 71 82 77 42 44 40 52 62 95 81 82
67 67 66 65 67 64 64 58 63 72 81 99 97 98 94 88 100 100 94 82 72 68 67 64 68 60 56 62 70 59 59 54 54 59 57 56 88 88 81 68 55 74 58 55 83 85 93
69 67 65 64 66 63 64 60 65 70 79 97 95 100 97 96 87 91 93 84 81 71 68 64 65 59 62 65 61 74 66 62 57 54 61 60 71 82 70 80 77 99 76 90 99 98 72
64 67 65 63 65 63 64 64 69 74 83 98 95 98 89 99 95 85 70 76 75 76 69 63 70 63 65 75 78 84 63 62 64 65 61 64 100 83 83 69 82 90 85 88 100 92 94
63 61 60 62 63 63 65 66 70 74 81 94 98 92 90 75 74 70 69 67 67 78 69 75 68 66 65 73 68 67 67 66 58 63 64 68 92 93 97 70 70 92 91 95 96 95 95
62 64 64 63 63 64 65 68 69 70 82 96 92 93 90 78 83 71 68 63 64 66 70 62 61 66 71 69 66 68 60 63 62 61 69 73 96 99 96 69 73 90 95 95 88 78 76
65 64 63 61 63 65 65 66 63 68 78 98 95 98 93 91 82 60 61 62 63 61 64 72 66 69 64 66 67 83 83 78 83 73 60 76 95 92 95 82 94 87 73 84 85 80 77
65 64 64 63 64 66 66 67 63 68 73 96 97 99 92 85 63 64 63 67 69 70 74 70 75 70 74 75 88 90 71 79 70 77 71 66 78 93 97 96 70 65 76 91 90 86 63
63 63 64 64 64 65 67 65 63 68 73 91 96 98 99 74 67 51 63 65 74 76 91 80 86 82 82 92 94 96 72 60 67 86 79 78 78 90 82 97 77 62 73 68 64 74 50
62 61 61 63 64 67 66 63 62 66 71 88 96 97 99 87 64 60 66 70 65 75 81 93 92 98 89 94 95 99 82 62 70 72 85 92 94 95 96 97 65 48 51 64 58 53 52
63 61 61 62 64 63 62 62 61 64 70 86 94 94 99 95 72 62 60 71 75 72 88 81 85 86 96 98 98 95 79 61 70 64 74 73 78 86 87 92 82 46 54 60 49 51 54
64 62 61 59 59 59 59 59 61 63 65 73 97 84 84 98 75 80 69 65 59 57 74 76 75 80 78 88 92 91 79 67 69 62 65 76 55 54 58 51 46 47 48 45 53 56 56

GFSGBSN_sfc_rhum_033.txt.gz
RH
54 54 54 54 56 55 57 57 57 57 54 52 53 54 58 62 64 72 80 83 78 73 73 71 71 75 61 60 48 44 56 50 48 62 63 48 44 39 42 34 32 40 36 27 30 33 35
53 55 56 56 56 57 56 58 58 59 57 56 53 56 56 66 65 67 72 83 83 74 73 74 70 74 56 55 31 35 35 39 40 52 67 54 51 38 43 38 41 35 35 33 32 33 34
56 55 62 58 56 56 60 59 59 59 58 56 54 57 56 64 66 67 69 81 85 81 74 74 72 58 59 46 31 33 34 40 45 47 62 58 50 50 48 51 42 44 50 41 37 35 37
61 64 62 61 57 60 64 64 64 61 61 57 56 58 58 64 68 69 68 76 89 86 76 72 72 50 59 38 34 39 33 41 43 44 49 48 49 54 54 48 46 50 44 50 30 32 31
61 60 59 61 64 62 61 64 60 61 62 62 58 58 59 65 70 71 70 78 85 91 77 72 66 57 55 47 43 32 32 44 44 44 49 51 57 64 57 62 57 49 46 42 35 31 33
58 58 61 65 64 64 60 63 63 60 62 64 61 65 66 64 69 72 73 80 85 94 79 61 51 68 49 49 42 37 33 40 47 52 56 55 56 67 68 73 55 42 43 38 38 30 36
60 64 64 65 63 63 63 68 64 64 63 62 64 66 68 69 70 70 79 90 99 100 96 73 63 48 49 45 39 43 38 44 44 47 56 49 55 57 43 42 38 35 43 40 33 31 37
64 65 60 63 62 64 67 66 65 65 62 64 65 64 68 68 70 66 80 89 91 81 96 60 52 51 45 43 55 46 37 50 56 65 52 66 75 42 36 38 40 43 47 44 35 31 36
62 58 61 62 63 64 65 66 66 64 66 67 62 58 72 71 73 68 73 73 77 92 90 70 54 52 58 50 49 55 44 44 54 58 58 59 45 42 42 47 51 47 50 48 49 41 35
58 62 62 65 67 67 65 66 64 66 67 60 59 62 82 76 78 59 66 82 87 93 100 90 78 59 57 51 62 42 40 42 48 53 52 54 40 47 47 51 44 52 36 41 46 53 50
57 62 67 67 67 65 66 65 65 66 58 61 67 72 75 84 77 68 67 90 96 94 98 70 72 45 50 54 54 59 39 48 52 48 52 59 55 56 57 49 42 52 44 48 48 53 62
60 66 69 69 67 66 66 65 65 62 58 66 71 82 84 93 90 60 67 96 93 99 100 80 82 78 71 54 56 57 56 48 42 49 51 45 43 48 49 45 45 47 50 54 53 63 85
59 69 67 66 66 66 64 66 62 59 64 67 79 78 81 78 68 54 73 96 99 98 55 92 76 76 68 65 64 70 75 73 70 94 93 62 55 49 45 56 50 53 74 73 83 91 64
61 68 67 66 66 63 66 65 63 62 63 71 82 81 74 61 52 66 89 99 99 76 62 52 71 66 76 62 62 59 68 83 56 54 71 81 77 53 57 58 55 60 62 70 62 50 39
63 64 66 66 64 66 63 66 59 61 70 76 84 82 87 75 61 66 95 98 99 55 55 65 69 80 78 59 60 61 61 65 55 55 77 70 73 47 50 46 48 66 89 52 71 54 65
61 66 66 65 64 65 65 64 59 63 71 76 98 89 88 73 67 89 100 74 94 48 49 52 66 58 75 65 64 59 69 48 52 45 41 56 81 49 50 49 50 57 50 84 95 83 62
68 68 67 64 67 66 64 61 60 66 75 79 97 90 90 75 70 96 97 92 71 47 44 50 53 55 54 61 57 59 58 48 41 43 44 51 58 65 62 70 57 69 78 77 64 72 62
68 67 66 64 66 64 64 62 63 69 79 90 95 100 87 62 97 97 99 94 60 56 53 51 44 44 50 49 52 50 51 44 38 41 56 48 57 81 66 40 38 40 58 60 92 65 78
62 63 64 65 65 63 65 64 66 69 81 95 95 92 82 86 98 99 91 84 61 63 57 55 57 48 45 48 59 50 48 46 43 48 48 49 73 83 83 55 44 57 49 47 68 86 94
64 63 61 61 64 66 65 66 67 72 79 93 96 100 94 91 84 82 94 91 81 63 57 52 53 46 49 52 50 55 55 56 48 45 66 53 61 76 72 84 71 99 69 65 96 98 72
64 62 64 61 63 64 65 67 67 76 82 87 85 93 80 99 80 87 76 81 72 65 58 52 57 50 52 62 64 63 54 56 56 57 54 58 100 73 71 62 75 82 74 74 99 95 99
65 65 63 60 62 64 65 68 66 76 81 82 98 96 81 69 60 67 72 81 61 66 54 61 57 54 52 56 56 62 58 58 52 54 60 62 87 88 92 55 57 70 55 74 92 95 96
64 64 63 62 64 65 66 68 65 73 81 96 93 87 97 69 61 53 61 58 55 54 60 53 51 53 58 58 58 60 53 48 49 64 64 71 93 91 81 61 59 78 94 95 93 90 94
62 61 63 63 63 64 66 67 64 71 78 96 94 97 96 77 63 50 49 50 52 52 58 59 54 54 62 50 56 64 73 73 75 75 74 72 78 84 87 68 86 57 49 64 85 84 78
61 60 59 60 64 65 68 65 63 67 72 91 93 97 96 66 56 52 48 51 52 57 61 63 67 69 61 66 72 78 75 81 67 75 82 66 68 77 84 71 57 50 49 66 89 93 60
61 60 60 60 64 65 64 63 63 64 69 86 98 97 99 81 54 42 49 50 58 59 69 68 70 74 72 81 89 96 74 50 65 90 69 66 65 80 72 91 72 53 50 50 60 80 51
62 61 61 59 59 58 59 60 61 63 65 84 96 93 99 90 52 42 50 56 52 59 68 73 83 89 78 91 95 96 76 47 57 57 90 96 99 98 94 91 55 37 44 56 65 55 52
64 62 62 60 59 59 58 58 61 62 63 80 93 90 98 98 62 53 50 53 58 59 67 79 81 84 96 95 98 87 73 58 56 46 62 66 78 87 91 97 83 38 42 58 48 48 48
64 63 62 62 61 60 60 59 60 60 63 70 96 87 84 99 82 66 62 56 52 52 61 68 72 67 73 88 87 92 92 56 53 53 50 63 46 56 57 57 38 38 46 43 46 52 50

GFSGBSN_sfc_rhum_036.txt.gz
RH
55 56 56 59 58 57 56 60 59 60 60 59 58 57 55 57 57 60 67 70 76 81 79 73 71 74 68 71 58 59 63 60 59 70 70 66 49 48 52 41 40 44 38 32 32 33 36
58 60 64 63 60 57 58 62 64 62 64 60 60 58 58 57 57 63 66 69 71 81 87 74 72 75 69 64 31 37 36 38 44 56 72 65 48 44 45 40 40 38 38 38 34 33 36
67 60 62 58 61 60 63 64 64 66 62 61 60 60 59 59 59 63 67 68 70 75 86 75 72 66 63 56 31 32 35 37 41 43 72 62 54 56 50 56 46 44 57 48 44 40 41
61 60 60 62 62 63 63 63 64 67 67 62 63 63 60 60 61 62 67 70 69 77 89 82 72 61 68 39 38 38 32 37 42 48 49 62 59 58 58 51 50 57 57 72 40 40 37
62 58 61 65 65 62 62 68 68 71 65 66 65 65 64 65 64 63 70 71 70 75 84 85 74 72 63 48 44 37 33 40 43 51 54 51 58 67 62 74 70 54 70 59 46 38 38
62 66 66 57 62 61 65 68 65 65 63 65 64 66 66 65 67 67 71 72 72 73 86 75 58 77 52 54 42 36 34 41 48 51 69 75 71 74 72 74 81 64 66 56 49 40 42
67 61 57 61 63 66 64 64 64 65 65 64 68 68 67 63 69 72 75 80 90 96 99 84 74 52 47 42 40 41 37 47 49 58 73 72 80 87 71 61 56 54 50 49 42 33 41
63 60 60 67 68 66 65 65 65 65 65 66 69 66 60 67 72 73 76 80 79 95 98 76 61 49 44 45 54 47 40 58 62 83 58 66 78 50 44 46 53 48 53 53 43 35 41
62 63 65 69 68 68 66 66 66 64 65 67 62 60 64 71 81 72 74 67 74 89 98 82 59 53 54 46 53 56 47 50 64 68 69 63 54 46 49 49 52 55 62 57 53 45 43
64 62 67 68 67 67 66 66 65 63 64 62 60 68 73 75 89 68 70 72 88 93 100 98 80 59 56 51 57 44 42 46 56 71 58 61 45 45 51 54 49 62 45 46 48 62 74
64 64 69 67 65 66 65 64 66 61 60 61 67 69 73 73 91 81 71 78 92 97 99 92 81 46 54 55 58 57 44 43 53 53 55 69 57 60 61 51 46 56 49 52 55 66 66
64 63 66 65 65 64 66 65 65 61 61 64 68 72 75 85 92 70 64 80 92 100 97 98 84 71 72 57 57 54 54 50 46 48 48 54 43 54 54 46 48 48 55 55 61 66 91
61 62 66 66 65 64 65 65 66 60 61 65 69 76 80 75 85 72 76 92 99 98 89 98 87 73 66 67 69 65 72 77 78 93 95 64 60 53 49 60 53 56 74 96 98 95 90
61 68 67 66 64 65 63 66 61 59 63 70 75 81 76 62 67 71 86 97 98 96 98 56 74 71 70 64 70 68 79 84 63 63 84 86 80 60 53 60 65 67 67 96 86 90 71
62 70 68 66 62 65 63 63 59 59 71 77 82 84 87 82 73 78 96 96 99 88 58 77 74 86 79 63 66 72 74 70 57 58 79 80 74 50 52 49 55 70 86 64 82 70 91
63 67 68 65 65 65 63 64 62 67 76 83 99 87 92 82 70 86 99 82 99 78 53 56 74 62 76 71 68 69 72 55 56 48 49 64 78 56 55 46 49 61 54 92 97 97 85
66 65 62 62 63 65 64 64 64 72 83 82 91 93 93 76 76 96 98 82 86 74 48 65 56 57 53 65 61 63 58 50 46 49 47 54 67 72 69 74 71 72 78 75 75 85 89
64 61 66 64 63 65 65 65 64 74 82 80 91 100 85 80 99 99 95 88 84 79 50 46 44 46 50 51 59 55 59 48 42 46 56 51 66 92 81 50 52 53 66 66 90 83 83
64 64 64 62 64 66 66 67 66 72 78 96 94 94 86 95 100 100 96 93 80 70 56 53 51 43 43 53 61 51 52 50 49 51 53 54 81 93 90 67 53 67 58 55 67 87 92
66 66 64 62 64 68 67 68 69 76 78 92 94 97 92 94 90 90 97 82 78 66 57 49 49 45 46 57 48 57 63 57 54 52 64 56 69 86 94 90 84 95 79 65 80 98 83
64 63 62 62 63 65 66 69 70 79 81 88 86 92 82 99 90 86 87 78 73 68 58 54 54 49 50 59 62 60 56 64 56 65 60 67 99 84 79 66 74 81 79 74 98 95 99
61 61 61 62 61 62 67 67 70 78 81 81 96 98 86 70 66 69 84 94 70 61 60 59 59 53 51 56 64 65 57 55 64 59 62 66 97 89 92 67 67 78 66 65 70 92 96
61 61 60 59 62 64 68 66 65 72 80 96 94 86 98 69 61 62 66 66 57 61 63 54 53 57 62 65 62 66 61 52 55 64 65 80 96 96 90 69 69 82 72 82 92 85 92
62 61 60 60 61 66 66 65 64 64 74 96 95 96 91 81 69 58 50 52 56 55 64 59 55 64 64 57 61 69 72 74 76 72 71 92 90 88 96 81 97 72 68 67 75 73 75
63 62 61 60 60 59 59 61 62 64 64 88 93 98 98 86 58 52 49 54 60 63 61 67 70 72 67 73 71 83 81 87 79 80 78 84 89 94 96 83 69 52 58 68 82 80 73
66 62 62 61 60 60 58 59 60 63 64 84 97 97 99 99 62 42 47 51 59 65 69 79 77 76 77 89 90 89 87 65 89 91 75 84 84 87 93 96 86 66 59 56 72 89 68
71 61 62 62 61 60 60 59 60 63 63 81 96 93 99 99 69 50 57 59 63 66 86 80 86 90 80 94 90 93 83 59 69 92 90 98 94 97 96 96 73 46 59 64 92 78 65
68 63 63 64 62 61 60 59 59 61 63 78 93 90 98 99 87 62 54 59 62 72 77 88 90 88 94 91 95 91 89 72 75 70 80 86 92 92 97 98 92 53 59 70 67 68 65
69 60 64 65 63 62 62 59 59 60 62 68 97 87 85 99 93 70 68 62 65 68 75 79 81 74 82 90 89 95 95 83 66 77 59 78 63 71 74 76 51 54 61 59 62 68 71

GFSGBSN_sfc_rhum_039.txt.gz
RH
61 66 62 61 60 60 63 65 64 68 66 64 61 59 58 60 58 58 57 57 65 74 76 85 76 72 81 87 72 65 65 61 60 73 79 79 79 61 65 60 54 58 50 41 40 41 39
69 63 63 63 61 62 66 65 63 63 68 69 64 63 63 61 60 58 58 61 62 70 76 86 80 76 89 88 46 53 56 62 64 77 82 80 67 53 59 55 54 47 50 50 45 46 44
60 60 56 63 63 62 61 59 68 72 72 71 68 63 65 64 63 61 60 60 66 68 72 83 81 72 80 71 36 39 39 46 50 61 79 75 66 64 60 63 55 54 62 57 54 50 50
58 63 70 65 56 55 63 66 66 67 66 62 61 68 67 65 67 65 63 63 69 70 72 80 85 72 86 48 46 41 40 44 46 52 62 63 67 63 62 62 58 63 70 87 58 48 47
59 67 64 57 60 68 66 63 65 65 64 66 66 66 66 66 66 67 68 67 69 70 70 77 86 80 77 51 51 43 40 44 49 55 60 62 77 76 66 73 76 73 89 79 65 44 47
67 64 62 61 69 69 67 67 66 65 66 66 67 67 73 67 65 66 72 70 69 72 73 78 76 84 67 60 48 44 40 42 55 73 72 79 80 90 85 86 94 79 83 75 65 47 49
64 65 63 64 70 67 66 66 66 66 64 64 66 67 66 60 69 70 79 91 89 97 92 87 80 71 55 49 42 50 40 53 55 74 96 83 88 95 88 84 73 63 67 63 52 41 48
64 64 60 70 68 64 64 64 63 65 63 63 65 63 61 66 70 74 85 91 88 91 93 77 75 65 50 46 57 50 45 64 75 91 71 79 83 64 59 60 63 74 71 65 52 44 49
60 63 65 68 63 63 63 64 64 64 63 60 60 62 67 72 73 80 89 80 90 74 96 90 85 71 59 54 61 60 53 60 77 83 71 81 60 49 56 59 60 60 73 70 64 54 53
66 59 63 66 64 64 64 66 65 64 61 61 63 68 70 72 88 87 87 86 86 83 100 98 94 70 57 60 69 49 50 56 63 71 68 65 54 53 60 63 57 74 54 56 58 70 82
62 62 67 67 66 66 65 63 66 67 61 62 63 67 68 73 92 85 78 94 91 92 98 98 92 53 61 70 64 62 50 52 69 69 67 77 61 60 64 60 52 64 55 59 64 76 79
61 65 70 69 67 65 64 62 66 61 58 62 65 68 75 88 94 79 74 89 90 99 96 100 85 77 85 67 64 63 58 55 53 60 59 62 49 57 61 52 54 53 59 65 72 79 98
61 64 70 67 65 65 65 62 62 60 61 65 71 75 82 82 90 75 84 95 97 98 98 99 94 76 76 75 70 69 74 81 82 91 94 67 64 55 55 68 62 64 77 97 94 94 90
59 61 67 66 65 65 64 62 61 63 70 75 77 84 84 76 83 82 91 96 98 97 100 87 74 71 84 71 75 72 81 91 77 73 91 91 90 69 60 67 74 77 75 93 93 98 87
62 62 64 67 60 64 65 64 63 69 77 86 86 96 92 91 81 87 95 97 98 100 92 93 85 97 96 70 79 76 80 82 69 72 83 91 83 56 52 55 61 80 90 68 87 86 96
62 63 60 67 60 66 65 64 64 72 83 81 98 94 94 86 82 88 100 98 96 95 73 69 94 76 93 74 84 85 77 64 57 57 64 70 83 66 59 52 59 63 62 89 96 98 95
59 65 65 65 60 65 66 66 64 74 82 74 96 93 91 89 82 95 99 99 99 80 67 66 65 67 64 74 76 72 77 59 54 58 55 58 68 79 66 74 77 76 71 69 82 94 95
65 64 64 64 61 68 65 68 66 74 82 84 95 97 88 90 98 100 97 90 92 92 72 66 52 58 59 65 69 61 72 60 50 52 67 56 72 95 83 63 59 67 72 77 94 82 95
66 61 60 65 67 67 65 69 67 73 77 99 97 94 87 92 100 98 92 84 89 81 62 58 65 52 51 61 68 58 65 56 50 52 58 59 83 96 88 77 68 79 69 66 75 89 93
60 61 61 60 62 65 67 69 68 74 76 96 96 96 95 97 94 97 92 98 97 77 64 54 50 46 55 62 59 70 66 61 56 58 64 58 80 84 89 87 86 92 83 73 81 98 84
63 61 60 59 63 66 69 68 69 75 80 90 96 96 92 97 96 91 90 82 81 75 62 56 54 50 52 65 62 70 67 68 61 68 65 72 91 90 82 76 84 81 80 79 89 82 98
64 60 61 60 60 61 66 66 66 72 77 95 98 99 89 95 79 80 90 92 78 72 69 67 67 64 61 63 70 62 66 72 73 74 75 75 97 94 93 75 78 87 72 74 74 74 78
62 64 60 61 60 59 59 61 64 66 75 97 94 90 98 82 76 76 87 71 75 72 64 65 61 74 79 78 74 76 65 62 63 76 77 84 96 98 98 75 78 89 72 67 80 86 85
64 67 61 58 60 60 59 59 61 64 69 94 95 97 98 86 86 71 63 65 71 71 75 72 76 79 76 64 70 74 77 78 74 83 72 87 95 95 96 88 95 70 63 65 77 79 79
65 68 64 62 61 60 59 59 59 63 64 88 95 99 99 95 76 65 57 71 71 77 78 86 85 85 76 78 77 92 89 89 91 88 84 81 85 98 97 96 71 59 64 70 86 80 70
66 69 59 62 63 61 60 60 58 61 62 85 96 97 100 94 79 75 52 63 72 78 72 92 84 84 82 92 91 83 92 82 90 89 78 85 84 98 98 98 89 69 62 63 78 95 68
68 70 58 65 64 62 60 57 58 58 63 79 95 93 99 100 88 77 59 60 67 73 88 88 86 88 86 96 87 92 90 76 94 91 87 99 99 98 92 98 84 56 50 68 90 74 74
66 72 60 64 65 63 60 54 58 55 61 78 93 92 98 99 90 78 74 68 66 73 86 92 86 89 92 94 92 94 97 87 88 89 84 90 95 98 96 99 93 50 63 73 66 76 74
66 72 59 66 66 62 58 56 59 58 58 67 97 87 86 99 94 90 80 67 76 71 88 90 85 88 86 94 94 95 87 96 88 89 72 88 76 80 82 78 56 56 67 72 68 71 78

GFSGBSN_sfc_rhum_042.txt.gz
RH
65 59 59 57 60 66 61 58 60 66 69 70 70 68 69 64 66 61 60 56 55 57 64 74 78 83 83 93 78 53 64 61 58 72 73 81 89 75 71 67 63 70 59 48 46 48 46
62 61 64 70 61 57 59 66 65 64 66 65 66 67 67 66 65 67 64 60 56 57 62 69 75 85 88 88 50 53 66 66 65 78 84 85 83 64 63 63 65 56 53 51 50 50 52
61 61 66 58 59 64 70 68 66 65 66 65 64 66 68 69 67 67 65 63 61 63 66 68 74 80 83 68 43 55 57 72 76 76 82 79 77 67 62 68 54 56 62 62 56 53 55
60 66 61 62 63 68 69 69 69 68 66 66 67 67 66 65 65 67 66 65 65 65 68 69 70 92 81 52 48 49 42 46 50 62 70 67 71 71 67 64 61 63 71 81 56 53 49
68 60 64 59 65 67 66 63 63 63 65 66 66 66 65 70 68 66 66 69 70 68 67 67 81 91 74 57 57 49 43 48 51 60 66 68 74 79 71 78 82 77 86 83 68 52 52
60 60 65 64 69 65 60 60 62 60 63 64 62 66 67 66 62 71 70 70 70 69 72 66 76 88 69 64 54 48 45 44 59 74 82 86 93 95 85 81 91 85 88 83 74 52 54
60 64 60 65 66 61 61 62 65 63 63 64 62 62 64 62 65 69 81 92 84 88 95 86 82 75 62 54 47 54 45 50 64 85 95 91 90 94 87 74 66 67 72 70 64 45 49
63 64 58 64 65 63 64 65 64 64 65 61 59 62 63 67 70 74 86 95 86 82 91 65 77 73 57 51 62 58 46 69 77 93 82 96 93 78 74 78 73 78 70 69 57 49 52
59 59 62 67 67 66 66 65 63 67 67 64 62 64 67 71 72 85 89 86 87 85 94 72 83 78 60 52 63 65 54 66 78 90 80 81 64 56 61 66 72 63 74 74 67 58 57
62 58 68 70 66 65 65 65 64 63 66 59 61 64 66 69 83 86 84 83 84 77 95 73 91 83 58 62 71 52 54 60 74 87 69 73 56 58 63 63 61 68 58 59 63 71 84
61 58 66 70 64 65 65 66 60 61 60 61 64 64 68 74 94 91 80 89 85 86 100 88 91 68 62 70 67 62 52 54 75 71 67 78 66 62 64 62 52 67 57 62 68 79 83
58 60 64 70 66 60 66 66 62 60 66 70 72 73 76 89 95 81 86 90 95 99 97 98 92 88 78 67 69 65 60 54 53 62 58 64 55 60 59 56 55 54 61 70 79 83 95
59 60 60 68 64 61 66 64 62 65 71 78 84 79 85 85 94 79 85 95 96 98 99 99 97 79 77 80 78 72 76 79 81 94 98 69 69 60 55 68 63 63 76 93 93 98 84
60 61 63 65 61 62 64 63 64 68 79 81 83 83 86 83 83 82 91 97 96 96 100 88 76 77 91 69 77 73 76 88 76 77 89 90 92 66 60 68 74 75 71 90 79 97 91
60 65 66 65 59 65 66 65 65 76 83 78 78 90 94 95 85 87 96 97 98 100 97 78 83 99 94 83 78 78 74 86 75 72 83 91 84 63 58 59 62 80 88 69 88 87 96
64 64 62 64 60 67 64 66 66 78 82 76 96 93 93 89 82 90 100 96 99 99 81 69 97 92 98 88 88 80 72 68 67 63 69 73 93 68 61 55 60 65 64 88 94 95 91
65 60 59 63 62 61 64 68 66 73 82 75 94 95 90 88 81 96 100 100 99 89 86 74 86 79 78 76 76 70 67 64 57 62 62 66 79 83 68 76 79 79 82 82 84 91 94
62 60 60 59 60 65 68 68 66 70 79 89 94 98 82 89 95 99 100 98 97 92 81 84 58 66 71 70 77 74 78 71 56 59 72 59 82 95 81 69 64 70 76 77 94 77 97
61 60 60 60 61 66 68 68 68 69 74 98 96 94 88 90 100 99 90 94 87 88 82 70 60 59 60 66 76 68 66 61 57 55 65 62 84 95 88 75 75 85 75 73 78 92 96
64 61 60 60 60 60 61 63 67 68 74 96 95 94 92 96 94 97 100 98 94 81 84 58 58 53 62 67 65 73 72 64 60 59 66 63 80 80 89 80 85 89 83 78 80 98 91
61 64 59 60 60 60 60 62 65 69 74 90 97 96 94 98 95 90 92 88 79 82 66 59 58 61 62 73 71 80 72 68 62 62 66 69 89 91 85 78 87 83 81 83 90 77 95
61 66 62 60 60 60 60 60 63 69 72 95 99 97 87 94 78 87 90 90 82 76 73 74 79 71 66 76 75 76 74 75 71 73 76 77 89 95 93 76 82 90 79 78 73 70 71
62 68 62 62 61 60 60 60 61 66 74 97 93 91 98 84 85 87 88 75 72 72 69 78 73 76 82 80 76 68 62 62 66 72 83 84 96 97 98 78 84 95 80 74 74 75 68
61 67 66 63 63 58 60 59 60 60 69 94 95 97 96 92 88 78 71 74 75 75 81 82 81 83 80 71 76 70 73 78 71 80 75 92 93 97 98 87 97 72 59 58 64 68 78
62 66 64 62 64 62 60 58 58 58 62 89 94 99 98 92 92 68 69 77 80 80 88 93 90 88 83 80 86 90 93 85 90 87 79 73 84 97 99 98 74 59 64 72 84 75 72
62 66 68 57 66 64 60 58 54 58 59 83 95 97 100 98 88 86 64 74 81 77 76 92 88 85 82 90 88 83 89 79 95 97 83 83 84 96 98 98 83 62 61 73 77 94 75
64 65 71 60 66 65 61 55 55 58 56 77 93 92 99 99 89 91 74 71 72 79 89 88 83 87 86 94 93 96 89 83 94 87 98 99 99 95 91 98 82 58 56 75 87 75 77
68 66 71 58 64 64 60 58 54 55 57 73 90 90 98 99 93 88 85 73 73 78 85 88 83 89 92 95 92 94 94 91 92 87 91 91 87 92 91 98 94 51 76 76 69 77 79
71 66 71 64 65 66 60 65 62 60 51 63 95 89 88 99 93 92 83 78 72 72 85 91 89 88 86 95 96 92 88 90 92 93 80 84 82 82 83 77 58 57 63 60 67 76 80

GFSGBSN_sfc_rhum_045.txt.gz
RH
63 62 63 65 59 60 64 69 69 69 66 65 65 64 65 67 69 67 67 67 64 56 53 56 63 72 91 88 79 51 60 64 60 73 79 80 82 76 78 72 68 72 64 54 50 50 54
62 64 69 59 62 63 67 68 68 68 67 66 65 66 66 65 68 69 68 65 63 58 59 60 65 74 88 83 49 48 56 63 66 80 80 81 82 69 72 67 70 61 57 55 52 51 54
64 67 62 62 56 66 69 67 64 63 61 62 65 66 66 67 66 66 66 66 64 62 64 64 65 80 92 72 48 55 68 69 71 76 84 82 75 66 66 68 56 59 66 66 59 56 56
64 63 63 62 65 68 64 62 60 63 62 59 63 64 64 67 68 69 68 66 66 65 66 65 66 88 92 54 49 52 45 67 86 85 76 76 68 68 69 65 64 68 72 82 58 53 52
65 65 64 59 64 66 62 62 62 63 64 63 63 66 63 66 68 65 70 68 67 68 67 65 76 93 84 56 62 49 48 51 60 74 79 62 77 81 73 78 86 79 90 85 68 54 56
63 66 62 62 64 66 65 65 65 64 63 64 61 60 62 64 64 67 72 73 72 70 71 68 72 96 80 70 57 50 48 48 63 81 86 86 89 95 88 83 94 90 84 85 77 58 58
66 60 61 65 70 67 67 66 63 66 66 69 65 63 65 64 67 70 83 92 81 87 92 86 82 75 70 56 50 58 47 50 76 89 98 90 97 95 84 75 72 70 79 82 73 54 55
68 63 64 68 69 63 66 65 66 67 62 70 66 60 63 65 71 73 89 91 78 81 84 72 68 68 73 58 72 63 46 61 81 93 95 98 94 80 81 77 80 71 80 84 62 54 57
65 59 62 64 69 67 62 67 67 63 60 60 60 61 63 66 70 84 95 86 80 86 89 64 76 83 79 56 69 73 52 67 78 91 83 83 76 73 79 84 90 83 84 80 71 61 61
63 58 63 65 69 67 60 68 66 60 62 67 69 70 66 67 84 89 86 82 86 81 96 90 90 83 81 62 73 56 53 66 76 92 74 65 55 71 69 79 73 72 56 62 65 71 85
60 60 58 60 69 60 64 63 62 66 70 73 76 81 74 73 93 96 85 89 84 84 68 73 89 86 67 72 69 69 62 60 82 79 69 79 64 72 74 65 53 66 58 63 68 80 82
60 61 62 65 66 58 64 64 67 69 78 78 79 77 82 90 96 80 87 86 88 95 99 94 90 95 82 70 72 74 65 53 59 63 60 69 59 59 60 60 56 55 62 71 85 82 92
61 61 66 65 62 61 66 63 67 73 79 72 78 80 88 86 90 84 88 92 95 96 98 100 98 80 80 78 81 75 75 73 85 98 100 72 69 61 57 69 63 63 76 90 85 95 84
60 66 63 61 65 62 61 67 65 74 81 75 75 81 86 86 83 78 88 94 95 95 99 90 84 76 96 77 78 76 81 83 71 77 96 94 94 68 64 69 75 76 72 86 71 92 88
61 65 61 61 60 61 64 65 64 73 80 81 76 93 94 92 84 84 96 98 98 99 100 96 86 98 98 87 85 83 78 79 73 70 81 87 83 68 61 62 63 82 90 72 88 88 96
63 62 61 60 62 66 68 66 66 70 78 80 94 94 93 88 86 90 99 97 99 100 95 74 98 95 94 94 95 91 76 68 68 66 69 72 93 70 66 59 63 70 67 88 94 74 86
62 63 60 61 62 62 62 65 67 69 75 76 94 94 83 88 84 96 99 100 100 86 81 78 93 87 86 84 78 77 74 66 61 67 66 69 79 86 69 78 84 79 89 88 85 88 90
62 64 61 62 63 62 63 64 67 70 75 85 94 94 81 90 95 96 100 99 97 88 83 88 66 67 77 75 72 69 71 68 58 61 70 67 83 94 80 70 67 72 77 81 90 80 94
62 64 61 62 63 62 62 64 66 69 74 98 95 96 89 91 99 98 93 90 88 87 91 77 64 63 68 71 75 71 73 62 62 61 68 62 84 95 86 73 75 84 77 74 81 88 97
62 62 63 62 63 62 62 63 65 69 73 94 96 96 94 96 93 96 100 97 94 87 79 62 62 60 62 71 70 77 73 72 64 58 65 63 80 79 87 79 85 92 86 81 83 100 92
62 63 68 62 64 62 62 62 64 68 72 95 98 97 93 99 93 90 92 86 83 88 68 64 62 63 66 80 77 80 74 71 63 67 71 69 89 90 83 76 88 83 81 88 87 78 92
61 62 69 63 64 61 62 62 62 64 72 96 92 99 94 96 91 91 85 87 82 82 80 76 79 75 68 78 80 82 74 74 69 66 73 75 93 94 91 76 84 91 82 81 84 78 79
62 62 69 66 64 63 62 61 60 62 76 97 93 92 98 87 92 88 86 73 74 74 77 83 76 82 86 84 82 67 64 64 64 74 83 80 94 94 98 79 84 91 82 80 76 75 62
66 62 67 63 64 66 63 60 60 59 73 96 96 98 98 96 93 84 72 80 85 84 84 90 85 83 84 74 76 72 78 76 72 80 75 88 92 94 98 84 95 65 65 61 64 63 67
65 63 66 70 59 66 65 60 57 57 58 94 92 98 98 90 96 80 78 84 83 84 91 93 90 89 87 82 86 86 90 83 89 83 75 70 85 94 97 98 75 64 59 73 77 74 68
66 66 67 74 61 66 65 59 56 56 57 88 95 97 99 98 85 85 92 82 85 87 85 91 88 86 82 89 87 77 82 82 95 97 85 81 83 94 97 97 89 68 65 74 76 87 78
67 67 69 72 61 63 64 60 55 54 54 78 92 91 98 99 90 92 86 82 80 87 92 87 83 86 84 92 95 96 90 76 89 96 98 99 99 97 82 92 82 58 52 79 88 78 77
68 72 67 69 70 61 66 60 54 56 54 67 92 94 98 98 92 88 93 94 81 84 82 87 83 88 94 94 92 94 96 91 93 81 95 94 96 91 92 98 92 56 74 76 66 71 79
72 70 68 70 67 61 66 65 64 63 60 58 95 89 89 99 93 92 86 81 89 84 84 86 89 81 82 93 95 92 82 87 88 96 85 96 83 85 85 79 57 57 57 60 64 74 79

GFSGBSN_sfc_rhum_048.txt.gz
RH
64 63 69 62 65 61 64 69 68 68 62 59 61 60 64 64 65 67 66 68 67 65 62 57 56 59 85 93 75 59 56 59 56 67 77 81 75 76 77 74 67 74 66 59 54 53 56
65 63 62 62 62 65 67 68 64 62 62 62 62 62 65 63 66 68 67 66 66 67 66 61 61 63 93 97 49 50 49 65 62 76 82 80 74 67 70 72 70 65 60 60 56 53 54
62 63 63 62 64 62 64 65 63 64 62 63 64 61 65 62 64 65 68 67 67 68 66 62 63 69 93 76 49 54 62 72 64 75 90 75 70 70 66 69 62 62 69 67 62 58 58
66 62 64 59 61 64 69 68 69 66 66 62 62 62 64 66 64 66 66 68 67 66 65 64 63 78 90 60 64 68 50 90 84 83 73 75 66 68 69 64 66 72 74 86 63 59 56
64 63 60 61 66 68 70 64 66 65 64 66 68 65 63 61 62 64 67 70 70 69 67 65 79 85 82 62 78 65 55 80 91 89 88 60 78 78 74 80 87 78 93 88 68 58 60
62 66 60 61 64 68 69 63 67 66 66 67 69 69 66 63 65 66 72 72 72 70 73 69 75 91 84 78 68 56 50 61 71 86 86 82 89 94 92 83 84 82 85 87 81 61 68
64 62 61 63 64 67 69 60 68 68 68 62 58 62 60 60 65 69 83 90 87 79 89 83 78 77 77 65 68 62 51 65 82 91 98 85 95 94 78 81 71 76 79 81 78 60 59
61 61 60 64 66 66 61 62 68 65 61 65 68 66 66 61 66 71 90 91 83 77 93 70 66 62 58 67 81 71 48 65 87 90 97 96 94 85 75 69 70 76 86 88 70 58 61
63 60 60 63 62 66 58 63 63 63 70 73 77 75 71 69 65 86 94 87 77 84 90 80 70 82 78 81 76 75 53 66 84 92 88 87 85 78 81 84 83 86 83 82 80 65 65
63 60 62 65 66 60 62 67 64 70 74 78 73 74 76 72 84 88 88 86 88 82 94 90 84 80 74 72 86 57 53 69 81 89 75 66 77 84 89 88 84 97 63 64 64 73 86
63 61 65 64 64 58 65 62 71 70 77 74 78 77 77 80 89 88 81 89 82 81 67 75 85 86 85 75 84 70 66 64 82 82 82 88 83 92 94 82 68 68 60 65 69 78 82
64 62 65 61 63 60 60 69 70 72 76 74 80 81 79 90 93 84 91 88 87 91 97 94 89 96 83 70 81 77 73 58 62 70 69 67 55 59 60 62 56 57 63 71 80 81 91
62 65 64 62 61 63 67 68 68 69 74 74 77 80 85 83 88 84 86 90 92 94 89 100 99 87 80 81 84 73 78 80 88 96 97 73 68 59 57 68 60 65 80 92 80 92 80
63 65 63 63 62 60 63 64 66 70 74 81 74 80 82 83 86 84 88 91 92 94 99 92 96 91 92 80 84 82 79 82 67 84 96 95 92 67 64 68 74 81 75 87 67 84 75
63 66 63 63 63 63 63 64 67 68 76 82 74 92 93 89 88 89 96 96 97 98 100 100 93 98 99 93 84 94 83 81 72 65 83 88 86 69 63 66 66 80 89 71 90 89 94
63 65 63 63 64 64 64 65 67 68 74 80 94 93 90 85 88 92 96 92 99 100 95 78 93 89 96 98 91 95 77 72 69 65 68 76 95 76 70 63 67 70 68 86 93 78 74
63 64 65 63 65 64 64 65 67 69 73 76 92 90 79 91 82 95 99 100 100 87 91 80 94 89 90 94 80 82 75 71 60 71 64 71 79 88 68 80 82 79 91 87 84 86 78
63 64 67 63 66 64 64 64 66 69 73 86 93 94 79 87 95 98 98 95 91 88 85 69 67 72 79 76 76 77 80 68 58 60 71 69 82 96 85 74 71 76 80 80 86 86 91
63 63 66 66 65 65 64 64 65 68 72 98 96 93 86 90 98 99 94 94 88 90 89 66 66 66 69 72 74 73 70 67 62 60 65 63 84 96 88 75 74 83 76 75 80 86 99
63 64 66 69 65 65 64 63 64 66 71 94 96 97 94 95 94 97 99 94 88 89 75 62 66 60 64 75 73 76 73 74 67 59 66 61 78 78 87 79 86 93 86 81 82 96 90
65 63 65 71 70 66 64 63 63 65 71 93 98 96 92 99 92 90 90 85 87 88 71 66 65 66 70 83 81 82 75 74 68 72 70 69 89 89 81 76 88 83 80 88 86 82 89
65 64 64 71 68 67 66 63 63 64 72 91 90 97 88 92 86 86 82 85 88 91 86 78 85 84 74 77 78 82 75 79 79 71 72 74 99 94 91 77 86 92 84 85 86 81 83
66 67 64 69 64 66 69 64 61 62 77 98 94 88 91 86 93 90 90 81 82 79 82 84 80 86 86 89 86 72 69 68 67 75 81 75 94 93 92 80 85 92 84 81 85 80 71
65 63 64 68 66 63 69 64 60 59 74 97 95 98 98 95 95 89 81 85 88 87 85 90 82 83 81 76 79 71 77 74 73 85 70 85 90 93 99 83 95 58 69 66 65 62 66
65 65 64 67 74 65 66 65 57 58 58 92 94 98 98 90 95 88 88 88 84 86 92 92 92 89 88 83 81 85 89 82 90 86 79 66 85 92 94 100 77 67 73 72 74 72 65
67 67 67 67 72 66 64 64 58 56 57 89 95 96 99 98 94 89 97 85 86 90 89 92 88 86 84 89 87 76 90 86 96 97 84 82 83 88 96 86 94 64 71 72 76 89 71
68 68 70 69 69 74 64 66 59 56 56 77 91 91 98 99 80 90 96 87 83 88 91 91 88 85 84 92 93 95 90 76 89 93 92 95 98 96 82 83 85 58 55 78 93 83 78
70 68 72 69 69 72 64 66 61 60 61 68 86 93 98 99 89 81 90 98 87 89 83 85 82 88 94 92 92 94 95 87 91 82 77 80 88 92 89 94 94 58 76 80 70 69 77
68 70 71 69 68 76 66 62 61 64 63 60 93 90 92 99 94 85 81 78 86 89 90 87 84 82 84 95 96 93 87 91 87 94 86 96 89 91 81 80 59 58 56 57 69 64 73

GFSGBSN_sfc_rhum_051.txt.gz
RH
60 62 63 62 66 60 61 64 65 66 65 63 60 62 63 63 64 64 64 64 65 66 66 65 63 59 70 96 81 60 57 50 56 61 75 74 80 76 75 68 64 66 59 55 51 52 50
59 63 60 62 58 60 67 70 70 69 66 66 65 63 62 64 63 61 62 66 66 65 66 66 66 70 80 97 54 66 53 55 58 64 77 71 72 62 64 67 62 60 56 54 52 49 48
64 61 64 60 59 64 66 70 66 65 66 66 66 64 64 64 64 65 65 66 64 63 64 65 62 70 90 76 52 66 58 73 61 63 79 78 59 61 62 70 59 61 67 59 54 53 52
63 63 66 60 62 64 68 69 63 66 69 67 67 69 69 66 64 61 64 64 66 71 66 64 62 78 82 58 63 65 68 70 67 68 70 76 63 64 62 57 61 67 61 75 56 56 51
62 62 59 63 65 65 66 67 60 63 68 68 65 62 67 69 61 64 65 68 70 71 67 64 80 84 78 66 76 62 65 67 85 88 87 72 73 76 66 74 79 73 84 78 61 57 55
62 61 60 66 62 65 65 58 62 66 62 63 69 70 63 60 59 64 68 72 68 71 73 70 74 86 74 81 75 61 53 79 82 89 78 77 80 89 86 79 82 79 79 78 65 53 59
65 61 59 64 65 70 59 60 70 62 68 69 74 78 74 67 61 65 80 88 81 78 86 80 72 75 74 75 74 75 51 77 82 80 91 87 91 89 81 73 63 65 71 71 65 53 54
62 62 61 62 60 66 58 68 62 71 69 71 72 74 76 74 66 66 90 92 80 76 88 71 72 65 64 84 86 77 57 88 86 95 90 97 88 71 67 65 66 69 75 76 62 52 53
62 62 62 66 60 61 60 62 69 68 71 73 75 77 75 76 68 88 92 87 85 84 84 71 75 68 72 81 76 80 63 69 86 93 94 98 90 67 69 77 75 80 79 76 68 57 55
64 63 67 60 62 60 63 70 67 68 70 74 78 75 80 76 84 89 88 84 86 79 92 91 83 78 85 74 79 56 53 72 87 93 89 93 90 84 81 78 73 92 73 63 60 67 71
65 63 68 63 62 62 67 70 70 72 72 75 74 77 77 79 92 90 87 84 84 73 80 65 83 80 84 89 80 71 63 72 86 84 81 88 97 93 90 88 72 83 59 62 63 70 68
66 63 66 63 63 62 62 64 66 70 75 78 74 80 79 87 89 90 91 86 80 87 98 92 88 93 94 78 79 72 74 66 73 76 72 67 59 66 87 84 79 58 61 66 71 71 83
66 63 66 63 64 64 63 64 65 68 73 78 75 75 85 88 99 90 90 84 91 94 82 100 99 97 84 94 79 74 89 79 94 99 100 94 75 59 68 86 65 60 76 88 76 87 78
64 64 66 64 64 64 64 64 66 66 73 77 80 75 82 81 90 87 89 89 91 95 99 96 97 87 83 88 84 81 85 85 71 82 97 94 95 66 60 68 75 68 68 87 62 68 58
65 63 68 64 63 65 64 65 66 68 73 77 76 90 90 86 87 90 93 98 95 98 100 100 91 98 99 90 83 93 84 79 73 66 82 84 92 64 63 62 63 74 84 64 85 79 83
65 64 64 66 65 65 65 65 66 68 73 77 94 93 88 85 91 93 96 97 100 100 95 84 95 84 96 92 98 94 81 74 72 66 64 73 95 72 67 59 62 67 65 83 89 79 62
66 64 63 66 66 66 66 65 66 68 72 76 92 86 76 91 84 95 99 100 98 83 88 82 91 89 88 90 84 80 72 70 64 67 60 69 77 85 69 78 77 75 82 81 73 74 59
66 65 64 71 67 67 66 65 65 67 73 85 94 91 80 87 95 98 98 95 83 88 86 75 71 73 79 80 77 81 75 68 60 58 69 68 82 95 84 70 66 68 75 70 84 84 90
66 64 64 68 71 67 66 66 65 66 71 98 98 94 84 92 99 98 88 92 86 91 86 68 71 69 70 71 74 76 72 67 62 60 64 62 83 96 88 74 72 81 75 70 74 84 97
63 65 65 65 74 68 68 66 64 65 71 93 96 96 93 96 95 95 94 96 89 88 77 66 69 64 70 77 72 76 77 76 69 66 64 59 75 76 84 78 84 92 83 75 81 94 81
64 65 65 65 73 68 69 66 64 65 70 92 98 95 89 99 94 94 91 91 89 91 80 70 71 69 71 82 82 84 81 79 72 71 69 67 89 84 76 73 84 82 83 82 86 79 85
65 65 65 63 72 65 69 68 63 64 70 93 96 95 88 90 86 84 83 86 90 92 91 84 83 84 76 76 71 82 77 82 79 75 72 72 97 91 89 75 84 90 80 83 78 76 76
65 65 64 63 68 68 66 68 64 63 74 98 94 89 98 86 93 91 89 85 84 87 90 87 82 86 83 87 88 72 72 68 68 74 79 74 92 90 89 78 80 92 83 80 82 79 68
68 67 65 63 67 72 66 66 62 60 78 95 94 97 98 96 96 89 88 86 93 92 86 91 84 83 78 81 79 72 79 79 77 81 69 80 87 89 97 79 93 56 67 66 67 67 70
72 68 67 67 68 71 66 65 60 57 59 88 94 98 98 90 92 91 94 88 85 88 94 92 92 90 85 84 81 85 83 76 90 93 76 62 85 94 93 93 73 69 74 72 72 68 58
69 68 68 69 70 69 72 64 66 57 55 83 92 95 99 99 95 88 96 91 87 91 90 92 88 87 83 90 86 74 93 86 93 94 81 79 76 84 93 83 87 61 71 64 67 88 67
69 70 69 70 70 69 71 69 65 61 58 78 86 88 97 99 85 88 97 88 84 88 91 92 89 86 83 91 92 94 87 77 85 92 96 98 98 95 83 85 79 60 53 72 93 81 70
71 72 69 70 71 68 69 72 65 65 61 79 86 92 96 100 95 87 88 98 91 90 90 84 84 87 94 91 91 94 93 85 86 81 79 78 83 89 90 90 89 57 77 81 70 69 68
77 72 70 71 71 70 81 76 61 64 64 70 91 90 91 99 94 88 87 81 84 90 87 88 83 82 87 94 94 93 88 91 88 94 82 90 82 90 80 73 59 64 62 58 63 71 70

GFSGBSN_sfc_rhum_054.txt.gz
RH
62 63 59 66 62 58 63 70 68 67 63 65 67 67 65 63 63 62 59 60 62 63 62 64 63 65 64 64 60 52 61 49 55 59 56 60 64 71 63 53 49 45 42 36 34 40 40
62 64 65 67 64 65 62 69 68 67 62 68 69 68 67 66 66 65 64 63 66 65 64 63 64 68 65 79 37 40 60 49 47 60 58 56 54 51 53 54 51 41 40 38 34 40 39
60 66 58 65 62 64 64 65 64 60 62 68 68 68 68 68 69 65 63 63 64 64 64 63 63 58 70 57 43 52 64 49 48 53 59 56 46 52 50 55 46 47 49 39 42 37 35
63 59 60 63 62 63 66 58 58 64 67 66 67 68 68 67 66 66 63 62 64 68 69 65 63 65 66 38 45 54 58 50 48 48 54 59 49 46 47 44 48 48 43 51 32 38 40
65 63 62 59 66 63 61 59 69 64 67 69 72 73 74 72 64 60 62 64 68 68 66 64 66 63 55 49 68 50 55 56 55 55 63 59 67 52 52 56 57 46 40 40 46 41 33
61 63 60 65 65 62 60 64 60 66 69 72 68 70 72 77 66 60 66 70 67 66 62 59 57 69 48 59 60 61 61 57 76 64 82 80 84 74 55 51 50 48 43 44 38 43 46
62 63 61 67 59 60 59 60 68 68 72 71 70 73 71 74 75 60 70 66 59 66 66 55 53 60 60 73 74 81 59 84 67 74 93 76 96 80 58 44 40 38 44 38 42 43 43
63 62 63 62 62 60 65 68 68 71 73 72 70 74 75 74 72 72 69 66 62 67 64 55 55 56 53 76 90 92 59 95 67 80 77 89 94 52 46 49 49 45 42 42 52 45 43
63 62 64 62 62 62 61 65 66 70 74 73 70 74 77 76 76 68 68 72 76 65 68 57 61 61 72 77 72 79 60 91 73 85 85 95 77 52 52 54 53 51 48 51 47 47 43
64 63 66 62 63 64 63 63 65 69 75 75 73 76 74 69 69 70 79 75 71 65 91 64 88 85 88 92 71 56 69 87 92 95 85 94 74 58 57 54 46 63 54 53 52 52 46
64 62 68 66 66 63 64 64 65 70 74 75 73 77 74 73 72 76 71 73 67 66 90 74 92 77 76 77 68 66 71 89 84 91 93 96 88 85 65 56 48 65 55 52 51 51 54
64 63 68 65 66 63 64 64 66 67 72 74 78 74 77 74 71 79 72 64 64 92 93 90 82 93 89 71 67 63 64 68 70 73 71 91 88 85 89 91 61 48 50 51 52 54 73
65 63 66 69 65 65 65 65 66 67 69 74 77 77 72 69 78 72 72 73 97 89 80 92 96 95 73 75 66 64 84 77 92 96 100 96 82 85 83 95 76 51 62 86 81 89 60
65 63 64 69 65 66 66 65 66 67 69 77 77 77 70 63 68 68 72 87 89 94 100 81 96 79 92 86 74 89 96 71 61 80 100 99 98 81 82 75 73 70 62 73 61 54 42
66 64 63 68 64 66 65 66 66 67 69 79 78 65 71 67 72 71 80 98 98 100 97 100 89 90 99 75 79 91 77 67 57 59 76 94 96 55 52 49 51 63 78 49 64 60 60
66 64 65 65 68 65 66 67 66 67 72 78 84 74 67 68 74 72 93 98 100 97 91 81 84 66 75 76 84 90 64 57 59 52 47 59 92 62 56 50 50 52 46 70 85 70 52
66 65 65 66 72 70 68 68 67 66 70 75 72 68 61 72 67 78 100 100 95 74 78 69 66 68 64 69 69 61 60 57 50 52 45 51 59 79 59 63 60 58 61 59 49 51 34
65 65 64 66 75 69 68 68 67 66 70 82 84 96 65 73 91 85 87 84 79 74 72 67 54 57 57 59 59 56 56 53 48 44 49 54 59 83 74 56 53 51 52 45 67 69 65
64 64 65 64 74 70 69 69 67 66 69 96 95 81 69 82 97 90 77 82 76 71 64 53 53 52 51 54 59 55 55 56 49 47 48 49 69 88 85 65 61 67 58 52 57 72 84
65 65 65 65 70 68 69 69 67 66 68 85 86 92 73 75 77 76 81 81 71 69 61 52 52 47 49 54 52 59 58 61 54 54 62 51 59 64 65 78 70 90 67 57 80 91 54
64 66 65 64 65 69 68 69 67 65 67 74 83 89 79 96 78 74 74 72 70 67 61 53 50 49 49 54 57 59 62 60 58 60 53 51 96 76 61 61 80 72 69 67 87 65 87
60 66 65 64 61 70 69 69 66 66 67 67 87 94 81 77 72 71 73 71 73 73 76 58 54 60 53 51 48 56 57 55 54 55 52 56 92 82 80 62 67 78 61 63 61 56 58
62 66 64 63 63 68 69 68 65 66 62 81 75 80 96 77 72 67 68 67 69 72 75 66 58 57 59 64 61 49 48 45 48 53 56 58 76 80 78 66 65 73 61 59 58 56 54
62 69 65 66 67 68 71 67 66 60 70 80 75 88 97 82 75 70 74 72 78 69 68 74 65 58 58 52 49 46 48 51 50 56 49 59 66 70 76 66 81 50 51 49 53 52 51
64 69 67 67 68 70 69 71 66 62 61 66 77 95 95 95 78 70 82 75 70 74 76 77 78 72 57 62 59 62 67 59 67 65 55 47 59 78 77 70 56 51 60 60 60 54 44
63 69 69 70 70 71 70 71 69 65 61 69 82 83 96 98 70 76 82 80 67 67 71 78 73 68 64 68 66 66 71 64 74 78 67 62 54 64 80 78 59 56 58 52 50 89 52
68 70 70 70 69 71 69 68 72 66 65 70 77 74 88 98 69 86 95 83 66 65 66 71 69 73 66 72 72 69 62 57 73 74 79 77 78 79 68 68 51 40 42 55 94 79 56
71 72 73 71 70 71 70 73 78 68 63 72 79 80 84 92 82 69 70 96 82 70 66 71 68 71 75 74 73 71 66 64 64 62 62 62 68 77 70 74 74 43 60 73 68 51 53
75 77 74 70 70 70 70 68 77 68 63 68 91 74 75 87 83 72 77 79 84 78 81 73 62 64 62 72 72 75 71 72 64 68 62 65 52 54 53 49 42 48 56 49 54 57 56

GFSGBSN_sfc_rhum_057.txt.gz
RH
63 65 60 62 61 62 62 63 66 62 61 62 64 67 69 66 67 67 66 64 63 63 64 64 65 64 63 65 47 30 68 56 58 60 44 49 45 56 58 48 39 40 27 24 29 37 34
62 64 60 62 61 62 65 65 60 63 66 67 67 67 68 69 67 67 68 65 64 65 64 69 69 69 58 69 26 24 66 55 64 64 43 41 42 43 48 48 40 36 34 31 28 36 36
66 66 61 60 62 64 63 60 64 65 64 68 70 70 71 72 70 66 67 64 62 64 64 65 66 56 61 50 27 52 74 70 49 69 47 37 35 41 43 53 40 38 41 35 31 32 35
63 62 61 63 66 60 60 62 63 63 68 69 69 70 67 72 75 65 66 59 64 64 67 67 64 59 66 31 28 32 61 83 55 55 42 37 44 38 45 41 46 47 41 50 33 34 31
63 64 62 65 61 61 60 64 64 68 68 69 72 68 71 72 76 65 59 62 64 67 66 63 66 62 51 37 38 34 48 67 50 69 41 40 58 48 48 54 58 49 44 38 31 27 34
64 63 62 66 61 61 60 66 67 67 68 71 69 72 74 73 76 60 59 68 63 67 60 51 55 65 42 39 39 48 46 52 63 62 62 76 79 78 58 52 58 46 40 27 28 38 32
65 63 62 64 62 63 62 63 67 67 70 72 70 73 76 76 74 60 66 54 59 67 56 52 49 45 51 57 61 55 59 62 70 59 77 88 94 91 54 36 28 26 31 24 25 37 37
65 62 65 64 64 63 63 63 68 69 72 74 72 74 76 72 67 70 57 53 59 63 65 44 45 44 41 78 88 86 56 58 84 67 57 95 96 63 40 34 32 35 32 31 34 37 37
66 63 66 66 66 64 64 64 64 68 72 77 75 75 72 73 70 56 57 65 65 55 73 52 53 54 63 87 94 79 67 71 74 56 70 73 74 70 72 46 42 36 39 33 38 44 37
62 62 66 66 64 66 65 65 65 65 69 74 75 74 71 71 74 59 61 60 59 53 96 65 82 78 90 87 87 73 78 91 75 70 76 82 62 78 74 52 38 43 31 34 47 45 35
64 63 65 70 65 66 66 65 65 66 67 73 74 76 74 69 59 63 64 54 56 63 94 81 89 77 84 93 87 87 80 88 86 92 86 94 77 89 61 50 38 39 44 46 48 48 47
65 62 65 69 65 67 66 66 65 66 67 68 77 76 76 61 57 60 55 53 65 98 96 100 91 95 88 75 76 91 88 70 62 84 85 92 87 88 65 68 48 48 48 48 48 50 70
65 63 64 67 66 65 66 66 66 66 67 70 76 78 74 55 60 58 59 72 99 94 92 99 99 82 56 64 74 85 91 91 92 100 100 99 97 88 78 82 62 53 61 90 90 89 60
65 63 64 64 70 67 68 68 67 66 68 72 77 79 64 50 52 57 69 90 95 86 100 85 94 70 89 73 73 73 76 74 57 68 99 100 100 97 90 83 91 74 59 72 67 65 49
66 65 66 65 71 70 68 69 68 67 71 76 78 51 58 55 59 64 80 100 96 98 96 100 62 85 77 59 71 82 62 59 55 54 89 94 98 91 85 80 71 86 79 46 50 44 47
66 65 65 65 70 70 68 69 68 67 73 76 65 55 55 55 62 67 91 94 99 86 79 68 69 58 60 60 62 64 51 48 54 46 42 59 95 67 66 65 57 63 45 70 85 69 47
65 65 65 65 68 72 68 69 69 67 70 75 61 56 59 58 62 62 100 94 87 64 67 64 53 54 50 52 48 48 50 51 43 44 39 45 53 79 55 60 56 54 58 52 49 46 36
65 65 65 66 69 72 68 70 69 67 70 71 73 95 58 61 81 65 72 67 74 61 59 60 47 45 44 46 49 46 48 45 41 38 44 47 54 80 70 50 46 45 44 41 69 60 54
63 65 65 66 67 72 70 70 69 67 66 91 88 60 59 70 92 77 68 67 62 55 52 48 48 46 43 44 52 45 46 50 44 42 42 42 64 86 78 58 52 60 48 42 48 74 82
63 63 65 65 65 71 71 70 69 67 65 75 65 90 65 54 59 61 62 68 58 61 50 45 44 42 43 44 41 51 52 52 48 46 62 50 51 62 65 81 63 80 57 51 79 91 47
62 64 68 67 65 68 71 70 68 67 65 67 60 80 77 89 62 63 59 56 53 53 48 44 44 43 41 47 45 48 49 52 50 55 46 44 92 71 55 53 80 70 63 62 95 62 86
62 62 67 63 63 68 72 70 68 67 67 52 78 91 73 74 60 60 62 53 56 57 55 48 46 44 40 41 40 46 46 43 44 47 45 50 87 78 82 54 58 72 54 56 56 54 48
59 62 62 65 67 69 70 71 69 67 59 53 53 65 94 74 58 57 62 57 57 59 61 55 44 43 44 53 48 38 37 35 38 42 46 53 69 79 74 58 57 68 54 51 52 47 47
59 62 68 66 69 70 71 72 68 64 61 52 56 86 96 74 66 62 63 62 64 60 61 58 52 48 52 41 38 37 38 41 42 45 40 52 58 61 71 60 81 57 44 41 45 44 43
62 62 70 70 71 71 72 70 71 66 62 53 57 81 90 80 59 59 66 71 60 62 63 62 65 46 45 50 53 56 56 52 55 50 44 40 48 66 71 62 48 39 49 54 53 50 39
66 65 69 70 71 71 71 69 70 66 65 55 61 63 82 90 56 71 75 76 75 60 65 70 64 55 59 57 59 67 66 53 60 67 54 52 47 62 69 73 59 56 52 41 44 67 40
66 69 72 72 72 70 71 70 73 75 64 62 63 61 64 82 50 73 89 97 71 61 65 64 64 67 59 67 76 69 58 47 62 58 68 67 66 74 64 66 47 36 51 50 87 84 51
69 71 74 74 71 70 70 70 72 74 72 65 67 65 70 75 59 56 58 90 96 74 72 62 65 65 68 74 70 61 57 50 51 46 51 58 63 63 60 73 71 36 44 65 67 52 51
73 76 76 76 71 69 72 70 70 75 65 69 79 65 68 95 65 48 50 60 82 81 93 66 61 51 51 64 63 63 64 56 47 58 47 56 44 49 47 49 41 45 50 50 50 54 57

GFSGBSN_sfc_rhum_060.txt.gz
RH
64 64 63 61 61 65 60 63 62 63 63 65 67 68 70 72 71 69 68 67 66 62 62 65 65 64 66 73 64 33 56 44 53 68 57 65 49 63 68 56 46 49 36 30 31 40 42
64 62 63 62 65 60 61 61 63 62 68 68 68 68 70 70 70 73 69 66 65 64 66 67 66 65 69 77 32 28 37 61 54 67 67 51 45 46 52 50 50 41 39 34 33 42 41
63 63 63 63 63 62 60 63 69 68 67 67 68 69 69 69 72 71 70 65 64 62 64 63 61 57 67 60 29 52 59 50 67 65 67 43 38 41 51 57 45 39 46 44 37 41 43
65 63 64 64 62 61 62 62 65 67 66 68 71 68 70 71 73 73 67 63 59 63 63 64 65 61 73 36 34 34 52 62 63 69 68 42 38 41 48 48 55 50 52 60 39 38 40
65 64 64 65 63 62 62 61 68 70 68 69 70 70 72 74 73 70 60 58 62 64 66 63 68 71 63 37 40 32 32 55 60 70 67 46 53 64 50 65 76 66 64 58 47 35 37
65 64 65 65 65 64 63 62 65 69 68 70 72 71 74 74 70 62 59 62 62 65 64 48 59 76 53 42 53 38 44 68 80 78 83 72 75 84 71 79 87 70 74 47 46 38 37
65 64 65 66 65 64 64 63 63 66 70 69 72 73 73 70 67 63 70 70 69 74 57 58 55 56 48 52 56 54 60 72 77 90 89 70 88 89 74 59 46 42 49 50 35 37 40
64 64 65 66 64 64 64 64 64 63 68 70 71 74 71 73 69 68 67 55 66 66 70 44 42 42 47 63 82 63 70 92 96 92 71 86 91 65 54 48 46 38 40 42 33 41 43
64 62 65 66 67 66 65 65 64 64 64 67 73 74 73 72 70 73 54 65 61 56 75 52 53 56 68 74 86 77 78 84 94 88 75 81 67 58 57 50 46 42 47 37 43 47 44
64 64 65 66 67 64 66 65 65 65 66 67 69 74 75 73 76 60 61 56 60 55 99 76 77 92 83 83 86 82 72 79 92 68 64 85 71 71 80 69 42 49 36 38 47 57 60
66 64 64 67 68 66 66 68 66 66 67 68 69 75 76 76 75 64 62 56 61 74 96 81 89 75 86 96 85 87 74 78 85 85 80 94 85 81 94 72 46 42 39 50 54 59 61
65 64 64 66 67 69 70 68 68 67 68 69 71 74 78 67 77 58 58 63 75 100 97 100 93 92 95 85 80 78 82 83 62 82 82 93 75 80 82 81 76 46 55 56 58 63 92
66 64 66 67 67 70 67 66 68 68 68 70 74 74 79 57 69 60 67 82 100 96 90 99 100 94 93 88 86 85 92 87 90 97 100 97 96 86 90 87 66 58 72 90 96 97 88
66 66 67 67 67 68 69 69 68 68 70 76 80 80 69 52 59 64 79 98 92 85 100 92 84 70 86 85 94 88 84 84 72 81 99 99 100 97 92 83 85 68 68 92 79 94 74
66 66 66 67 68 71 69 69 69 69 75 76 81 69 66 67 63 72 91 96 91 96 93 98 65 73 77 63 70 85 75 70 79 80 98 99 99 94 88 77 78 87 97 59 71 56 84
66 66 66 67 67 73 70 69 70 70 73 76 81 66 65 60 66 82 97 89 99 84 74 70 67 52 64 62 65 69 60 51 56 48 50 70 98 96 91 78 78 78 59 80 96 78 74
65 65 66 66 68 71 72 70 70 69 72 76 82 69 70 63 74 87 99 92 85 60 60 70 53 50 50 53 48 51 55 53 44 48 44 55 75 97 90 97 97 92 96 73 68 66 75
64 63 64 65 68 70 73 71 70 68 70 72 81 94 70 73 94 80 78 63 75 57 57 61 52 43 45 47 50 51 57 54 44 45 54 55 70 95 76 52 52 62 58 63 96 78 79
65 63 67 67 67 67 72 71 70 68 66 88 84 71 72 80 93 80 70 61 58 53 51 50 49 48 47 47 58 51 58 57 49 52 55 53 80 95 87 68 60 71 56 52 67 87 90
62 63 66 67 67 68 73 72 71 68 65 80 77 94 80 74 65 70 70 72 62 66 51 45 45 45 49 51 46 56 60 58 58 52 62 56 63 79 91 87 78 86 67 61 87 94 79
62 62 63 62 66 68 70 72 72 68 70 74 67 86 79 95 75 68 61 56 54 56 53 47 49 45 46 54 52 54 57 60 58 57 59 61 88 84 67 67 95 88 72 69 93 79 80
61 60 60 63 66 69 72 73 71 68 71 63 71 89 78 74 67 65 69 58 57 54 58 52 53 46 46 50 52 53 52 55 58 56 57 64 90 89 89 58 66 84 64 66 67 66 62
59 59 63 66 69 71 73 73 71 67 66 62 59 64 92 70 66 62 75 65 64 62 61 55 57 51 50 60 51 45 46 44 46 56 59 68 87 92 90 70 69 83 64 60 65 58 59
62 59 65 71 71 71 73 71 71 69 68 65 64 78 88 76 69 74 64 61 64 62 68 57 57 58 60 51 46 47 47 48 49 55 48 62 73 82 93 82 96 68 53 49 54 53 51
65 61 64 71 71 71 71 70 70 67 67 70 64 76 80 79 54 51 70 67 67 59 70 67 68 54 53 61 59 61 68 58 59 58 56 51 62 78 93 91 63 60 54 59 58 57 48
64 64 67 72 73 71 71 71 72 72 67 73 70 70 77 87 65 51 76 72 84 79 77 76 71 63 72 74 77 80 80 62 67 77 63 57 55 75 86 89 84 72 55 48 51 78 46
66 65 68 73 74 71 70 71 70 72 71 75 76 70 72 78 54 56 79 95 92 82 88 75 77 82 77 82 90 89 72 49 68 68 83 78 76 86 76 83 67 63 58 54 87 86 63
66 69 70 74 74 70 70 71 70 71 76 77 82 74 88 86 67 56 54 69 80 93 96 83 78 77 84 85 88 78 76 63 62 57 58 68 77 78 75 86 87 51 53 72 73 65 60
69 72 75 77 73 70 72 71 71 73 72 70 90 71 76 94 78 62 60 52 54 71 98 86 88 67 72 81 82 80 78 74 66 69 62 69 59 60 62 68 54 57 68 64 63 68 73

GFSGBSN_sfc_rhum_063.txt.gz
RH
63 63 64 63 64 61 60 60 64 69 64 65 65 68 67 69 67 69 69 72 63 64 63 62 63 65 68 81 70 43 49 46 40 63 74 72 67 81 87 74 56 63 45 39 38 46 40
64 64 64 62 62 62 62 60 64 67 66 66 66 67 68 68 69 69 69 74 62 64 64 67 62 63 78 91 41 38 48 39 46 71 75 73 58 59 72 67 63 50 48 44 41 46 46
65 64 64 64 65 63 63 61 67 65 66 67 68 66 69 69 72 69 69 66 62 60 66 60 60 60 75 67 40 56 52 59 67 65 72 70 57 54 57 61 52 53 55 48 49 49 49
65 65 65 64 62 64 63 62 61 68 67 67 68 68 69 72 71 70 65 61 58 59 60 60 62 75 78 44 47 45 51 50 66 75 75 61 56 47 66 58 62 58 57 72 48 48 46
66 65 65 64 64 65 65 62 63 63 68 68 69 71 71 71 68 65 62 58 58 61 62 62 77 85 75 44 52 42 44 45 62 74 82 62 66 62 63 78 88 81 81 77 52 45 47
65 66 66 68 66 66 63 63 64 62 66 69 74 71 70 71 67 65 65 65 66 67 68 57 66 86 64 57 57 53 53 59 73 86 87 90 79 86 82 91 88 89 78 69 61 47 46
66 65 65 64 72 67 64 64 64 64 61 66 72 74 74 70 71 71 79 84 81 87 74 71 67 61 52 60 59 64 64 61 72 94 97 78 89 91 72 70 59 70 66 58 53 40 46
66 66 66 66 71 68 67 67 65 65 65 63 67 74 74 72 72 71 77 75 76 80 91 58 56 47 71 70 78 72 64 68 84 97 90 94 90 72 63 63 64 54 64 63 48 41 43
66 66 66 67 65 68 66 67 70 68 66 67 66 73 74 74 74 77 77 80 72 73 87 61 59 74 83 78 71 82 70 79 95 98 85 86 72 63 66 67 67 64 56 57 55 52 50
67 67 66 68 66 73 71 68 69 68 68 68 69 71 73 76 81 74 78 69 69 67 100 98 93 89 84 79 85 74 72 80 95 92 83 84 73 70 71 66 61 73 43 45 54 62 70
66 66 66 68 68 72 69 67 67 68 69 70 70 70 73 75 91 79 73 65 68 78 97 90 89 76 80 87 86 89 83 91 95 86 81 96 87 89 84 74 67 58 46 56 60 61 63
67 66 66 69 68 67 71 68 67 68 70 71 70 73 72 82 87 65 66 76 80 98 96 100 92 96 96 88 87 78 87 92 71 82 83 94 77 83 83 80 82 73 56 64 68 74 93
67 67 68 68 69 68 69 69 69 69 70 73 76 77 80 75 84 64 70 89 94 96 80 99 100 87 86 86 82 80 90 87 90 95 98 97 96 85 86 82 79 77 75 97 95 96 92
67 67 67 68 69 69 69 69 69 69 73 75 79 83 80 68 73 67 90 95 92 85 99 81 87 78 92 90 93 87 85 94 79 87 95 91 100 96 89 88 92 83 69 90 88 98 90
67 67 67 67 68 70 68 70 69 71 76 76 79 92 83 80 72 82 96 96 89 94 88 94 77 82 80 80 88 84 82 91 87 90 92 91 94 91 87 88 84 91 90 64 73 73 88
66 66 66 65 68 70 69 71 69 71 74 76 97 95 82 76 78 93 95 93 99 89 77 75 90 67 71 78 79 88 74 65 82 80 76 89 97 92 90 91 81 84 66 78 93 70 81
64 64 64 66 68 69 71 71 70 70 72 71 97 95 81 78 87 94 96 92 87 70 72 73 70 56 57 57 61 64 70 59 52 55 57 70 81 98 93 98 96 86 92 81 75 76 72
63 63 65 66 67 68 71 71 71 70 72 80 96 95 83 86 97 92 92 77 70 66 68 72 60 56 53 53 60 69 73 65 50 49 60 60 79 99 98 77 74 82 81 70 90 82 80
62 63 64 66 65 70 70 72 72 69 67 90 95 96 81 92 90 86 83 73 72 65 61 61 60 57 52 51 64 64 71 59 56 59 60 58 84 97 97 76 73 94 82 72 68 87 89
61 62 62 62 68 69 72 72 72 68 68 94 98 96 90 79 81 79 80 78 81 70 63 52 53 54 57 58 56 68 71 65 61 57 66 60 72 78 86 81 80 87 74 64 77 89 73
61 58 61 65 68 70 73 73 72 71 74 90 93 91 83 97 81 88 78 65 66 72 65 54 56 52 55 60 58 72 70 71 62 61 61 67 85 81 75 79 90 86 73 75 84 72 78
61 58 62 67 69 70 73 72 73 70 71 79 91 93 93 74 73 88 78 71 69 63 68 68 66 53 56 70 65 66 63 68 70 64 66 71 93 87 89 68 72 78 69 72 70 67 72
61 58 63 70 71 71 72 72 72 70 74 85 87 84 90 82 72 81 84 70 69 72 69 64 70 66 67 67 60 58 55 56 59 63 69 77 88 94 92 72 72 77 71 72 73 69 63
63 58 61 70 71 72 71 71 72 72 76 91 87 86 85 94 75 64 57 66 68 70 78 63 74 71 65 58 55 52 54 54 55 61 59 78 81 89 94 85 94 51 58 56 62 62 63
65 63 61 69 72 71 70 72 71 72 69 93 86 91 84 96 80 67 61 72 72 70 82 75 79 65 70 68 71 71 75 65 65 67 63 63 78 88 94 96 64 73 60 61 66 66 57
66 65 64 71 72 70 70 72 70 71 70 91 93 85 89 86 78 65 79 80 84 89 84 89 76 76 76 84 83 89 93 73 77 74 69 64 66 80 91 94 90 72 61 53 59 86 57
66 65 65 72 73 70 70 72 70 72 72 88 92 82 95 84 74 70 82 82 90 98 97 84 88 86 81 91 94 93 83 58 80 76 86 82 79 88 73 92 72 62 64 57 89 79 65
68 68 68 74 74 70 71 72 71 72 75 86 92 87 94 97 89 71 66 77 80 82 99 95 90 83 90 92 93 88 88 72 74 66 73 72 76 80 79 89 88 63 60 75 78 73 67
70 69 73 76 73 71 72 71 70 72 77 76 96 84 88 97 89 71 64 66 65 68 81 99 97 87 88 86 89 86 85 85 80 82 70 72 64 57 73 75 56 58 71 75 69 68 69

GFSGBSN_sfc_rhum_066.txt.gz
RH
65 64 62 66 67 62 63 61 63 67 66 66 65 66 66 66 68 66 67 68 68 66 62 64 61 61 70 86 82 40 50 47 39 56 71 85 77 68 89 78 69 74 53 48 46 60 67
65 64 62 65 67 64 65 62 59 66 68 69 68 69 67 70 70 70 69 68 67 64 61 62 64 65 78 94 47 46 45 48 46 57 69 79 80 70 78 73 71 62 56 47 56 48 52
65 65 64 68 65 66 62 63 63 59 69 68 68 68 69 68 69 70 67 63 63 62 64 62 63 61 82 74 46 50 49 50 56 53 75 72 71 68 71 74 62 55 63 61 57 49 46
66 65 65 66 68 69 64 62 63 63 62 70 67 71 69 68 67 65 62 60 58 59 60 60 62 78 84 51 53 45 50 52 56 74 68 66 78 57 72 65 73 70 64 82 51 50 45
66 66 65 62 70 62 62 63 63 63 62 66 70 71 71 70 69 66 65 62 60 61 61 62 80 86 78 47 56 51 46 48 60 72 86 69 79 74 71 80 91 89 84 78 60 49 49
65 66 65 63 69 66 68 70 72 65 63 62 65 70 74 73 70 72 72 69 67 67 68 63 71 90 65 60 57 56 52 59 71 83 96 96 91 90 81 90 90 79 79 77 61 52 55
67 66 65 64 63 67 69 71 71 74 67 66 64 70 69 72 72 72 81 81 78 82 76 81 74 67 58 60 61 70 62 64 74 87 96 94 93 91 79 72 70 68 64 67 62 47 54
67 66 66 66 65 63 66 67 71 71 72 66 67 65 70 71 74 74 75 82 78 74 82 65 61 63 69 77 77 82 63 77 85 98 94 99 91 71 69 68 67 67 69 69 53 47 49
68 67 66 67 67 66 66 68 65 63 66 67 68 67 72 72 77 76 81 80 72 72 88 78 75 79 85 81 65 88 68 75 91 97 96 88 79 65 67 76 76 73 70 68 58 55 52
68 68 67 68 68 68 69 67 66 68 68 70 70 68 73 74 81 81 82 71 73 71 97 99 94 82 81 76 87 70 72 78 91 96 96 84 71 72 78 79 71 81 51 51 55 65 78
68 68 67 68 69 69 65 67 68 68 70 71 70 71 73 71 94 80 68 70 73 79 97 94 91 75 86 92 86 87 69 81 90 92 96 97 81 81 82 74 60 65 50 52 62 68 66
68 68 68 68 69 69 66 70 67 69 70 71 71 74 71 84 96 75 69 79 80 95 96 99 90 95 91 84 85 81 87 87 76 91 85 92 81 87 86 86 80 76 63 66 72 77 92
67 68 68 68 69 69 69 68 68 69 70 71 74 77 75 80 87 69 74 87 94 96 81 98 100 87 91 98 94 87 94 96 96 99 100 96 94 87 87 82 81 80 75 97 95 98 93
66 68 68 68 68 69 69 66 69 70 71 76 77 80 82 76 80 74 87 93 91 82 97 80 87 86 97 90 92 91 95 98 83 81 96 94 99 95 89 89 87 88 71 91 90 95 87
66 67 66 66 68 69 70 69 69 70 75 77 79 95 88 83 78 85 86 96 87 90 86 94 79 91 99 89 90 90 87 94 87 85 88 95 98 90 84 82 89 94 95 69 75 81 90
65 65 64 66 66 69 70 70 71 71 74 74 97 95 86 80 83 94 95 95 96 86 82 83 88 70 91 93 88 87 82 81 85 86 81 87 98 84 86 84 86 91 70 81 92 78 85
64 63 65 65 67 69 71 72 71 70 72 72 96 93 86 83 89 94 96 94 89 76 77 80 83 65 70 63 77 79 78 63 66 82 80 80 83 94 90 96 97 96 88 83 74 74 75
64 62 64 64 64 70 72 72 71 70 71 84 95 95 86 88 96 96 91 82 75 70 74 80 80 66 64 64 68 81 79 71 57 56 80 74 84 97 89 82 77 82 83 66 90 82 83
63 61 62 64 69 70 73 73 72 70 69 97 98 97 83 93 96 93 85 78 80 72 70 67 67 60 59 61 71 76 74 66 62 58 64 62 89 98 97 82 81 97 91 83 76 86 90
63 60 60 66 69 70 74 73 73 69 70 95 94 95 86 78 77 83 90 82 85 74 69 57 58 56 59 59 61 75 75 68 62 57 67 62 77 79 87 79 85 90 92 80 84 93 86
65 59 59 67 69 70 73 72 73 71 69 82 95 95 86 98 90 81 83 74 65 74 72 60 61 58 61 68 68 78 76 74 64 61 68 62 85 84 82 82 86 81 88 80 85 77 85
65 60 62 68 70 70 72 72 73 73 67 85 95 97 92 93 80 92 81 78 81 74 71 73 71 72 65 70 63 72 70 78 73 69 77 76 92 86 88 77 72 75 76 76 70 65 68
65 60 63 70 71 71 72 74 74 73 75 92 94 86 91 83 69 81 76 68 72 74 72 68 74 74 72 69 64 61 65 61 65 65 75 77 89 91 87 77 79 77 71 73 74 69 61
64 61 62 69 72 71 71 72 73 72 81 87 93 95 95 86 84 68 61 64 74 72 81 69 78 76 68 61 62 59 60 60 60 70 66 82 82 89 96 82 84 51 62 59 65 68 65
66 64 62 70 72 70 71 72 70 72 72 92 94 91 94 96 91 77 73 66 69 70 79 76 78 69 79 74 74 80 82 75 72 76 68 69 83 90 95 96 68 68 64 66 71 67 64
67 68 66 72 73 70 71 73 71 72 72 92 95 92 93 92 87 72 82 87 94 97 91 86 78 78 80 85 84 89 95 81 89 81 76 67 72 81 94 94 92 70 66 57 61 83 63
68 68 68 74 73 70 72 72 72 73 74 92 93 88 95 96 81 75 80 82 73 96 95 93 95 85 81 92 94 97 85 68 89 87 88 78 78 86 88 94 80 56 69 62 86 74 73
70 70 71 76 74 70 71 72 72 72 76 88 90 91 93 96 92 79 69 79 89 78 86 98 94 90 91 90 94 92 90 78 80 78 82 82 85 84 81 87 90 68 70 80 76 78 75
72 72 76 78 74 70 71 71 72 73 73 77 92 82 86 96 87 76 70 65 65 65 81 89 99 98 96 89 92 88 89 89 82 86 75 78 63 72 74 74 55 60 64 75 73 66 68

GFSGBSN_sfc_rhum_069.txt.gz
RH
63 62 60 68 64 67 68 66 61 59 65 70 71 67 64 66 68 70 70 69 66 66 66 62 60 60 71 90 85 53 47 44 45 52 67 78 84 91 79 90 79 74 58 50 74 86 84
65 62 60 67 62 68 68 60 62 61 61 69 70 68 70 64 66 66 69 67 66 64 63 60 60 62 79 95 50 54 48 44 46 60 69 72 78 75 86 84 82 72 57 68 72 82 62
66 64 63 65 68 65 66 63 62 62 60 64 71 70 72 67 65 64 62 64 63 63 63 60 62 64 84 73 50 54 52 49 50 59 71 68 81 72 82 83 71 66 76 70 66 62 70
66 66 64 62 68 62 71 70 68 66 62 60 65 72 70 72 68 68 66 61 59 61 61 60 62 80 86 55 56 50 51 52 50 60 61 71 75 68 80 77 80 71 76 88 65 60 60
66 66 65 63 61 68 70 71 68 69 70 62 60 65 72 71 71 71 72 69 61 62 61 62 81 87 76 47 64 56 52 65 63 75 74 62 83 77 78 90 92 84 89 79 66 55 50
67 67 66 64 63 62 70 64 70 71 69 69 61 65 71 72 72 73 71 69 65 67 70 67 73 89 64 61 59 54 51 61 72 77 83 88 98 88 89 94 84 87 89 70 64 57 51
66 67 66 66 64 65 70 71 67 64 68 69 65 65 70 70 72 76 82 76 80 84 76 82 79 72 63 63 59 66 58 65 70 79 94 95 97 84 81 85 77 69 72 68 62 49 56
67 68 67 66 66 65 64 64 64 66 68 64 68 68 65 72 72 76 77 85 79 75 81 67 66 69 74 81 74 72 66 79 84 100 88 98 97 66 73 72 72 70 73 70 57 52 54
67 68 67 67 68 66 66 66 68 66 66 67 70 69 67 70 74 75 81 80 76 78 90 77 78 83 85 79 65 80 72 76 89 100 98 97 85 68 71 81 77 82 74 69 62 53 52
66 68 68 68 68 68 67 64 70 66 67 69 71 70 70 69 83 84 83 72 76 72 98 99 88 86 78 75 77 72 75 77 90 99 96 91 69 74 82 85 78 86 60 56 59 63 76
66 68 69 68 69 69 69 68 68 68 68 71 71 71 74 67 91 84 69 75 76 82 97 95 92 79 83 92 86 82 73 79 91 97 99 97 80 83 84 80 65 73 59 57 62 68 67
67 68 69 69 68 69 70 69 66 70 68 72 72 73 71 92 97 78 70 76 79 91 97 100 89 93 96 86 87 76 78 85 83 93 91 90 87 83 87 84 68 68 64 68 76 75 92
67 68 69 69 68 69 70 70 70 70 71 71 75 77 74 82 88 71 75 84 93 94 81 96 100 95 89 96 90 89 88 96 97 99 100 90 93 90 85 84 83 74 77 97 97 97 94
67 68 68 68 68 69 70 70 70 71 72 76 76 81 84 81 86 74 80 88 90 82 97 78 94 89 96 91 95 93 96 96 89 95 99 99 99 93 90 85 86 83 70 92 89 96 90
67 67 67 67 68 69 70 71 70 71 75 78 78 95 94 87 80 80 84 94 83 87 84 91 86 99 88 82 93 92 96 96 83 85 86 94 99 87 86 88 87 91 91 69 80 85 92
68 65 65 66 67 68 71 72 71 72 74 75 97 95 89 86 84 85 95 91 93 82 82 81 93 71 97 94 89 92 89 83 84 79 74 81 98 86 91 76 88 91 82 85 92 86 92
68 63 65 66 66 71 72 73 72 72 71 76 94 93 88 88 90 88 96 94 89 77 77 88 88 76 80 90 89 84 82 71 77 87 78 78 85 93 91 94 83 96 94 86 79 74 78
67 63 63 64 70 71 73 73 72 71 71 85 95 96 88 92 97 97 92 84 76 76 83 83 85 76 71 70 80 85 81 77 65 72 84 79 85 92 95 80 74 80 84 78 92 84 87
68 63 61 67 70 72 73 73 73 71 70 96 97 97 83 94 97 95 86 82 81 76 76 72 71 63 63 66 78 81 78 67 64 63 72 72 88 98 97 83 83 97 88 79 78 84 90
67 63 60 67 70 71 73 73 74 71 69 93 95 91 86 88 86 92 95 86 87 77 73 62 63 60 62 66 70 81 79 70 63 61 67 61 81 80 86 77 87 99 96 89 82 92 88
67 63 61 67 70 71 73 75 75 70 67 81 94 98 93 97 87 81 89 84 79 78 73 65 67 67 65 70 74 84 81 78 63 62 72 62 86 83 83 84 85 87 86 87 94 75 84
68 63 65 69 71 70 73 75 75 71 64 91 93 88 92 93 87 84 77 82 85 82 78 77 76 77 72 69 67 74 74 80 75 74 78 76 91 83 84 78 74 75 77 89 86 81 81
68 65 69 70 72 70 72 74 75 72 73 93 96 90 94 83 86 88 77 73 81 80 72 74 79 78 73 72 71 71 70 65 68 67 78 77 88 87 81 81 71 69 69 80 84 71 68
68 66 69 71 72 70 73 73 73 74 80 91 96 96 90 78 80 81 70 65 72 74 90 76 81 81 71 65 68 66 63 65 66 77 72 80 81 87 97 79 84 55 64 61 68 72 67
68 66 69 73 73 70 74 72 73 73 77 92 96 92 94 85 91 82 77 78 80 76 86 81 76 76 84 74 76 81 84 76 79 80 78 71 84 93 94 95 72 67 72 69 71 64 61
70 68 71 74 74 71 73 74 74 75 76 91 95 94 94 91 81 79 85 90 88 92 93 90 81 82 80 81 77 88 92 84 89 88 77 73 75 82 95 95 90 64 71 61 65 82 68
71 71 73 76 74 70 73 73 72 73 77 92 94 90 93 96 86 83 82 78 73 91 89 90 90 90 81 88 91 97 90 77 91 90 91 82 81 90 90 96 79 60 70 66 82 70 80
72 72 74 77 74 71 72 72 72 73 75 88 88 86 88 97 88 82 77 82 94 87 80 89 89 96 92 95 95 94 90 81 84 82 84 84 86 93 89 93 88 63 76 75 68 80 80
74 74 78 79 75 72 71 70 74 72 74 83 95 83 86 96 86 76 73 69 67 64 80 83 97 99 97 96 94 90 88 90 83 87 80 80 72 79 75 75 56 60 71 74 77 73 71

GFSGBSN_sfc_rhum_072.txt.gz
RH
64 61 62 62 64 67 66 63 60 61 60 63 66 67 69 68 61 64 68 68 66 65 65 61 60 60 72 89 78 65 48 51 50 62 55 76 80 88 92 88 83 85 68 64 65 81 84
64 62 62 61 65 59 66 66 67 62 61 59 65 68 68 70 65 64 63 65 65 65 64 62 62 63 79 89 52 57 48 51 47 57 61 71 69 80 84 87 85 77 66 61 88 83 66
66 65 65 64 61 68 66 66 70 69 68 63 60 67 70 72 68 68 66 61 65 65 64 61 61 66 84 72 53 58 50 49 48 54 68 66 79 71 84 88 79 74 87 85 89 82 76
66 66 65 64 64 60 70 68 70 68 68 68 65 60 70 72 72 70 71 71 60 62 62 62 65 80 90 55 59 53 60 57 48 61 67 65 79 72 83 82 86 82 82 94 78 78 78
67 67 67 65 63 64 61 70 69 68 68 69 68 64 64 72 72 74 73 69 65 62 61 63 80 86 74 48 61 57 64 62 59 73 69 60 84 80 74 92 93 87 95 90 84 62 81
68 68 67 66 66 65 64 61 62 65 70 68 68 66 62 72 74 74 75 69 64 68 72 70 75 83 65 68 61 57 65 69 74 79 79 82 93 94 93 95 90 90 94 90 91 78 80
68 67 68 67 67 66 65 62 71 68 71 69 72 70 64 70 74 73 82 78 83 84 82 85 81 77 69 65 64 67 65 76 72 89 87 82 98 91 89 86 81 81 82 84 68 65 66
68 69 69 68 67 67 66 65 61 74 71 70 72 71 67 71 69 74 79 80 77 69 79 70 71 71 73 81 77 72 64 85 92 89 92 97 100 76 77 78 74 74 81 83 64 59 62
68 69 69 69 68 68 67 66 66 70 72 71 71 68 67 76 69 76 82 80 78 77 88 79 80 86 83 82 72 75 71 78 96 99 99 90 90 70 76 85 80 84 84 81 72 62 55
68 68 70 69 69 69 69 67 67 65 70 70 68 69 72 71 83 86 85 76 78 76 97 96 82 83 80 83 84 72 78 80 90 93 96 93 81 75 80 86 78 89 67 60 62 71 87
68 69 70 70 70 69 70 67 67 69 66 68 71 69 76 66 87 82 68 80 80 83 97 98 86 78 83 89 86 81 76 80 90 96 96 97 93 91 84 82 67 75 62 62 66 69 75
68 68 69 70 70 70 70 69 66 68 68 71 72 71 74 93 96 80 72 74 77 88 97 100 91 92 83 80 79 82 75 88 81 94 91 94 76 84 87 80 72 64 67 67 75 73 92
69 68 69 70 68 69 69 69 69 68 71 72 75 78 76 83 89 75 75 83 93 93 77 97 100 89 93 98 90 86 86 91 94 99 99 97 96 90 81 86 82 68 79 98 98 97 94
69 68 68 68 68 69 69 68 70 71 72 74 77 82 82 82 82 73 79 87 95 82 93 82 89 95 99 95 91 86 87 95 92 100 100 100 99 93 92 83 86 74 70 92 90 96 91
70 68 67 67 68 68 68 68 71 72 72 77 78 95 98 90 78 77 82 96 85 85 86 88 84 78 86 91 90 86 91 87 89 92 92 97 100 86 88 90 84 90 93 69 84 87 92
70 68 65 67 67 70 71 72 71 72 72 77 96 94 93 86 78 83 94 89 91 78 82 83 95 86 93 85 91 96 90 79 91 89 71 83 98 87 83 82 90 86 72 85 92 88 93
70 66 65 65 69 71 72 72 72 72 72 76 94 94 90 84 81 89 96 94 88 77 80 89 91 79 87 92 90 86 87 83 85 88 74 78 83 96 82 91 94 96 96 87 79 77 82
71 66 64 65 70 72 72 72 73 71 71 84 95 96 91 93 96 98 93 85 75 81 84 85 89 85 78 76 82 81 82 78 77 78 83 78 82 95 85 80 85 86 90 81 92 88 90
70 67 63 66 71 72 73 75 73 70 72 96 96 95 87 95 95 96 87 86 82 80 81 81 73 66 66 71 84 84 82 70 65 73 79 73 89 97 95 84 89 96 86 86 80 86 91
71 67 63 67 71 71 74 75 72 70 70 92 92 92 86 92 91 94 93 89 86 80 73 66 67 62 64 74 75 83 83 72 62 66 66 65 84 81 88 77 89 98 87 84 88 96 90
71 66 65 68 70 70 74 75 71 70 66 78 93 96 93 96 92 91 91 87 86 83 73 69 68 76 71 77 80 86 83 80 64 68 73 65 87 83 80 86 90 91 86 87 98 81 90
71 66 68 70 70 70 73 75 73 70 65 91 84 86 93 92 90 91 81 88 92 87 85 81 81 79 75 75 76 79 77 80 76 75 80 74 88 80 83 77 83 81 83 89 86 82 78
71 68 72 71 70 70 73 74 74 71 70 92 96 93 93 84 86 90 75 80 85 86 81 81 87 83 77 79 77 71 74 70 72 69 79 77 87 86 84 81 74 74 72 80 85 79 80
70 69 74 73 70 72 71 72 74 75 78 92 97 95 82 73 79 80 74 72 68 79 90 79 84 82 79 78 72 73 69 72 70 78 74 82 80 83 93 80 88 55 60 61 72 77 75
70 70 74 74 70 72 72 75 74 76 73 93 97 92 91 75 87 79 79 82 82 84 94 91 82 84 87 76 77 80 83 78 81 82 81 73 84 93 95 95 72 66 74 70 69 65 65
70 70 75 75 72 74 73 73 74 76 77 93 97 93 92 78 70 80 86 89 94 92 91 90 83 82 84 86 75 75 90 84 87 88 82 76 77 82 96 95 84 54 77 64 66 80 68
71 71 77 77 72 74 73 72 72 75 78 92 96 89 92 95 87 83 84 80 80 90 85 81 89 90 86 91 85 89 87 80 90 92 91 88 83 88 88 97 84 61 62 68 83 71 80
74 74 78 77 73 74 72 73 74 74 81 88 95 90 93 96 92 83 79 83 87 89 86 82 84 96 95 94 92 94 93 83 86 83 86 87 90 91 90 92 94 57 78 80 66 81 81
79 75 79 78 74 74 72 74 72 73 78 84 95 90 89 94 88 78 77 70 66 69 82 85 98 99 98 99 96 93 93 92 86 87 84 84 75 83 80 79 58 60 71 73 79 81 80

GFSGBSN_sfc_rhum_075.txt.gz
RH
66 63 64 63 59 66 61 63 66 65 67 62 58 66 67 68 67 62 62 66 65 65 64 62 60 60 67 78 68 51 54 61 64 75 61 80 87 76 84 78 78 76 69 64 76 77 77
66 65 65 64 63 60 66 66 67 64 66 68 65 57 70 69 70 66 66 61 65 65 64 62 63 60 74 74 47 52 49 61 55 78 60 73 82 67 75 79 79 71 60 71 77 83 68
68 66 66 65 64 62 60 70 67 67 67 68 71 62 63 71 70 70 68 68 60 65 64 62 60 65 78 63 54 57 52 61 61 60 65 61 74 71 74 87 74 70 81 86 80 86 87
70 67 66 66 65 64 64 65 70 67 65 68 68 71 64 66 72 70 72 69 65 60 61 62 66 76 73 50 56 54 56 57 66 59 63 69 75 72 78 71 80 78 80 90 83 78 89
71 69 68 67 66 66 64 61 65 62 68 68 70 70 66 66 73 70 76 71 67 61 61 64 79 82 67 47 58 54 63 63 59 68 73 59 88 78 78 88 89 85 89 87 93 68 86
72 70 69 68 67 66 64 63 65 62 71 70 71 73 71 64 73 72 76 70 65 67 74 71 75 72 64 66 60 58 71 72 75 76 76 76 88 94 92 91 85 94 87 84 77 78 79
72 70 69 69 68 67 64 63 60 64 70 72 73 75 71 67 72 70 83 80 81 85 84 82 81 77 67 67 65 71 68 71 70 84 95 80 98 95 84 74 67 76 74 70 75 73 75
73 71 70 70 68 67 66 64 63 66 70 72 72 74 67 65 74 70 80 82 74 71 79 72 74 70 72 80 76 78 64 80 91 93 80 91 100 80 77 71 71 70 78 74 60 70 65
74 70 69 70 69 68 67 64 63 69 72 72 71 70 68 75 68 78 80 81 78 77 87 83 82 85 83 79 77 81 73 80 97 100 89 84 92 81 77 80 76 75 74 75 68 73 58
74 70 69 70 70 69 68 66 64 68 70 73 68 68 71 67 84 87 85 76 80 75 95 89 77 81 80 84 81 72 68 73 97 98 95 84 88 89 82 82 71 81 65 64 69 76 86
75 69 68 71 70 69 69 67 66 68 71 71 68 71 72 63 88 84 70 83 79 78 95 97 85 78 83 83 79 76 72 74 93 93 94 98 94 93 85 79 66 74 61 62 65 67 64
76 69 68 70 70 69 68 69 66 66 67 68 70 71 75 91 96 80 74 73 76 88 98 100 92 88 79 83 77 79 75 81 75 87 87 93 82 90 76 80 66 62 66 68 74 70 92
75 70 68 69 69 68 68 68 67 68 67 72 74 78 82 86 86 75 76 82 93 92 76 99 100 95 86 87 78 83 87 95 90 98 100 96 95 91 80 83 75 65 75 95 95 97 86
75 70 69 68 67 68 68 68 69 70 71 74 79 82 83 82 80 74 79 87 88 83 95 78 93 97 100 95 96 77 90 98 87 96 99 97 100 95 84 81 80 71 68 87 88 91 82
74 71 70 66 67 68 70 70 71 72 73 75 77 96 97 89 76 78 77 96 85 86 84 88 82 98 99 84 84 85 89 91 90 92 96 98 100 88 89 87 79 83 91 64 81 79 81
74 72 69 66 64 70 71 71 71 72 72 76 96 94 95 86 77 81 94 89 90 76 82 83 88 83 93 88 92 97 92 79 96 89 83 84 99 86 86 81 84 77 66 83 89 87 84
74 72 69 65 67 70 72 72 72 72 71 78 95 95 92 84 82 85 97 96 87 76 81 90 87 76 91 95 91 91 91 85 82 87 66 71 82 97 77 88 90 89 88 81 72 70 70
74 71 69 66 69 71 72 73 73 70 70 82 95 97 94 87 98 98 94 86 75 84 85 83 90 84 76 78 86 86 81 77 77 74 73 70 75 97 97 78 82 86 85 73 89 86 81
74 71 67 70 70 70 73 74 73 70 69 95 95 97 89 91 98 96 88 87 83 83 83 82 75 68 67 74 84 84 80 70 76 76 75 72 87 96 92 76 81 93 90 77 77 82 91
74 71 68 71 71 69 72 74 73 69 73 90 90 95 90 96 93 95 92 91 88 82 77 70 71 65 67 74 75 82 83 74 65 68 68 63 80 77 85 76 86 95 93 86 88 98 83
74 70 69 72 71 69 73 75 72 67 70 77 90 93 93 96 92 92 92 90 89 89 78 75 73 81 77 80 82 87 84 76 62 69 68 67 88 83 73 72 90 91 88 90 92 80 85
74 69 71 73 70 70 73 74 72 67 66 89 79 86 93 92 90 93 82 90 94 89 89 85 84 83 76 74 80 82 80 80 74 71 76 72 89 86 86 82 83 85 84 89 87 82 74
74 70 74 74 71 72 71 74 72 68 64 92 98 94 88 86 86 93 88 84 80 86 86 82 90 83 81 82 83 78 74 72 71 70 78 74 83 86 86 79 73 74 69 78 85 81 76
72 72 76 74 73 73 72 74 73 71 76 91 97 93 78 74 83 76 79 74 73 79 86 79 86 82 83 86 72 74 70 72 70 82 72 79 77 79 89 75 87 56 58 61 68 66 75
72 75 76 73 73 74 75 74 74 70 72 95 98 89 82 89 78 78 78 88 83 85 93 95 88 89 90 81 78 77 81 77 80 84 83 70 81 90 91 92 68 61 69 70 70 62 64
74 76 76 74 75 74 76 74 75 75 74 95 97 91 87 69 79 78 84 88 91 94 90 88 81 84 86 85 76 68 89 84 85 87 82 77 76 79 93 95 79 47 74 61 63 77 59
76 77 77 75 74 75 74 73 74 77 76 90 96 88 90 88 86 82 80 73 82 89 93 90 83 91 89 94 90 85 74 81 89 92 92 89 84 90 80 87 83 62 58 65 82 65 70
78 80 78 76 74 75 74 74 75 77 76 88 96 94 91 94 91 83 75 82 88 89 83 85 89 96 97 98 92 92 92 85 87 82 87 88 93 94 91 96 92 57 76 77 61 76 79
80 82 80 76 75 75 76 76 74 76 79 79 95 93 91 94 85 80 82 77 69 70 84 88 98 96 99 99 94 95 96 93 86 88 86 86 73 82 78 78 59 57 68 67 73 78 77

GFSGBSN_sfc_rhum_078.txt.gz
RH
68 67 65 64 63 61 62 62 64 62 64 67 71 65 56 63 67 66 66 61 63 63 60 60 58 60 51 51 40 36 54 56 53 62 75 77 69 50 54 52 56 60 50 45 44 56 52
70 69 67 65 65 61 62 60 68 66 65 68 68 70 62 59 69 69 66 65 63 63 62 62 61 58 51 51 35 37 39 49 57 75 69 77 80 39 44 48 56 52 54 46 60 61 58
72 70 68 67 66 64 61 62 67 62 65 68 69 69 66 64 66 68 69 67 58 62 63 61 59 48 55 46 36 41 43 50 65 78 70 62 88 58 42 49 45 50 66 61 61 66 59
74 72 69 67 67 66 65 63 62 63 65 67 69 70 70 64 65 70 69 73 66 59 61 63 63 55 45 36 38 42 40 58 60 59 71 61 88 62 51 52 54 54 47 82 54 65 73
76 73 71 68 68 66 64 63 63 65 62 70 71 70 70 65 63 70 71 73 66 61 60 62 58 60 50 40 42 43 44 54 66 62 65 53 84 74 63 58 63 59 50 47 63 54 71
79 75 72 69 69 68 66 64 63 62 67 68 74 72 73 68 68 70 72 68 67 65 63 57 59 62 48 53 47 47 51 56 64 67 78 73 88 85 60 58 61 60 51 51 55 67 62
79 76 72 70 69 68 67 64 62 64 64 69 71 72 70 70 69 71 73 62 62 72 65 58 61 59 56 49 49 58 51 58 66 72 95 88 96 90 54 40 34 45 52 58 52 66 58
81 78 73 70 70 68 67 66 63 63 68 70 71 73 70 70 73 71 62 61 56 55 61 61 62 59 56 60 61 65 49 65 74 93 85 95 100 74 52 48 43 44 49 48 50 53 52
86 78 73 70 70 69 68 68 66 64 67 70 72 72 72 74 71 71 58 59 59 58 61 72 66 66 64 62 63 74 66 70 91 81 97 90 89 66 58 57 49 45 45 48 47 56 52
86 79 72 70 70 69 68 68 67 65 72 73 72 73 73 71 77 64 63 58 62 55 95 89 69 68 66 67 70 82 77 69 96 91 86 79 80 80 65 52 41 60 43 46 52 53 53
86 78 72 71 71 70 68 68 68 67 69 71 71 73 74 65 67 64 58 61 60 59 87 94 80 67 66 71 64 88 69 68 97 95 84 96 93 95 69 54 43 45 49 46 46 42 50
84 78 72 72 72 70 68 68 66 66 69 68 69 75 74 74 74 67 62 60 61 93 97 100 87 72 64 64 64 64 68 79 69 80 84 89 75 88 55 61 51 48 49 52 53 56 70
85 78 72 72 72 69 67 68 66 65 66 71 77 77 74 67 67 67 65 65 98 91 76 100 99 75 73 67 66 74 82 75 77 99 100 96 96 83 71 66 52 49 52 84 86 86 60
83 77 73 72 71 68 66 68 68 68 70 74 84 76 76 66 71 69 64 77 96 79 99 80 95 83 80 76 81 79 72 79 67 90 100 97 100 95 67 67 63 53 44 62 63 62 46
84 76 73 72 69 67 67 68 68 70 72 75 79 74 74 75 70 70 63 99 92 93 76 83 94 99 99 91 77 67 70 71 71 79 84 90 98 87 71 70 60 66 69 45 61 57 57
83 76 73 71 69 69 68 68 69 70 71 76 73 71 78 79 72 72 88 87 95 63 70 70 76 75 66 72 74 82 67 62 84 76 71 74 96 84 79 75 62 57 46 66 80 77 58
82 76 73 70 69 70 69 69 70 70 69 80 71 73 81 80 77 78 98 85 74 61 65 76 73 74 81 86 72 73 65 76 76 80 72 60 65 95 68 75 61 63 63 59 49 52 44
82 76 72 69 72 72 70 71 70 68 73 72 77 97 82 86 95 88 73 68 70 69 66 68 69 58 59 69 62 61 65 62 71 63 67 56 63 93 96 66 64 63 58 47 67 66 58
81 75 72 72 74 72 71 71 70 67 69 71 72 85 73 92 94 80 70 71 67 68 65 67 58 52 48 56 65 62 60 57 62 58 56 52 68 91 95 67 65 69 62 56 55 68 83
81 75 71 74 74 72 71 71 70 66 75 60 61 91 70 81 66 75 73 74 72 66 60 55 55 48 49 56 56 63 62 58 60 55 64 55 56 59 67 69 60 80 68 65 74 98 56
82 75 72 74 74 72 73 71 68 65 78 52 55 74 75 90 66 69 71 72 70 72 62 56 57 60 53 54 57 62 60 54 53 63 54 52 86 73 55 54 78 75 70 69 96 71 78
82 76 74 75 73 73 73 71 66 67 71 54 50 59 59 61 69 69 70 76 78 75 74 68 64 61 53 53 53 58 55 52 52 52 53 52 86 76 80 63 67 72 58 60 62 60 57
84 75 75 75 72 74 72 73 66 67 56 56 76 70 61 70 65 67 62 68 75 72 73 65 72 60 62 66 58 51 48 50 46 48 54 55 64 73 72 61 61 65 53 54 54 54 56
82 77 76 74 74 73 74 74 67 68 60 57 68 58 52 58 58 59 62 62 65 66 76 63 71 60 69 66 60 48 47 49 47 55 48 54 56 58 67 60 77 42 44 43 46 44 44
84 79 77 73 74 74 75 74 68 68 72 68 73 48 50 54 52 59 58 60 59 63 73 79 75 70 66 61 54 56 56 59 62 59 55 47 50 63 67 62 46 38 53 51 52 42 42
84 81 76 75 75 77 77 75 73 70 73 71 75 61 46 35 36 52 52 59 53 62 62 69 60 55 70 60 60 62 62 58 61 69 60 57 52 54 70 73 56 36 54 47 47 55 48
88 84 76 74 76 78 77 76 76 74 72 72 81 71 52 51 55 53 49 48 56 65 65 68 63 74 73 69 74 65 52 55 56 63 70 67 66 73 63 67 51 39 43 47 57 48 48
88 85 79 76 76 76 75 75 78 73 73 71 85 81 68 63 63 63 60 58 70 55 54 66 72 85 82 79 76 66 57 52 57 55 61 58 63 66 65 72 75 43 54 55 40 49 53
86 84 80 79 76 76 76 77 76 80 74 74 82 79 74 79 66 62 59 56 52 53 59 72 89 92 98 98 88 78 68 62 58 57 61 60 48 48 52 48 41 41 45 43 49 50 53

GFSGBSN_sfc_rhum_081.txt.gz
RH
73 70 70 67 66 65 63 62 63 69 64 65 67 69 68 60 61 69 68 66 65 62 61 61 58 60 53 46 38 28 45 45 45 71 76 72 69 57 52 42 38 49 36 32 39 42 41
78 73 71 69 67 66 65 62 63 64 62 63 68 68 69 64 62 68 68 67 59 63 63 60 60 63 46 47 29 30 33 40 53 66 75 69 74 44 40 36 38 43 39 36 48 40 42
81 76 73 70 68 67 66 66 64 64 63 63 69 68 69 68 60 66 68 69 65 60 64 62 62 43 48 39 31 33 37 42 63 79 67 77 89 90 36 39 40 39 52 48 51 52 52
85 82 75 72 69 68 67 66 64 64 62 64 69 70 68 69 64 63 71 70 72 61 63 63 64 44 41 34 32 34 32 45 65 76 87 84 86 90 42 31 47 55 47 67 54 46 55
90 85 78 74 70 69 68 67 65 65 63 66 68 72 69 70 67 65 71 73 68 64 61 61 56 48 38 39 37 34 38 45 52 69 78 73 90 84 49 49 65 59 57 47 53 46 61
90 89 82 76 71 70 68 67 65 64 62 64 70 70 69 68 68 68 71 70 66 64 57 43 43 58 38 45 40 39 40 46 55 65 82 91 91 94 62 52 61 51 37 37 49 54 55
91 90 83 77 72 71 69 68 66 64 63 67 72 70 71 66 67 73 72 57 60 67 54 52 48 47 44 39 38 49 43 50 54 83 96 88 97 98 50 34 24 27 31 30 27 39 51
93 90 82 79 73 72 70 68 67 66 65 70 72 72 68 70 74 72 62 52 48 50 55 50 50 47 44 49 47 56 43 60 60 99 85 94 99 81 42 32 39 34 49 48 46 44 46
94 90 85 79 74 72 70 69 68 66 65 71 72 71 70 72 69 70 54 47 46 44 55 60 53 53 52 54 53 56 59 62 76 93 89 94 90 64 52 42 48 40 39 42 43 45 43
95 90 86 79 74 73 71 70 69 68 68 70 72 70 71 72 80 53 56 47 50 48 96 81 61 60 54 53 86 72 66 73 86 88 90 70 80 66 56 42 31 42 29 35 43 54 57
95 90 85 79 74 73 72 70 68 66 67 70 70 70 75 73 58 59 52 49 49 52 87 88 67 53 52 64 64 88 74 74 88 81 96 97 92 79 60 43 33 35 33 36 41 44 34
96 91 86 78 75 74 72 70 68 65 64 67 70 75 74 65 62 54 48 50 58 93 94 97 74 58 51 52 55 67 83 79 71 86 74 82 72 78 57 41 39 42 43 40 39 39 64
96 91 85 79 75 74 71 69 68 66 68 72 79 73 71 53 62 54 53 60 97 92 70 94 85 58 54 59 58 85 94 90 87 97 100 93 94 81 68 59 49 41 47 75 76 80 56
95 89 85 76 75 73 70 69 68 67 69 75 76 74 72 56 60 56 57 73 98 78 98 87 74 67 64 57 61 64 65 66 66 84 99 99 98 91 59 57 58 43 40 56 56 53 41
93 91 82 77 74 72 70 70 69 68 69 78 82 61 61 70 63 63 70 99 97 94 69 85 81 88 79 69 61 52 59 56 60 65 69 81 99 77 68 58 53 54 62 40 51 42 47
93 88 81 77 74 72 71 71 69 69 68 79 61 63 69 70 67 67 88 89 92 60 60 60 77 63 54 57 56 63 53 48 66 63 55 58 97 89 62 63 53 57 37 52 75 68 46
92 87 80 76 73 72 73 71 71 69 69 78 62 74 78 73 67 74 96 76 65 54 57 69 61 68 43 52 49 54 46 59 66 66 61 52 58 88 63 94 68 60 60 50 44 48 43
94 86 81 75 73 74 73 73 72 68 75 79 64 94 79 76 95 79 62 59 67 61 56 60 58 47 52 53 52 49 53 54 61 60 60 49 58 93 75 56 52 54 45 43 66 56 46
93 86 81 76 75 75 73 74 73 70 76 59 61 82 79 91 89 70 60 60 57 60 57 58 52 47 43 48 54 51 52 53 59 55 62 46 67 94 89 62 52 60 49 46 42 70 79
93 88 80 77 76 76 74 74 73 69 71 62 57 91 74 84 63 64 61 61 63 58 52 48 46 43 45 47 46 54 56 57 56 52 66 53 52 60 68 63 52 66 52 48 66 96 53
94 89 82 78 76 75 74 75 71 68 73 57 45 56 62 87 60 56 59 56 57 59 52 47 50 47 43 48 49 52 52 56 54 64 49 50 79 66 53 47 72 68 56 51 83 69 73
94 89 81 81 76 74 75 74 69 69 75 47 42 42 49 51 56 54 66 60 58 64 57 56 52 49 43 44 48 51 48 48 49 50 48 47 82 71 77 50 56 66 52 49 51 51 55
94 90 84 81 76 74 75 74 69 73 62 42 52 49 41 60 52 51 50 56 63 61 62 58 58 48 53 63 48 45 42 42 41 45 48 51 59 67 67 51 50 59 49 48 46 44 47
93 90 86 81 75 74 75 71 69 72 60 38 45 38 38 40 42 48 54 55 60 60 63 58 56 51 64 53 50 42 39 41 40 44 41 48 52 55 65 53 73 38 36 36 39 37 37
93 89 87 83 75 73 75 69 70 68 65 47 52 38 32 40 42 52 52 55 53 54 61 66 67 60 56 54 49 52 52 52 48 48 45 41 43 53 63 54 40 33 35 42 43 36 30
92 90 86 82 76 75 75 70 70 71 66 53 57 51 32 38 41 43 50 48 50 53 58 59 56 48 62 51 54 59 58 47 55 58 51 50 46 52 60 66 57 37 47 40 42 48 43
91 91 85 82 76 76 76 74 71 70 66 59 68 64 39 36 42 38 37 42 43 50 52 58 55 66 64 60 69 62 46 44 49 52 63 62 59 68 62 66 45 31 42 40 55 50 42
91 90 86 83 80 77 77 76 75 73 69 63 78 69 53 42 52 47 47 48 51 42 46 60 62 68 65 72 67 60 48 41 45 37 47 48 53 55 53 63 70 42 44 47 41 41 41
91 89 88 86 82 78 76 78 73 72 71 64 69 61 55 59 57 49 51 50 49 51 48 61 78 90 96 82 68 67 55 47 42 48 46 55 39 42 42 42 38 36 35 35 37 44 42

GFSGBSN_sfc_rhum_084.txt.gz
RH
79 81 74 72 70 68 68 66 65 64 63 63 64 68 68 68 61 62 70 69 65 63 64 63 62 62 60 58 46 28 38 37 44 52 63 85 75 72 70 56 48 62 58 56 54 79 57
84 86 82 76 73 70 69 68 67 65 65 64 62 70 68 70 68 61 67 68 69 62 64 64 60 61 62 62 29 30 32 38 56 60 68 72 79 66 65 45 48 48 48 52 55 68 83
87 88 89 81 75 71 70 69 68 66 65 62 66 68 70 69 68 61 63 70 70 67 62 66 66 55 52 47 29 32 33 54 64 87 78 64 87 86 78 56 36 38 52 49 78 73 78
90 91 89 85 77 73 71 70 70 67 66 63 64 68 70 67 70 64 62 70 71 70 63 63 64 54 58 34 35 31 33 53 54 72 90 85 78 79 80 60 42 60 55 69 59 72 72
93 95 91 87 83 75 71 70 70 68 65 63 65 69 69 67 67 65 65 71 72 68 62 60 61 53 50 40 39 32 36 45 52 66 80 76 78 84 78 86 72 70 74 64 64 55 59
90 90 95 89 85 76 72 71 70 69 66 64 67 72 68 67 65 66 72 70 65 63 61 43 40 58 53 46 39 38 37 44 56 64 86 88 88 96 91 77 86 72 68 58 59 71 74
89 88 94 90 85 77 73 71 70 69 67 66 69 71 70 65 66 70 74 73 74 71 54 54 49 45 38 39 35 42 40 46 58 80 98 94 99 99 82 56 45 52 47 54 48 55 65
91 91 96 91 86 78 74 72 70 70 68 67 71 72 69 69 71 71 68 73 54 56 62 46 47 44 41 45 50 50 46 59 63 100 98 97 100 82 64 48 38 38 47 56 65 54 56
90 89 94 92 86 78 75 72 71 70 68 67 71 71 68 70 69 70 70 49 49 45 68 56 50 49 50 52 55 60 60 60 82 99 97 97 94 78 70 64 53 37 40 73 72 58 51
92 90 94 93 87 79 77 73 71 70 69 69 70 68 68 70 78 64 60 47 53 53 99 79 61 61 55 51 91 68 62 71 75 97 85 90 80 87 80 64 50 60 37 42 47 60 74
92 92 96 94 86 81 78 73 72 70 69 68 67 65 71 73 76 65 55 52 54 63 94 82 65 44 50 66 83 82 71 76 73 80 90 95 82 78 65 54 44 54 45 46 52 61 59
93 92 96 94 88 82 78 74 71 70 67 68 69 74 70 67 72 54 52 55 66 98 93 92 65 53 52 53 67 79 86 84 77 89 79 90 70 80 84 54 48 52 55 47 46 54 87
93 93 96 95 86 83 77 74 72 70 68 70 78 76 74 52 71 57 58 75 100 92 70 82 80 56 50 59 74 90 88 84 94 98 99 92 94 77 71 71 55 54 58 91 94 94 84
93 94 96 94 85 82 76 73 71 69 69 74 78 74 72 57 60 60 70 89 90 78 98 71 66 57 68 58 61 55 67 74 68 83 93 97 96 88 71 75 68 59 56 88 72 82 69
94 97 96 95 85 79 76 73 72 71 72 80 79 77 73 76 64 71 82 96 93 97 74 76 72 73 70 60 57 54 60 71 76 72 95 92 95 80 72 73 68 66 79 53 73 61 80
95 96 96 93 82 78 75 73 73 73 73 81 78 74 81 71 69 77 95 89 93 66 55 58 85 74 57 55 57 67 58 52 69 63 63 64 97 83 80 73 64 67 53 70 90 80 63
90 96 96 90 83 79 75 74 73 74 73 76 85 83 87 76 76 85 100 80 66 52 56 62 60 57 48 55 50 57 53 63 64 69 65 60 73 95 76 87 78 75 74 64 59 68 80
92 96 95 90 83 80 75 74 74 74 74 81 78 97 81 78 99 83 79 60 64 57 55 58 61 50 49 51 52 54 50 65 64 61 68 60 74 95 83 67 60 63 77 59 92 75 73
96 95 95 92 86 81 76 74 75 73 76 76 74 88 82 87 99 84 64 62 54 61 58 57 54 52 47 53 64 55 58 62 63 63 67 60 82 98 91 74 65 74 62 58 64 84 82
84 94 95 92 88 83 78 76 76 74 76 85 72 97 93 89 74 76 67 66 67 64 54 50 48 47 49 52 53 59 64 64 63 60 70 66 65 76 94 81 75 80 62 58 78 98 79
93 96 95 92 85 81 78 77 76 73 73 82 70 80 71 94 80 67 64 56 59 63 57 51 55 50 49 56 55 57 59 69 65 67 63 64 85 80 71 54 83 84 68 62 84 72 86
87 93 95 92 86 76 77 77 75 72 75 78 61 64 67 64 57 61 68 64 52 64 59 57 57 52 49 55 58 59 55 60 64 65 65 59 94 88 88 56 60 78 64 60 58 57 66
92 95 94 92 87 76 77 79 73 74 73 69 64 58 64 66 63 63 63 53 53 61 65 59 56 54 58 66 55 54 52 48 51 59 64 65 79 85 87 61 58 75 58 60 57 53 57
94 95 94 91 84 77 77 76 72 80 76 61 58 54 63 60 59 59 57 58 64 65 64 61 60 60 70 61 58 58 53 52 52 56 49 62 67 76 91 78 90 55 44 43 48 45 46
88 92 94 92 86 77 76 73 70 76 76 65 64 65 56 52 56 57 58 60 58 64 67 65 69 64 64 68 65 66 68 65 56 56 57 52 63 76 87 84 60 46 49 53 55 49 36
86 94 92 89 85 79 75 71 69 73 72 66 69 68 63 56 59 49 58 60 68 69 73 67 64 57 76 73 67 79 80 63 71 71 61 58 59 76 85 88 77 64 56 49 55 69 57
89 94 93 90 86 80 73 73 73 70 67 71 79 75 74 57 55 51 60 63 56 64 69 68 66 80 79 81 75 81 68 55 64 66 82 79 74 87 85 88 76 51 50 51 74 75 56
93 94 93 89 83 81 74 74 72 69 68 74 86 77 77 64 68 52 51 61 61 56 68 72 75 78 84 81 79 82 68 60 62 50 62 71 77 80 82 88 91 51 54 60 58 57 55
96 94 93 90 86 82 78 78 75 71 70 69 85 65 59 74 72 58 60 57 57 60 67 79 86 87 95 93 86 84 75 66 59 66 59 71 54 69 59 62 50 49 50 46 47 54 57

GFSGBSN_sfc_rhum_087.txt.gz
RH
81 81 82 84 82 77 71 69 69 68 66 65 61 63 71 66 68 65 61 69 67 66 63 65 61 62 67 78 62 37 39 38 42 60 68 79 83 86 82 77 66 80 80 75 66 74 74
85 85 85 86 86 82 73 71 70 69 68 66 63 66 70 71 68 68 60 64 69 72 63 64 64 66 73 89 38 36 38 47 61 65 72 75 80 73 82 69 70 63 65 61 60 75 71
86 87 88 88 88 86 77 74 71 70 69 67 65 65 70 70 68 69 61 62 69 71 67 61 64 63 76 71 37 36 37 57 72 78 78 72 79 91 90 71 50 53 66 64 83 72 70
88 88 90 90 90 89 82 79 72 71 69 68 64 66 70 69 66 67 61 62 70 72 70 62 61 73 78 41 46 36 39 62 68 80 76 82 93 78 90 75 66 61 68 84 83 74 71
88 89 90 92 93 90 84 82 73 72 70 68 65 66 72 67 67 61 61 70 72 70 67 58 73 82 68 41 41 38 43 52 66 77 78 66 79 86 87 90 82 77 82 78 89 70 76
87 88 89 90 90 90 86 79 74 72 70 68 67 68 70 67 64 63 66 72 71 67 65 52 52 67 58 49 47 42 41 50 62 72 78 85 89 96 93 94 83 84 79 68 76 80 72
88 87 89 87 88 91 86 82 74 72 70 69 67 71 68 66 63 68 78 89 88 88 76 70 60 54 47 47 44 54 52 54 61 78 96 95 98 99 93 90 80 61 64 62 62 69 78
91 88 88 89 90 93 89 83 75 72 70 68 67 72 69 64 66 68 76 92 66 67 75 53 52 51 44 51 59 62 58 70 73 99 97 98 100 83 72 68 67 58 64 66 60 60 62
86 90 87 89 89 95 90 82 76 72 70 68 69 70 66 67 66 78 84 70 60 62 78 60 53 56 60 57 72 78 71 74 81 100 99 91 95 76 76 70 58 64 62 82 62 75 75
83 89 88 90 90 96 91 82 77 73 71 69 68 63 66 69 79 79 73 60 61 63 99 82 68 64 62 80 84 70 70 78 79 98 96 98 80 78 78 68 64 69 59 74 71 73 94
83 89 92 90 90 96 92 82 78 74 72 69 68 64 68 71 84 72 65 61 62 72 94 80 66 52 62 72 80 74 74 80 92 90 93 99 93 90 85 70 62 68 60 73 79 69 74
84 88 94 93 90 96 92 86 78 74 72 68 67 70 72 75 80 61 60 65 77 92 96 86 75 66 68 76 80 75 86 86 78 84 79 93 84 87 86 73 69 73 62 59 68 73 85
82 93 89 93 93 96 93 86 77 74 72 70 73 78 74 61 78 63 68 87 95 93 74 77 81 59 62 84 87 83 82 93 94 90 98 84 90 81 77 72 74 82 73 96 92 91 83
89 88 88 94 96 96 93 86 76 73 72 75 81 78 77 65 74 70 86 95 89 77 92 72 71 67 81 66 65 81 87 88 78 87 92 94 87 92 78 87 80 78 60 86 87 93 75
91 89 93 95 96 94 92 84 75 74 76 81 81 94 89 88 72 83 90 96 92 91 80 84 76 86 82 69 70 66 80 88 85 81 89 96 94 79 75 84 76 72 84 56 79 74 86
91 92 92 97 96 94 91 80 75 75 78 83 98 86 95 79 81 93 97 85 91 83 70 67 87 79 73 68 71 75 72 65 79 72 75 79 98 81 82 76 69 68 61 70 89 76 70
90 91 94 96 95 95 90 79 75 76 77 84 94 95 91 80 89 96 97 86 77 61 65 64 80 76 59 66 64 69 80 72 73 78 79 73 79 95 79 91 84 76 77 69 65 73 76
88 91 92 96 95 95 88 80 75 76 77 88 88 100 89 86 98 95 96 73 68 66 66 72 73 71 57 59 61 66 75 80 74 72 77 69 85 89 89 73 72 74 78 74 89 77 79
90 90 94 96 95 94 89 83 77 76 80 96 88 98 86 93 99 97 79 71 68 70 70 68 68 59 50 60 66 64 77 75 72 69 80 69 89 98 89 77 72 80 73 73 73 82 84
89 90 95 96 95 93 89 82 81 77 78 86 89 99 97 96 92 96 82 83 80 69 64 58 59 56 59 62 60 66 78 71 72 68 69 67 76 78 88 79 80 87 70 68 79 93 83
88 92 94 96 94 92 89 82 82 79 81 89 86 94 82 99 96 94 77 72 76 75 68 59 64 61 61 66 66 62 71 81 73 71 65 70 86 81 73 64 85 87 75 70 87 76 85
85 92 91 94 94 91 87 83 82 81 82 89 72 88 84 90 81 92 79 74 72 73 68 67 70 58 60 72 74 68 72 81 77 81 76 68 90 87 83 64 67 79 70 70 71 69 74
84 89 84 92 94 90 85 83 82 82 76 83 72 66 69 76 83 85 84 70 59 71 72 70 69 66 76 75 72 71 68 58 56 71 75 75 83 88 93 67 64 70 60 66 68 62 64
87 88 93 94 93 89 84 83 82 81 72 69 67 68 69 76 82 75 67 62 66 71 78 74 73 74 81 72 71 70 70 57 56 62 51 66 71 81 93 81 91 57 50 48 60 56 56
85 91 89 94 92 89 84 84 78 81 76 70 73 68 67 68 72 72 69 76 72 72 78 82 78 74 77 79 75 78 79 72 66 63 68 61 71 84 89 90 68 59 56 58 58 56 55
84 89 87 93 92 90 84 81 77 80 77 72 80 77 71 67 68 61 72 74 86 89 83 81 69 64 83 84 76 84 88 78 84 84 68 63 69 82 90 90 86 61 60 55 58 67 61
87 91 90 92 90 90 84 78 76 80 74 76 86 81 68 70 68 64 72 75 66 81 91 84 74 86 83 91 86 86 74 60 77 79 88 87 85 90 88 94 82 61 58 54 69 56 59
86 88 94 92 90 87 80 76 78 81 71 73 89 87 69 83 78 67 67 72 68 70 90 80 82 83 93 88 83 86 80 68 71 61 79 79 88 90 90 93 92 57 56 59 51 60 57
88 95 94 93 89 84 80 80 84 72 70 77 85 73 68 80 80 71 70 66 68 74 80 89 90 94 96 94 94 92 87 83 71 72 67 68 62 70 68 72 54 53 47 46 47 53 58

GFSGBSN_sfc_rhum_090.txt.gz
RH
86 86 87 87 90 87 83 77 73 71 68 66 64 64 66 69 72 66 65 60 67 67 65 62 64 62 69 82 76 43 38 41 51 61 63 74 82 75 88 87 72 82 73 74 81 76 80
88 87 87 88 92 92 89 84 79 72 70 68 66 64 64 70 71 67 66 61 63 70 73 61 65 68 77 89 45 37 39 50 56 69 70 75 79 66 90 93 79 70 64 70 86 76 71
82 87 87 88 87 92 93 89 82 74 71 69 67 64 66 69 68 64 67 60 61 70 71 65 60 64 83 76 45 43 52 64 70 72 72 80 76 86 81 82 68 66 80 68 82 84 80
81 83 86 88 87 88 94 92 88 79 73 70 67 62 66 71 68 65 60 60 68 71 71 68 59 77 90 48 48 40 47 67 72 77 74 77 87 83 90 82 83 72 79 97 87 88 89
68 80 84 87 88 86 90 92 90 82 74 70 68 64 66 69 64 64 60 63 70 68 66 64 75 86 80 44 43 41 46 54 69 84 83 67 89 91 83 93 91 78 93 92 98 81 87
68 70 81 87 89 90 89 93 91 83 75 71 68 66 69 66 66 62 64 69 72 72 65 57 58 78 56 55 50 44 49 50 68 76 80 83 91 96 95 97 90 93 85 72 92 88 82
67 69 77 84 88 90 92 89 91 86 77 72 70 67 70 66 60 63 78 90 84 86 83 73 66 64 53 49 50 62 58 64 68 77 92 92 95 99 97 91 90 66 69 75 78 81 74
65 71 74 79 85 90 92 92 91 89 77 72 70 70 66 63 61 65 84 93 71 68 79 60 54 56 50 57 65 67 63 73 75 99 97 98 97 84 89 80 74 63 67 70 70 66 70
62 68 74 81 83 87 92 92 94 91 79 73 71 71 68 61 66 77 85 76 62 63 86 69 60 62 61 61 80 81 75 79 94 100 100 98 89 74 82 84 75 69 67 66 79 78 75
68 68 75 82 83 85 91 93 93 90 80 74 73 68 67 68 77 79 84 64 64 66 95 83 71 67 63 74 86 68 70 82 96 100 96 97 81 77 89 75 60 72 58 54 76 90 99
66 71 74 79 87 88 94 96 93 91 80 75 72 69 68 73 90 81 69 66 64 63 82 64 72 56 65 78 82 74 75 83 96 96 93 98 87 85 86 78 63 70 62 62 72 82 94
63 71 72 79 81 88 92 96 93 90 82 75 72 69 71 78 81 76 65 67 78 85 92 82 76 71 79 74 75 79 84 87 90 91 84 93 85 90 92 78 70 69 73 75 82 90 96
64 68 76 80 84 88 87 96 93 90 81 74 74 75 78 66 84 69 74 86 90 90 70 80 79 69 70 89 83 87 86 90 96 90 96 91 95 85 80 78 72 71 84 99 99 98 81
66 75 78 86 87 89 92 95 91 88 79 77 78 79 76 68 75 75 86 88 90 78 88 75 77 71 83 70 70 86 86 89 78 84 93 95 96 86 76 92 93 86 81 88 90 91 76
70 80 82 88 89 90 93 95 90 86 81 80 84 94 91 90 76 84 84 97 87 88 80 86 81 90 79 73 76 69 84 89 87 87 93 94 94 75 80 84 85 84 81 59 76 78 81
74 81 86 88 91 90 95 94 89 84 82 85 96 97 97 84 85 90 96 86 91 77 74 71 85 77 79 72 75 77 78 76 78 76 83 84 98 87 82 76 72 67 62 72 87 76 78
71 78 84 90 90 92 95 93 88 80 84 83 93 96 96 87 91 96 98 92 82 67 66 72 84 85 68 71 73 75 86 74 74 75 76 76 80 87 79 87 92 77 75 75 70 76 71
63 79 86 89 88 92 95 93 87 82 85 87 94 99 91 94 99 98 97 80 68 70 72 75 76 79 59 64 65 72 88 88 81 77 78 79 84 93 90 76 75 77 87 73 87 77 85
63 80 90 91 95 96 94 91 85 84 85 95 99 97 87 95 94 98 89 74 71 74 74 75 75 64 60 67 73 76 85 78 73 74 83 76 90 91 83 71 72 82 77 75 75 84 87
64 84 88 92 95 95 93 89 84 84 81 82 93 98 98 96 92 95 88 86 84 72 72 65 62 58 62 66 63 77 85 78 75 72 69 66 82 75 88 77 82 88 81 78 81 93 82
64 85 88 95 96 94 92 89 84 84 82 82 87 96 85 98 98 96 86 82 84 80 71 62 68 63 64 76 70 79 84 85 76 71 72 74 89 85 78 67 84 85 80 79 88 80 86
66 84 89 91 96 94 93 87 83 83 83 85 86 96 92 94 87 95 89 85 77 75 72 73 70 62 62 74 75 77 80 85 80 82 79 74 92 86 82 68 72 76 71 72 75 77 76
71 85 88 91 92 94 92 86 83 82 79 84 78 73 78 86 94 93 87 78 73 75 76 68 64 75 74 70 67 74 75 64 66 76 79 78 84 88 92 75 66 74 61 69 74 69 71
74 85 88 89 92 92 91 86 85 83 71 69 72 75 77 89 90 82 73 70 76 75 81 81 73 78 80 78 73 73 72 60 61 66 65 81 82 88 94 78 90 58 52 52 63 60 59
73 82 89 90 92 91 88 87 87 84 65 70 74 69 72 87 83 78 77 82 79 80 81 87 80 81 79 75 76 80 82 76 72 71 70 68 80 88 91 92 70 62 58 61 59 53 67
73 82 91 91 92 91 87 85 83 83 66 73 78 76 71 72 78 65 80 82 90 91 87 87 68 72 84 80 79 86 92 80 87 84 73 71 76 80 93 91 86 57 63 59 58 74 56
77 78 86 90 92 90 88 87 80 82 70 71 84 82 66 77 80 71 81 79 83 88 93 87 81 87 83 91 90 88 81 68 88 87 88 87 89 90 90 87 83 65 61 57 74 56 62
77 80 82 86 93 90 89 85 80 82 71 70 86 84 70 87 83 77 71 71 71 86 92 82 82 82 93 87 84 88 83 71 72 74 82 81 90 93 92 94 92 61 66 64 50 63 59
83 86 91 94 93 91 86 77 76 82 69 70 81 71 70 83 84 77 77 76 73 77 87 92 88 93 95 93 94 93 88 86 76 74 73 75 70 74 77 78 65 69 66 72 70 68 66

GFSGBSN_sfc_rhum_093.txt.gz
RH
79 81 85 85 91 88 90 93 92 89 86 75 69 66 66 66 69 71 62 65 62 63 73 62 64 66 70 85 80 46 42 41 54 66 69 74 82 82 88 90 75 82 74 60 78 89 82
71 72 77 83 86 88 89 88 94 91 89 82 73 68 67 65 69 68 65 65 61 63 73 63 61 67 81 83 49 44 43 51 62 71 64 69 78 75 86 87 84 71 67 64 68 88 77
66 70 70 69 80 87 88 89 90 94 91 86 75 70 67 67 70 65 61 63 60 63 71 70 59 67 87 76 51 46 55 65 70 70 66 78 83 80 77 87 69 67 85 72 76 85 90
59 60 66 68 73 78 85 89 91 96 91 88 78 70 65 67 68 65 62 57 63 71 72 69 61 80 96 52 52 46 64 73 73 77 74 80 82 83 86 84 91 80 80 88 74 88 87
58 59 60 63 68 73 79 86 92 96 92 90 82 71 67 68 64 60 61 59 68 70 66 65 80 88 87 46 54 45 47 58 73 80 80 68 82 88 87 97 90 86 93 84 86 82 83
59 60 60 62 66 71 76 83 87 96 94 90 85 76 69 68 66 60 63 67 72 72 67 62 62 88 60 58 50 47 56 58 70 79 80 88 94 99 98 97 91 78 95 84 79 94 90
57 57 60 62 64 69 72 81 85 92 93 91 84 75 70 70 60 60 79 86 86 86 85 74 67 70 59 52 54 66 64 70 68 78 99 86 100 98 99 94 90 69 86 95 87 81 85
58 58 58 58 70 66 71 81 84 87 95 91 87 79 73 67 61 72 85 92 72 66 81 68 60 59 54 60 72 68 66 77 78 100 97 98 98 85 82 88 92 77 78 79 82 84 75
58 58 58 58 62 68 70 77 86 88 94 90 87 84 71 66 68 78 84 81 65 62 87 72 62 63 64 68 83 75 75 81 94 100 100 90 83 77 86 95 97 83 74 77 82 82 78
60 58 59 58 59 71 72 78 81 88 94 91 89 83 70 70 80 85 85 71 68 65 92 70 75 68 70 76 78 69 77 88 98 100 97 90 84 86 97 94 74 83 69 75 84 93 99
60 60 62 59 63 66 72 76 79 86 94 91 89 79 69 71 86 85 70 71 70 58 67 54 73 59 73 77 78 72 80 91 97 92 96 98 92 98 98 91 75 80 64 78 80 92 93
64 59 63 66 66 68 71 76 79 87 94 91 87 77 72 82 89 77 71 71 73 82 59 81 75 71 80 73 76 79 90 93 82 83 83 92 81 88 92 81 73 70 76 84 94 91 98
67 63 70 71 66 72 75 77 81 87 94 90 84 76 79 72 88 75 77 83 90 75 64 70 73 72 74 83 82 90 89 88 98 96 99 91 96 81 85 81 73 76 78 99 97 98 89
71 68 80 86 75 78 76 80 82 90 91 88 83 78 75 72 77 78 82 86 79 76 90 77 78 77 86 72 71 81 83 92 84 84 96 98 94 91 81 92 88 90 78 90 92 96 82
74 68 72 83 80 80 82 84 88 95 92 89 86 91 92 91 80 81 84 96 78 87 77 83 81 91 79 74 77 71 86 91 88 87 85 94 99 75 78 83 86 82 88 63 75 75 82
71 67 67 74 77 81 86 90 93 94 92 89 94 93 96 87 83 86 95 88 94 76 75 70 80 79 79 77 79 78 82 84 84 81 84 86 95 81 77 72 76 78 55 74 86 80 70
68 65 63 66 80 87 88 88 94 89 90 83 80 96 97 89 85 93 99 92 86 76 70 76 83 86 77 78 79 84 90 81 82 77 77 80 81 87 75 87 90 73 75 76 72 76 68
66 63 64 68 84 88 88 90 92 90 91 88 89 99 95 94 99 97 99 86 72 76 77 77 77 78 61 71 73 88 91 91 80 81 83 84 84 97 92 82 82 83 87 73 84 77 88
66 63 66 78 85 87 89 92 89 91 87 89 95 95 90 92 98 98 90 81 74 77 77 81 79 71 63 66 80 87 90 78 76 77 83 76 88 94 82 71 71 83 83 80 79 84 87
63 65 68 85 87 90 93 90 90 90 86 81 92 99 99 96 88 90 91 89 88 75 74 73 64 62 65 70 71 85 89 81 76 74 68 67 83 75 85 76 81 88 85 85 83 93 85
64 64 77 86 89 93 91 89 90 91 88 77 84 96 88 97 95 92 92 86 89 84 74 68 71 65 64 79 78 88 89 87 78 73 74 74 88 86 79 77 85 86 85 84 90 83 86
65 67 84 88 94 92 92 91 90 90 83 79 91 96 93 95 92 96 92 89 84 80 75 76 72 66 67 72 73 81 85 88 84 80 79 78 95 84 83 70 81 78 76 76 81 82 80
64 73 86 90 94 95 92 92 91 89 76 76 80 78 80 90 96 96 92 87 76 79 78 69 67 73 73 72 73 76 74 74 77 79 80 81 85 88 91 82 68 75 67 73 78 76 76
62 78 85 88 90 92 91 90 91 88 67 70 76 76 84 97 94 92 79 76 80 79 85 86 74 74 82 77 74 67 65 65 66 72 71 82 86 88 96 80 81 56 56 56 64 60 67
64 78 87 90 95 91 90 87 88 86 64 72 80 71 80 96 88 82 83 89 86 86 90 88 80 84 79 70 77 78 83 76 77 78 75 76 84 92 91 93 71 67 62 66 70 58 68
69 75 84 89 91 91 89 89 87 86 63 72 85 87 76 79 85 71 86 85 91 92 90 88 70 81 80 81 78 85 92 81 88 86 79 75 78 76 93 92 87 58 69 64 59 74 54
71 77 80 85 92 92 91 90 83 86 65 70 86 90 72 83 90 79 88 85 88 90 94 87 86 86 82 90 89 90 85 79 90 87 89 88 89 91 91 87 82 67 64 59 80 62 66
76 81 81 82 93 93 90 90 86 85 65 71 85 85 75 90 92 84 79 77 82 89 91 85 82 82 92 85 82 88 84 76 78 80 83 82 91 93 93 95 92 67 68 75 68 76 73
81 85 91 90 91 93 89 84 83 80 67 69 79 70 71 88 93 84 86 83 76 80 88 93 87 92 92 92 92 93 87 87 79 80 79 80 75 82 80 79 73 82 68 77 77 82 81

GFSGBSN_sfc_rhum_096.txt.gz
RH
63 64 68 70 72 72 75 80 86 89 91 90 88 87 82 69 66 69 70 62 62 61 67 72 61 66 70 88 83 50 42 44 60 66 68 74 88 88 94 89 87 92 78 70 62 80 80
58 59 59 60 61 70 71 72 80 85 88 94 89 86 85 74 68 70 63 66 64 60 67 70 60 66 83 83 44 48 46 52 62 67 67 70 79 77 84 84 87 76 71 68 69 66 81
57 57 59 59 59 61 63 69 78 81 86 90 90 86 86 80 72 71 63 60 59 60 66 71 62 68 90 66 54 55 53 65 68 73 71 66 70 80 78 88 72 77 86 70 68 72 83
58 58 59 59 60 60 63 69 77 81 84 88 93 87 89 79 75 69 64 58 60 67 70 70 64 80 83 54 59 51 67 75 76 75 75 76 77 86 78 81 89 84 78 94 71 78 80
60 59 59 59 59 59 62 64 72 76 83 84 94 86 85 82 78 66 60 61 63 70 65 65 82 87 89 49 55 54 48 59 74 78 80 69 77 86 82 95 92 93 96 96 91 73 88
59 59 59 60 59 60 57 63 65 73 78 86 93 91 89 85 75 67 62 66 70 73 70 64 65 89 63 60 55 49 55 57 72 78 79 91 95 98 93 99 90 98 93 90 80 87 84
61 59 60 59 58 59 59 58 65 68 78 84 94 92 90 88 73 63 76 84 84 87 87 76 70 74 62 55 57 66 66 69 75 81 97 96 100 98 89 84 80 85 88 92 88 85 87
62 63 61 58 59 58 59 59 65 67 76 81 92 92 90 85 73 66 84 89 75 64 80 73 70 64 58 60 72 69 66 77 87 90 88 96 99 79 82 84 87 81 91 84 95 83 84
66 65 63 59 58 58 58 58 64 66 72 80 92 91 89 86 72 82 86 82 69 64 86 75 66 66 66 66 77 75 74 82 90 99 92 97 87 77 96 95 95 85 86 92 90 89 85
66 68 64 64 62 58 59 61 62 66 71 78 90 89 88 82 81 82 84 72 70 58 88 59 77 68 70 77 76 69 76 87 98 100 97 98 79 77 99 92 74 93 73 80 90 96 99
67 67 66 70 70 61 64 65 69 68 71 80 91 87 88 79 83 85 72 73 67 54 56 49 72 60 74 86 80 79 82 95 98 93 98 98 96 97 100 94 78 87 75 77 84 92 92
68 66 69 75 74 71 74 76 65 73 72 80 93 88 88 91 87 76 74 69 69 81 52 71 74 72 77 79 77 78 92 94 88 93 88 97 96 94 94 87 81 72 74 87 91 89 93
70 70 69 68 73 73 84 72 72 71 72 82 92 88 90 81 85 78 75 75 89 74 58 70 73 73 77 81 80 88 89 90 96 94 96 90 93 85 91 84 80 77 81 98 94 95 90
72 73 73 74 72 76 74 74 75 73 75 83 90 90 88 74 76 80 76 84 84 70 86 79 78 76 84 74 72 75 82 93 87 85 96 94 96 96 82 95 94 90 79 92 92 94 82
73 70 74 73 70 67 72 81 81 79 83 89 90 98 96 86 81 77 82 97 80 82 76 82 79 84 74 73 82 75 88 92 89 89 86 97 99 73 83 85 85 87 88 68 79 74 91
70 72 72 69 64 66 78 80 83 88 90 92 97 97 97 85 82 81 94 89 93 76 76 69 75 82 79 74 76 81 85 85 86 81 86 86 94 76 75 71 76 69 63 78 88 80 71
75 71 67 65 66 68 73 87 87 90 90 84 94 97 96 88 82 90 99 92 86 77 72 74 84 85 79 80 80 90 94 84 84 81 80 82 84 86 78 92 91 79 77 77 74 76 69
72 66 65 65 70 77 87 86 91 89 90 88 97 100 95 89 97 93 95 91 74 82 82 81 82 73 67 75 83 90 95 94 84 82 83 82 86 99 95 83 84 84 89 72 83 78 88
69 66 64 68 78 87 87 91 89 90 86 96 98 98 92 89 98 97 92 86 78 80 82 83 84 74 65 73 84 88 91 80 80 81 84 76 87 93 81 72 71 82 85 81 81 84 87
63 65 66 78 87 88 90 89 87 88 88 96 98 99 98 97 82 90 93 91 88 78 76 78 74 68 72 78 82 88 91 82 79 82 69 67 84 74 86 78 84 86 85 85 83 92 85
62 67 78 85 89 92 90 86 85 89 87 94 94 97 88 96 94 88 91 88 90 87 80 81 76 69 69 81 84 91 91 85 77 74 76 73 90 88 82 84 84 85 84 88 90 84 85
66 67 83 87 93 88 86 85 91 90 89 95 89 98 89 94 88 87 89 91 86 84 79 81 77 70 76 76 74 82 86 88 83 77 81 80 96 83 84 76 76 79 80 82 85 85 85
64 75 82 87 92 87 87 91 92 91 84 90 84 83 85 80 97 92 94 89 79 80 84 75 68 73 75 78 77 78 79 79 81 81 82 82 85 87 92 83 70 73 71 74 79 81 80
66 76 81 86 90 90 93 91 95 82 68 71 80 83 90 94 95 93 86 82 83 81 85 87 79 73 80 77 75 68 67 71 71 77 77 83 87 89 95 74 67 53 58 60 65 63 68
70 74 78 88 88 88 91 90 91 70 66 76 84 75 90 91 92 88 85 91 89 89 92 89 84 87 80 72 76 78 82 75 77 84 80 81 85 92 91 93 66 71 68 69 69 62 64
72 75 79 81 90 87 87 88 92 72 64 77 93 92 81 84 85 80 89 87 92 94 92 86 78 84 78 82 77 84 89 83 87 86 79 76 80 82 92 91 81 58 76 71 68 75 75
74 78 81 83 92 89 87 88 89 80 67 75 90 88 76 88 94 89 89 88 89 90 95 88 89 85 80 89 88 89 83 81 88 89 91 89 90 91 88 88 82 70 70 67 81 70 80
76 78 81 90 90 86 86 87 84 79 70 74 84 83 77 96 95 91 86 82 88 89 91 86 83 82 90 84 81 89 85 84 83 82 84 84 92 93 93 96 91 79 72 75 79 85 86
76 81 92 93 92 89 87 86 84 78 69 67 75 74 76 90 93 86 88 85 85 83 91 92 86 89 90 91 89 93 84 88 80 81 82 82 73 82 81 79 73 84 82 83 84 89 92

GFSGBSN_sfc_rhum_099.txt.gz
RH
59 54 55 57 58 59 58 60 64 68 73 76 82 90 89 85 82 73 75 71 63 63 61 73 61 66 67 82 76 49 45 45 60 62 64 67 80 83 80 83 76 82 74 65 62 63 62
62 62 56 56 58 58 58 60 60 64 68 73 79 86 89 89 84 82 80 63 65 66 60 72 60 66 76 69 39 47 46 51 60 63 64 72 75 74 83 81 83 67 58 64 62 68 66
56 63 64 63 61 60 59 58 62 63 62 68 74 87 92 90 88 81 80 65 60 63 61 70 63 67 86 61 49 55 49 61 63 66 69 64 62 72 76 81 69 66 79 75 66 61 74
59 57 56 61 60 62 58 60 58 61 63 64 75 83 92 89 87 84 77 66 60 65 70 70 66 78 79 52 59 54 64 67 71 70 70 70 69 74 88 75 83 80 74 89 66 60 73
63 64 62 60 58 58 58 60 60 59 63 65 71 80 90 89 88 88 74 66 61 69 66 68 82 82 80 51 55 54 56 59 71 76 80 64 75 91 94 96 81 74 89 95 77 56 88
65 66 64 63 62 59 59 59 60 60 60 65 74 87 91 89 88 88 77 67 70 71 70 63 65 86 59 58 55 49 53 58 70 75 80 88 94 99 95 99 86 90 84 78 81 79 75
67 68 67 66 62 62 60 58 59 58 60 64 74 85 91 87 88 88 86 86 85 86 88 78 74 72 62 55 56 61 64 69 71 82 84 92 100 98 90 80 76 98 69 68 73 81 77
66 64 65 66 66 63 62 62 56 59 59 63 73 84 90 85 85 86 88 89 70 62 81 81 71 69 60 59 71 68 67 79 89 81 82 94 99 94 66 69 80 96 77 82 76 77 75
64 67 66 64 66 67 65 65 60 60 66 64 73 82 89 85 86 95 91 80 67 68 80 74 69 67 66 63 77 74 70 83 90 93 90 96 89 91 94 84 86 84 82 87 80 85 80
69 70 72 67 68 65 72 68 65 66 69 64 68 76 87 87 94 93 88 69 72 61 86 59 77 69 72 76 78 67 69 83 96 99 98 99 94 95 97 88 91 92 75 70 84 88 98
70 70 70 76 69 70 70 71 69 68 69 65 75 79 87 79 94 93 72 74 69 52 60 47 73 60 76 82 81 78 76 95 97 97 99 99 95 99 95 84 80 76 76 79 84 87 88
70 71 74 73 68 70 70 71 72 68 65 67 73 81 86 94 97 84 73 66 64 80 52 71 74 72 73 79 76 76 91 93 86 98 97 99 91 88 91 88 80 72 81 84 83 81 90
72 81 71 73 74 74 71 71 72 68 68 70 73 88 88 86 94 77 71 71 88 74 59 71 75 73 75 75 74 84 85 88 94 96 97 99 97 90 89 88 82 76 74 93 88 91 80
79 81 73 69 69 73 77 69 66 70 77 76 78 91 90 87 88 74 73 83 78 65 80 78 77 73 76 73 72 77 86 93 86 84 93 96 98 94 85 90 88 86 72 83 86 87 81
80 73 68 72 72 70 70 68 73 82 75 75 84 98 97 96 84 71 82 94 79 79 74 82 70 70 70 72 81 72 87 94 88 89 86 90 99 78 86 84 86 82 82 64 74 69 85
68 65 69 68 65 65 66 72 82 80 80 79 99 95 97 92 76 79 95 89 92 74 76 70 63 78 77 71 76 82 86 87 91 81 86 79 98 85 75 81 77 68 59 70 84 77 74
67 70 69 66 65 70 72 76 84 84 85 86 93 97 98 89 73 92 99 93 87 79 75 74 82 82 79 81 80 92 96 83 89 84 74 77 82 86 74 90 96 82 78 73 70 68 59
68 67 63 66 70 80 82 82 87 87 89 79 97 100 99 91 96 96 93 92 76 85 82 83 78 71 71 76 87 92 96 94 83 87 83 82 84 98 94 76 78 82 86 67 80 72 80
67 65 76 80 81 84 89 90 86 79 74 94 98 98 98 86 94 89 91 89 83 85 86 83 83 77 66 78 87 90 91 81 81 81 86 74 84 91 77 66 68 81 82 76 76 76 84
67 74 80 86 91 91 90 86 79 75 74 94 98 99 99 95 77 89 94 93 90 80 81 80 73 69 74 81 84 89 91 83 80 80 70 66 83 72 82 75 81 81 82 82 79 86 77
70 80 88 88 91 90 85 83 83 82 80 94 97 98 86 98 96 95 92 88 90 87 80 77 76 71 76 82 86 93 91 83 76 73 75 71 90 86 80 79 78 81 80 82 89 78 80
72 84 89 91 90 84 83 89 88 85 81 95 92 93 85 84 70 92 86 91 87 87 83 83 74 70 77 77 76 83 86 87 85 73 81 78 95 81 86 73 71 74 72 78 79 81 81
76 84 91 90 88 89 92 88 77 74 80 96 82 85 85 77 73 87 80 89 82 82 83 76 70 74 77 80 80 80 83 82 83 82 83 81 83 83 90 78 64 68 65 70 74 75 74
77 81 91 87 92 92 89 79 73 71 72 73 80 90 90 93 78 70 86 86 85 84 84 88 76 74 79 75 76 71 70 75 75 80 80 83 87 86 94 63 62 53 58 59 62 66 68
74 77 81 90 88 89 89 78 72 67 63 82 94 82 93 82 86 89 88 92 90 90 92 88 87 87 80 75 76 78 81 74 76 84 80 79 83 88 87 88 56 68 67 64 62 74 81
72 76 79 86 89 91 91 86 78 68 67 87 95 95 86 88 82 88 91 90 92 95 91 88 85 86 78 79 73 81 84 83 85 85 77 75 78 79 91 87 60 50 70 67 57 72 81
73 76 80 88 89 89 88 92 87 77 69 78 86 90 79 93 97 92 91 88 89 90 94 91 90 84 80 86 84 87 80 82 86 86 90 89 89 91 89 92 78 65 68 64 78 58 84
76 81 88 91 88 88 88 89 81 75 71 72 82 86 80 98 96 94 91 88 88 89 90 86 81 80 88 81 81 88 86 86 86 82 85 83 89 93 94 96 80 74 72 70 73 85 86
76 83 92 93 90 86 87 85 82 74 68 65 76 79 79 91 93 88 89 88 89 85 92 92 83 87 88 90 87 92 82 88 82 80 84 83 71 78 78 76 67 85 80 87 84 84 94

GFSGBSN_sfc_rhum_102.txt.gz
RH
63 63 63 64 64 63 60 58 59 60 62 62 63 70 82 88 86 82 75 78 72 69 61 65 66 66 56 54 37 34 47 48 43 42 38 48 50 48 47 40 43 45 38 35 41 42 44
65 63 62 61 63 65 65 62 60 59 59 62 63 70 83 87 89 87 79 83 69 69 63 64 66 65 53 51 27 35 34 39 39 46 49 51 51 48 51 50 49 31 36 33 42 46 47
59 64 64 62 60 63 65 64 61 60 60 59 64 66 76 88 88 86 79 82 70 69 67 64 68 57 62 41 31 36 39 39 43 44 47 46 49 54 56 59 44 43 50 43 43 40 50
68 65 66 69 66 62 62 57 59 60 60 58 63 68 78 83 89 84 84 83 83 65 70 71 70 60 51 36 37 42 38 47 50 49 52 51 54 60 71 59 66 62 52 57 36 47 48
68 68 69 70 69 70 64 64 58 59 61 58 62 69 79 83 86 85 86 83 79 68 70 72 67 58 45 42 48 36 38 42 47 56 60 53 62 77 92 99 96 60 52 52 42 42 49
66 65 66 64 66 68 65 61 60 59 55 60 61 69 86 90 85 87 83 83 76 69 64 54 52 69 50 43 41 39 39 42 48 55 62 70 77 94 99 99 72 56 54 40 50 47 55
67 67 66 64 60 65 64 66 63 64 58 58 62 65 90 84 84 84 86 90 68 78 72 57 51 52 46 42 42 47 46 51 52 58 66 60 100 95 97 70 58 85 48 43 45 39 54
68 71 70 69 67 67 68 66 68 65 61 64 62 67 74 88 83 82 86 76 56 54 67 63 60 58 49 46 56 53 52 59 66 75 59 92 98 72 63 62 57 99 67 50 54 53 47
67 67 69 70 70 69 69 69 69 65 64 65 64 66 77 86 83 88 89 71 58 50 61 62 58 55 52 51 60 60 53 70 77 84 80 96 81 92 86 65 67 85 65 49 60 66 59
69 71 72 70 71 71 79 73 70 69 64 66 67 72 91 87 88 94 92 69 61 50 87 56 64 57 58 59 68 60 61 76 94 100 98 100 90 96 93 68 66 67 51 50 60 63 74
70 72 74 78 79 77 72 73 69 69 67 64 64 70 90 78 92 92 78 62 56 46 77 50 60 49 60 70 68 73 68 93 100 99 100 98 92 96 93 69 60 49 49 61 63 64 62
74 75 78 82 76 77 74 74 74 71 69 65 68 71 90 88 88 85 68 54 48 85 59 90 59 61 66 68 70 71 85 86 86 99 95 96 82 90 77 54 63 66 75 70 60 64 82
82 81 77 76 76 72 71 74 78 72 70 74 71 74 87 76 89 90 57 53 95 80 54 70 68 58 53 57 60 71 76 73 86 100 100 99 96 85 78 72 70 70 86 94 83 87 76
74 71 65 66 68 72 75 84 70 65 70 72 75 86 86 86 88 74 54 69 86 53 69 58 58 52 56 57 58 57 68 67 60 77 95 96 98 96 82 76 66 62 54 66 66 61 63
68 68 68 71 70 71 69 66 75 78 75 71 77 96 93 97 86 69 53 97 87 64 55 60 55 49 55 52 59 54 61 68 64 66 71 72 100 87 71 70 68 60 66 51 58 56 55
69 67 66 68 66 69 64 79 80 76 74 73 98 94 98 92 83 64 76 80 81 57 58 53 45 50 50 55 55 56 58 64 70 63 58 64 99 87 77 63 60 53 47 58 68 62 58
65 69 72 74 78 76 69 77 78 82 79 78 94 96 98 89 76 58 90 74 71 61 59 54 50 53 52 54 59 64 68 62 66 62 51 55 59 86 69 73 76 59 53 53 47 45 36
79 84 84 83 81 80 84 81 80 86 85 91 96 100 98 92 87 66 65 73 71 61 63 63 51 50 49 54 62 64 66 70 61 64 56 56 57 86 72 61 59 61 59 49 58 51 54
78 87 90 91 90 84 85 87 85 87 80 93 98 98 97 88 87 69 72 77 69 65 66 61 59 53 47 57 61 67 68 61 61 62 60 49 59 74 64 53 50 61 60 55 52 57 67
83 88 89 89 90 87 89 89 88 82 71 88 94 99 98 91 62 56 79 76 68 64 64 60 56 50 53 59 59 65 64 64 65 61 70 52 57 56 61 68 65 63 58 56 63 87 43
86 88 86 83 82 83 82 78 78 79 75 88 90 91 80 98 76 67 76 70 67 65 62 54 53 52 52 54 59 64 66 58 54 59 55 51 76 72 62 60 65 61 61 57 88 58 60
86 86 84 88 82 81 81 82 81 79 76 90 89 73 63 63 59 70 79 72 58 70 64 59 55 53 49 52 52 54 60 57 60 48 56 53 77 65 65 50 52 56 53 55 56 60 57
82 89 89 82 77 76 77 77 76 74 79 92 64 60 50 68 65 74 64 69 62 64 66 59 51 52 57 61 54 56 54 54 56 55 58 56 59 62 70 54 46 49 50 50 53 53 54
78 80 90 83 76 73 73 71 72 68 67 68 62 55 54 72 65 62 67 70 66 65 64 65 55 50 57 49 47 43 45 47 46 53 55 56 59 60 62 42 50 46 42 43 50 57 53
72 76 82 90 84 77 76 74 71 66 64 64 67 59 57 67 59 64 72 73 70 68 71 70 70 68 51 50 51 54 50 50 54 56 53 50 50 58 51 44 45 50 48 46 46 56 63
72 76 82 88 91 84 84 81 73 69 70 66 69 69 58 65 67 70 73 69 64 67 67 76 68 64 55 50 48 52 46 56 50 57 54 53 48 44 62 50 33 42 51 48 40 46 63
72 77 84 91 89 91 90 85 80 72 65 62 71 73 58 67 72 72 69 66 68 65 68 72 66 63 57 53 57 56 46 57 52 55 60 60 60 58 54 57 43 41 48 47 54 40 61
73 79 86 93 90 90 92 82 77 75 67 63 68 71 62 74 80 79 75 70 72 64 61 70 61 61 59 59 57 55 50 52 57 56 58 52 55 57 64 67 53 47 52 50 49 60 53
74 85 93 93 91 91 92 84 77 70 69 65 63 66 63 72 77 72 73 72 74 68 68 76 70 69 65 61 57 56 52 55 53 43 58 54 46 42 50 40 50 53 51 59 51 47 59

GFSGBSN_sfc_rhum_105.txt.gz
RH
62 61 62 61 59 59 60 64 64 59 60 58 59 63 62 78 79 90 82 76 75 70 64 61 68 66 52 52 37 33 48 50 42 39 34 34 38 32 35 24 24 30 30 29 30 32 33
60 66 69 68 68 66 64 66 65 62 59 60 58 60 65 75 81 91 79 80 75 68 65 62 67 66 52 60 22 26 34 38 32 36 34 37 39 34 40 36 34 26 24 24 26 29 34
63 67 69 67 68 71 69 66 65 61 61 60 59 62 64 74 84 85 80 80 75 74 67 62 69 57 59 47 21 26 31 31 31 35 38 34 37 44 38 45 34 36 44 33 30 31 35
64 69 68 69 70 69 69 73 69 62 62 58 60 61 65 73 84 83 81 84 77 67 65 67 71 58 59 29 24 32 28 33 35 35 40 38 42 46 49 51 53 59 55 58 31 28 32
68 67 68 70 70 69 68 69 66 65 64 58 58 62 64 69 78 85 86 80 75 67 72 70 68 62 45 42 36 26 27 37 36 41 45 40 50 57 67 80 83 62 68 50 40 22 32
64 69 70 72 72 69 65 66 68 70 68 61 58 62 66 82 87 84 80 77 75 71 62 52 44 55 40 39 35 32 30 34 40 42 54 59 66 77 82 94 75 83 66 40 38 25 31
68 70 71 71 71 71 70 69 68 68 65 65 62 62 68 89 83 81 85 83 69 72 62 50 44 44 36 33 36 40 34 42 43 49 59 53 92 85 68 63 76 70 49 44 38 22 44
69 69 72 73 75 74 72 71 71 70 68 66 65 67 62 84 87 81 88 78 51 52 70 50 51 46 41 40 50 46 42 57 60 81 62 86 92 55 87 76 88 97 60 52 37 36 38
78 77 76 78 71 80 79 76 73 72 64 65 66 68 66 77 86 93 83 70 50 46 52 59 50 49 46 46 52 52 53 59 68 90 96 96 74 86 95 71 67 63 60 53 94 44 36
75 76 73 71 74 74 76 82 77 70 70 67 65 68 84 88 88 85 89 76 54 50 88 60 57 50 51 53 68 46 51 64 94 99 99 100 79 92 95 70 50 48 36 72 78 52 69
77 67 72 75 76 81 75 75 72 71 70 62 64 67 90 73 90 84 85 62 58 52 79 49 54 45 49 70 57 66 55 88 100 98 99 94 83 92 88 56 43 53 42 49 58 55 64
69 70 73 71 69 72 73 73 74 72 69 66 66 72 91 79 87 89 76 56 56 90 74 89 51 60 63 59 56 62 77 81 82 99 95 88 74 80 68 52 47 54 58 93 88 80 67
67 69 67 66 68 69 76 79 74 73 68 72 71 75 90 71 90 88 65 55 96 84 45 71 69 52 47 51 50 58 69 95 94 100 100 97 86 72 69 65 73 98 96 95 91 94 71
69 65 66 66 71 74 75 81 77 69 72 73 79 86 84 82 91 82 57 70 91 49 59 47 50 48 50 48 49 47 55 92 78 73 80 92 96 95 66 79 92 97 69 79 92 80 69
81 82 80 72 70 77 70 72 71 74 74 74 86 94 94 96 86 84 60 96 90 59 46 52 49 46 48 44 48 45 49 60 57 56 88 93 99 70 60 59 60 57 64 47 53 39 58
79 87 85 80 71 71 78 75 70 69 72 78 97 94 98 93 89 76 71 75 70 47 48 42 41 40 41 44 44 44 46 53 62 50 57 68 94 68 60 54 51 49 42 58 67 56 57
86 88 90 84 77 72 72 70 72 74 75 86 94 94 98 92 85 61 88 67 55 48 53 49 40 40 40 42 46 45 48 52 53 54 45 56 69 77 56 61 70 56 51 42 43 40 36
84 88 82 83 78 76 72 78 84 78 78 88 93 100 96 91 90 60 52 65 66 49 53 50 42 40 41 45 46 45 53 54 50 51 50 46 55 77 66 49 47 52 50 41 62 39 39
83 83 90 89 78 78 76 79 79 78 77 83 96 97 93 87 87 55 58 62 59 52 52 48 46 42 41 46 49 50 50 53 50 53 55 45 52 78 61 48 43 48 42 39 43 61 57
87 82 81 89 85 81 79 80 81 82 74 68 76 100 97 74 48 46 64 61 52 56 54 48 46 42 42 44 44 51 48 52 53 49 67 53 50 54 67 70 59 56 47 42 61 80 42
90 80 79 78 83 91 89 89 85 86 78 57 58 78 65 84 62 52 66 54 51 53 52 45 44 43 43 42 42 46 48 43 44 56 46 43 67 71 51 50 58 50 49 46 72 45 58
84 84 78 78 76 75 77 77 76 76 76 61 56 57 57 57 50 54 66 60 46 54 53 46 45 45 38 46 47 44 45 43 48 38 44 42 66 61 55 41 44 45 41 42 45 44 44
79 86 84 76 75 77 79 79 78 77 77 59 50 47 40 61 50 54 51 53 49 51 55 50 43 41 48 55 46 44 42 42 45 46 44 45 50 57 62 43 39 44 46 43 45 45 46
75 82 86 80 77 76 74 74 73 70 63 44 48 41 43 61 51 50 53 57 50 54 52 52 49 42 51 41 39 37 38 39 39 42 42 42 46 50 54 41 56 46 39 38 43 47 46
73 79 86 83 82 78 78 75 69 67 65 49 50 47 44 51 46 48 55 58 57 55 58 58 61 55 42 45 45 44 41 45 43 46 43 41 39 45 48 35 37 44 44 44 44 44 48
72 76 82 89 88 85 86 80 71 69 64 52 58 59 44 46 48 47 56 55 48 48 56 65 57 49 50 44 41 46 37 43 37 42 45 45 39 39 46 45 28 34 43 39 37 42 49
73 76 82 87 91 91 87 80 76 69 67 54 61 62 49 54 58 58 59 60 54 48 49 59 55 55 51 46 50 48 38 45 42 41 45 47 46 49 38 47 31 38 43 40 48 47 50
74 79 86 91 91 92 85 79 76 74 70 59 61 59 60 59 67 64 63 62 59 53 48 60 55 54 51 56 50 44 40 40 46 42 43 41 42 43 46 52 51 38 47 46 47 46 46
75 86 94 91 91 91 91 78 74 72 73 69 55 53 51 62 69 62 63 63 67 65 63 66 65 58 60 52 46 44 41 41 41 32 46 45 37 37 39 37 41 38 41 47 42 45 47

GFSGBSN_sfc_rhum_108.txt.gz
RH
64 65 65 70 70 70 69 67 66 65 64 58 60 58 59 60 69 78 89 80 74 69 67 62 68 66 61 52 40 46 48 50 46 39 34 33 38 38 40 30 26 30 29 26 29 33 34
66 62 62 70 71 71 71 70 68 66 63 62 57 60 60 63 71 78 88 77 77 75 68 67 69 68 54 55 23 35 34 40 33 36 34 38 40 38 44 41 40 31 30 30 31 31 28
64 66 64 74 78 76 77 72 70 72 66 62 61 60 62 63 69 82 81 78 75 72 68 64 69 58 57 41 23 26 30 31 31 35 38 35 39 47 45 48 39 42 55 46 43 37 35
61 59 66 68 75 78 80 80 73 71 70 64 63 59 61 63 68 86 81 80 78 72 65 65 70 61 59 30 30 30 28 31 33 35 39 40 44 50 54 53 57 61 61 75 46 42 36
56 57 65 69 71 77 79 83 79 70 68 68 66 61 62 64 69 78 87 85 73 67 70 67 74 66 48 40 32 27 27 35 36 41 42 35 46 62 61 83 80 66 87 62 50 37 38
58 61 69 69 70 73 75 78 73 68 72 68 67 63 65 70 81 86 83 78 71 75 65 54 45 64 39 39 35 31 31 34 39 46 54 59 71 84 80 92 87 79 76 83 74 41 36
65 67 71 76 74 76 75 84 71 73 72 70 66 65 69 88 89 82 84 95 91 77 60 58 49 41 36 36 35 40 34 41 44 50 64 58 95 95 80 69 61 64 82 74 54 34 42
69 71 71 68 72 73 78 76 82 76 74 66 66 65 70 90 80 84 90 84 58 57 74 58 44 41 39 38 48 45 39 54 61 84 70 91 97 64 54 66 74 86 86 78 58 49 42
71 68 69 70 71 77 73 70 75 75 72 64 65 66 66 71 85 90 94 76 57 49 61 59 47 48 46 46 51 51 50 59 88 99 99 100 78 72 86 87 79 81 73 68 84 76 47
70 68 63 67 71 78 75 82 78 77 71 66 65 67 75 87 88 92 85 76 67 56 96 67 60 52 50 53 68 43 51 73 95 100 98 98 72 86 86 78 65 74 48 62 85 88 96
77 71 66 65 66 70 76 84 75 69 70 65 66 87 86 75 91 87 88 86 66 64 95 54 56 46 49 67 60 66 56 88 99 97 99 95 88 76 78 63 50 53 56 92 82 97 74
82 76 73 65 70 70 71 72 72 71 69 69 73 84 88 84 89 91 86 67 69 94 95 80 56 62 63 62 59 70 80 80 80 98 97 94 71 82 70 62 58 56 84 94 100 100 99
89 78 74 70 70 76 77 72 72 72 75 75 75 85 87 74 95 91 73 73 98 95 48 72 72 54 55 58 55 61 90 95 91 100 98 91 87 74 69 81 75 95 100 98 98 98 98
84 84 72 74 69 73 74 73 72 74 78 83 86 85 89 88 93 86 76 84 87 51 72 46 51 52 62 49 52 48 83 83 72 76 97 96 90 94 71 85 99 96 96 99 97 97 98
86 90 78 73 70 66 70 70 75 74 78 79 79 88 91 95 88 84 78 96 94 79 47 54 51 59 59 49 54 50 62 63 64 62 92 99 95 68 72 68 70 77 94 68 99 61 88
86 88 79 75 71 71 72 74 71 72 78 78 91 91 98 93 90 80 92 76 76 48 45 43 55 46 47 48 52 52 59 58 63 56 72 66 90 65 60 60 65 67 50 77 96 90 95
86 86 78 74 72 71 70 69 71 74 80 77 89 95 97 92 87 81 96 76 54 45 54 55 47 45 42 48 49 51 57 61 57 60 57 65 79 74 61 70 74 66 68 56 55 53 59
86 80 75 72 74 71 68 70 73 76 80 83 84 98 92 88 90 74 74 64 66 51 54 52 50 44 46 48 52 54 60 64 54 55 61 56 68 89 78 57 52 60 53 52 91 74 70
82 82 74 73 73 68 72 79 74 76 76 71 96 98 87 89 94 70 61 56 57 54 54 53 49 46 44 50 60 55 55 58 55 60 65 58 71 92 79 67 58 56 49 55 56 85 68
82 80 83 78 72 72 73 76 78 78 74 72 72 99 92 79 66 61 69 59 53 63 55 47 46 44 44 46 46 57 54 59 57 54 67 68 67 79 94 86 75 75 56 55 80 84 69
85 82 79 82 84 78 76 80 84 83 80 82 66 80 70 92 71 61 68 56 51 56 54 47 50 45 46 49 48 53 50 50 49 58 57 58 80 78 62 58 71 57 56 56 66 59 76
83 82 79 79 80 86 85 86 86 87 80 77 74 70 66 64 53 58 74 65 52 52 60 49 52 45 50 60 57 61 55 59 60 51 55 51 79 77 71 46 48 57 51 55 56 52 59
79 84 76 78 78 79 78 74 73 73 76 79 62 57 62 68 58 60 61 58 51 57 60 53 52 50 59 63 53 52 52 50 57 59 58 56 69 79 84 58 50 67 56 53 55 56 61
75 82 77 74 80 82 81 78 73 72 75 67 63 61 62 72 59 54 55 59 54 60 62 56 61 56 62 48 48 48 55 50 49 52 49 55 57 70 84 64 75 61 50 48 51 53 59
73 76 84 73 80 82 84 80 72 72 73 67 64 72 64 64 54 50 55 61 62 64 66 65 67 62 52 59 65 57 65 61 54 58 57 53 58 67 80 61 50 53 53 54 58 62 54
71 74 78 85 84 83 84 81 76 75 73 68 75 75 76 61 60 49 57 63 64 67 72 72 66 58 65 64 58 69 63 67 55 62 58 53 54 64 64 71 54 54 52 47 49 69 58
71 74 78 82 88 90 87 80 77 74 73 72 77 74 81 74 67 66 66 72 67 61 72 73 69 70 66 70 72 75 58 56 64 68 70 66 66 73 70 75 55 54 52 50 74 66 60
72 77 84 89 88 92 86 78 74 76 76 75 76 70 84 80 78 69 66 74 73 72 71 74 71 71 71 77 71 64 61 61 68 53 64 58 64 71 67 74 70 54 59 64 62 63 59
74 81 93 93 92 92 83 78 76 77 74 73 80 61 62 84 86 66 67 68 72 73 84 82 80 74 84 83 71 66 65 61 54 55 68 67 55 64 55 63 53 54 62 57 56 60 60

GFSGBSN_sfc_rhum_111.txt.gz
RH
62 57 58 64 67 72 77 82 83 79 76 69 63 58 58 60 62 67 78 85 78 76 69 64 68 68 73 74 62 54 52 56 48 48 41 44 48 52 56 47 43 43 34 33 36 39 36
69 61 55 56 67 68 73 81 80 80 79 68 63 61 59 62 64 68 73 88 78 73 67 67 70 68 74 56 53 50 51 51 39 46 45 47 51 49 54 54 55 49 51 48 46 44 39
64 63 58 58 61 70 74 81 79 83 74 71 65 62 61 62 64 77 81 83 83 72 68 68 70 66 67 44 32 47 38 42 38 44 51 51 51 54 60 64 56 57 68 58 53 52 53
60 64 64 66 66 66 73 75 85 82 78 72 68 66 61 62 63 81 84 82 76 73 67 67 68 78 72 41 39 34 36 41 39 43 47 47 51 61 66 66 66 70 70 86 55 53 51
67 66 66 70 70 65 71 77 81 81 75 71 65 66 63 65 65 79 86 81 77 68 66 66 87 88 66 41 36 36 35 41 46 47 51 35 56 70 71 88 90 84 95 85 68 48 52
73 69 66 69 68 65 68 71 84 74 73 70 64 65 69 75 76 87 81 80 72 73 69 65 55 78 53 50 40 34 34 40 49 60 67 69 80 93 90 96 95 90 94 78 82 58 53
77 71 65 66 68 68 74 71 73 72 68 67 66 68 75 85 88 80 88 94 91 85 76 74 62 52 44 45 40 47 41 48 52 61 78 78 98 97 90 86 73 76 83 82 68 61 64
76 74 66 63 67 71 68 69 68 73 70 64 67 68 79 83 79 78 85 89 72 69 84 63 54 48 43 46 56 53 45 63 70 89 82 93 96 75 66 62 68 97 94 84 68 58 61
76 71 69 64 68 73 71 68 71 71 70 68 67 67 83 91 79 87 92 89 71 65 76 66 55 53 53 52 59 65 55 72 87 94 96 97 82 77 85 91 94 88 87 85 87 68 65
82 71 70 66 66 71 73 72 74 74 71 69 75 70 71 84 89 93 93 81 78 68 92 72 65 60 54 62 73 56 63 74 86 91 96 94 71 81 84 88 81 91 63 79 94 85 98
90 76 70 66 69 70 75 76 72 72 69 71 81 82 82 76 96 92 92 89 83 74 89 60 66 54 57 73 65 72 64 86 99 96 99 86 88 93 78 69 64 73 56 76 92 97 86
86 80 68 68 71 74 73 72 72 70 72 81 81 83 77 87 91 94 88 85 76 89 81 74 68 72 75 70 64 72 79 79 81 98 96 96 73 88 73 62 63 67 80 87 100 98 98
86 77 73 70 76 74 72 73 72 74 74 78 84 82 82 80 97 93 78 82 91 85 54 76 75 66 66 76 72 80 94 97 98 96 97 94 89 82 71 85 80 93 100 98 98 98 98
84 73 75 71 72 73 72 72 74 74 81 84 83 83 86 87 91 90 85 90 82 63 74 56 62 62 75 58 61 64 89 88 79 78 94 93 82 90 75 83 99 99 99 99 97 97 98
80 73 73 68 71 71 72 73 75 78 81 80 78 95 92 94 90 91 94 96 92 82 58 65 61 72 72 58 62 62 77 77 75 73 93 91 89 73 74 72 83 91 100 85 100 94 93
74 74 72 70 71 71 73 70 70 76 79 77 96 96 96 94 96 91 95 83 77 61 62 56 70 57 65 60 66 56 74 70 71 64 78 81 96 67 62 68 69 84 62 85 97 96 96
75 72 74 71 70 69 69 70 70 76 76 79 95 95 90 92 92 96 95 85 67 54 65 69 68 57 56 59 58 67 75 73 66 67 71 71 82 75 65 72 78 79 74 63 63 68 89
74 74 71 74 72 71 70 71 73 76 78 82 93 98 88 95 98 95 90 77 68 58 61 65 60 56 60 59 64 66 77 77 63 66 73 62 77 93 80 59 54 64 65 60 89 78 81
82 73 71 73 74 75 80 76 73 75 79 90 97 94 89 95 96 92 75 69 66 70 65 60 59 56 54 60 71 65 68 63 63 67 70 65 82 92 77 64 62 74 55 64 66 81 88
78 80 77 74 76 77 79 80 78 77 79 93 88 96 93 95 93 82 82 67 70 70 66 56 54 54 54 55 56 66 64 61 63 60 66 68 74 82 92 80 78 74 61 61 76 92 87
82 76 81 81 80 78 79 83 85 86 86 91 84 91 86 96 82 82 82 70 63 72 64 59 58 58 61 68 63 66 61 59 58 56 59 64 80 82 73 64 68 64 65 66 77 71 82
81 80 76 80 86 81 82 85 85 86 80 88 83 90 85 86 65 80 83 77 63 64 70 67 63 64 66 76 74 78 69 70 73 60 59 61 80 80 75 53 57 62 59 60 64 64 72
77 82 79 74 76 78 79 77 76 76 74 92 74 77 78 78 75 78 78 72 64 68 68 62 68 68 73 72 66 64 64 58 70 70 69 64 76 85 87 68 59 69 61 64 63 68 68
75 78 83 78 80 79 78 76 74 74 75 83 76 83 86 82 83 69 68 67 66 73 74 66 70 69 66 58 59 62 62 55 59 62 58 67 66 79 89 64 68 62 54 53 60 66 70
71 75 78 83 84 84 77 74 74 74 74 85 88 92 94 91 73 63 65 73 77 76 75 76 76 72 68 72 69 66 70 62 61 62 72 63 68 71 78 79 52 66 57 60 64 63 64
68 72 76 79 85 89 85 80 76 74 73 84 92 91 95 91 78 72 65 77 84 85 83 80 73 69 78 78 70 72 67 60 61 54 68 60 64 70 71 70 55 48 58 50 51 66 60
69 71 76 79 83 89 91 84 74 76 72 81 86 84 95 92 86 83 84 86 79 81 86 83 79 78 75 83 81 83 67 59 69 74 70 71 74 76 79 82 60 56 56 50 69 46 66
72 72 76 86 87 86 91 84 76 78 76 78 81 80 89 94 89 81 79 90 88 85 87 80 72 73 84 82 82 78 72 66 68 60 66 62 76 76 77 78 68 59 64 52 49 76 65
75 73 85 93 94 88 92 83 77 79 71 81 89 71 76 92 88 78 76 72 80 86 94 88 83 81 87 88 85 79 71 75 68 64 70 63 58 59 61 63 52 62 55 59 63 67 65

GFSGBSN_sfc_rhum_114.txt.gz
RH
70 57 60 63 59 60 66 71 76 85 86 81 72 68 57 57 60 64 68 78 86 76 72 66 69 70 69 71 70 54 54 48 44 43 41 44 48 54 60 57 48 50 49 48 49 49 46
58 66 66 66 65 62 63 72 73 80 85 84 81 66 62 59 61 65 70 76 86 76 70 67 70 70 72 60 57 56 54 56 43 46 46 46 54 52 60 61 61 58 58 56 56 55 52
67 70 71 69 69 68 64 73 70 78 80 80 77 68 62 61 63 76 79 86 81 74 67 69 72 64 61 45 42 55 48 47 44 46 54 54 54 57 64 68 61 61 65 59 52 53 54
70 70 69 69 68 67 69 70 72 81 83 82 71 65 61 64 65 83 84 85 88 85 70 69 70 75 65 44 49 38 38 46 42 44 48 50 51 59 66 67 67 72 74 86 56 55 56
71 69 70 63 64 66 68 67 78 84 81 75 69 64 64 66 71 82 88 80 74 70 68 70 80 80 69 38 43 41 40 48 48 50 54 38 57 72 74 88 91 82 90 89 72 58 60
70 68 66 62 67 71 67 69 73 79 74 70 68 67 69 68 84 83 77 73 69 71 70 67 60 66 59 55 42 38 38 44 56 62 67 69 86 94 94 95 92 88 95 86 82 61 56
82 67 66 62 69 70 71 69 69 70 70 68 68 74 84 86 87 82 81 86 89 90 77 74 74 59 52 49 44 50 44 50 53 64 85 85 96 98 93 89 76 81 86 90 74 60 67
88 68 67 65 67 71 70 68 68 72 69 69 70 87 86 84 88 87 84 83 86 75 79 64 58 52 49 50 61 56 48 65 74 90 86 88 93 78 75 75 82 86 91 82 72 62 65
88 69 68 68 71 72 74 73 72 71 70 68 70 86 80 77 75 86 90 90 79 67 72 65 59 59 57 54 63 65 54 71 86 85 92 83 75 72 78 80 85 80 85 85 91 70 72
80 71 71 69 70 73 74 72 70 68 71 79 71 86 82 77 83 92 95 88 82 74 90 78 71 64 58 64 78 60 62 74 85 85 82 90 74 80 85 83 71 86 66 75 81 95 96
76 72 71 72 72 74 72 71 67 70 78 82 73 72 79 79 96 92 93 92 86 72 79 60 70 55 61 73 72 75 70 78 92 88 93 86 93 90 95 75 68 76 64 71 81 99 97
74 73 73 72 72 72 72 70 71 77 79 81 81 81 80 88 94 94 89 86 73 80 79 73 72 74 80 72 69 75 77 78 80 92 88 92 78 89 81 64 58 63 90 87 96 99 100
74 72 73 71 72 73 72 72 72 74 81 82 85 81 86 82 96 93 83 78 85 87 55 72 79 77 77 81 74 81 93 97 97 95 96 89 89 84 76 86 82 96 100 98 98 98 96
72 68 71 72 73 72 73 74 72 76 82 82 82 80 86 88 96 92 84 79 87 64 72 61 70 70 77 70 73 79 93 94 92 87 90 90 87 90 76 92 100 100 100 99 97 97 96
73 72 71 70 72 73 72 76 77 81 79 77 79 96 96 93 94 89 80 94 86 79 67 68 64 76 74 60 63 69 90 83 80 77 92 91 89 65 70 71 89 92 100 94 100 98 90
73 70 70 70 72 72 72 72 77 78 81 82 96 96 94 92 95 87 91 84 77 63 68 63 76 64 71 64 69 70 82 79 77 71 79 76 94 68 62 72 77 84 75 95 98 95 97
70 74 72 71 70 71 73 73 76 77 78 80 94 94 86 89 89 88 95 88 70 56 67 67 74 68 66 70 69 77 84 75 73 73 72 79 85 78 68 73 76 76 79 69 66 90 98
69 72 72 73 76 76 73 74 75 76 84 81 94 97 84 93 90 95 89 78 68 62 65 68 66 64 67 68 73 76 80 76 70 71 79 72 81 94 70 68 63 68 72 68 84 75 83
74 70 73 74 75 80 80 77 76 78 83 95 96 97 89 89 93 93 78 69 69 69 70 63 62 61 59 64 75 70 70 62 66 69 70 69 85 92 59 52 61 77 64 67 72 80 93
78 81 74 76 76 79 80 83 84 81 83 94 92 94 91 93 94 86 82 70 67 69 69 60 62 57 59 60 61 71 66 63 65 62 68 67 78 81 80 72 79 76 66 69 77 94 91
82 77 84 77 77 77 79 83 85 84 85 93 91 90 87 95 80 83 83 75 70 72 66 60 59 67 70 72 69 74 69 64 59 61 67 64 76 82 73 68 73 67 69 75 78 80 83
80 81 77 85 78 78 80 82 83 80 74 94 92 85 89 90 78 75 81 79 68 69 72 68 71 66 72 81 81 81 74 76 79 63 69 66 77 82 76 56 57 62 59 63 69 73 78
77 81 79 75 78 83 80 78 76 77 74 95 88 80 82 80 82 81 79 73 66 71 69 67 74 77 72 71 76 69 72 69 67 75 71 68 79 87 86 67 60 66 61 72 72 77 74
72 77 81 79 83 79 76 74 73 74 75 92 93 88 89 89 87 74 67 70 72 73 80 69 76 79 70 66 66 72 72 65 62 65 63 71 75 82 89 61 66 52 58 56 58 66 70
68 72 76 80 83 84 81 79 78 76 77 89 94 92 94 91 82 72 63 76 77 76 77 78 78 76 76 78 71 65 61 63 62 65 69 66 72 75 71 77 47 65 57 64 58 50 67
69 68 72 77 81 88 87 82 77 77 73 85 93 94 95 92 78 71 79 77 85 86 82 80 73 72 73 82 72 72 68 62 58 53 72 67 69 68 78 65 53 34 58 54 48 53 63
73 70 72 77 81 86 90 88 80 77 74 79 84 87 94 93 88 83 82 80 86 86 89 87 78 77 77 87 83 87 73 68 64 74 70 72 78 78 78 86 65 47 58 52 49 27 70
74 73 72 79 82 81 86 92 82 75 77 78 80 89 88 94 90 80 78 86 88 90 90 81 75 70 87 80 87 83 81 68 76 64 70 58 78 81 82 81 64 62 63 56 45 78 71
75 75 74 84 93 93 82 92 85 78 75 83 89 78 83 92 87 81 78 80 82 80 90 90 82 85 89 90 90 87 73 82 74 67 69 70 59 59 62 61 48 61 56 57 67 70 71

GFSGBSN_sfc_rhum_117.txt.gz
RH
65 69 71 80 80 78 68 65 74 74 80 82 83 74 70 55 57 60 64 70 79 82 75 69 71 71 66 64 84 57 51 46 41 42 43 46 53 56 60 64 53 58 55 54 55 57 55
71 72 70 71 71 68 68 68 69 71 81 88 88 77 66 58 60 63 71 72 79 86 72 70 72 68 65 79 59 61 58 49 41 51 57 52 56 54 65 66 65 66 64 60 57 55 54
69 69 69 62 66 67 69 74 70 75 77 78 78 73 66 60 63 70 79 77 86 75 69 71 71 61 56 75 53 58 46 48 44 49 57 55 54 56 65 67 64 66 68 62 57 54 55
85 65 66 61 69 70 69 70 75 78 81 78 69 64 63 65 68 77 83 84 80 76 72 70 67 62 66 44 60 49 42 46 45 46 50 52 52 60 64 69 68 75 78 81 56 57 54
84 65 67 66 71 69 68 78 82 82 87 84 66 65 65 67 72 86 88 85 83 85 71 69 74 61 66 40 47 44 44 50 50 50 55 43 58 74 74 86 85 78 88 86 73 60 64
80 66 66 67 69 68 67 71 76 77 73 69 66 66 67 84 89 88 82 78 79 74 68 57 57 53 59 54 46 43 41 50 58 65 67 72 86 93 94 94 90 87 93 86 90 63 61
69 68 71 70 70 71 69 71 70 70 70 69 80 83 76 84 88 86 81 81 84 77 70 74 74 60 55 50 45 49 47 51 57 64 88 88 96 98 86 89 82 84 90 87 72 61 71
70 68 67 69 70 70 70 70 71 70 68 80 83 87 83 88 81 84 86 86 88 71 73 63 59 55 49 52 60 57 50 66 74 90 86 84 93 79 76 80 85 94 86 78 70 64 71
71 68 69 70 70 71 71 71 70 69 69 78 83 85 83 89 84 85 90 94 84 69 72 67 60 60 59 56 67 65 55 67 80 84 84 92 76 72 81 80 82 81 80 77 85 75 76
70 70 71 72 71 71 69 69 73 77 79 74 84 80 76 76 80 93 98 94 85 66 92 79 69 65 60 66 80 65 65 73 86 81 85 88 77 85 90 88 81 78 63 70 82 94 97
73 68 70 71 71 72 70 70 76 77 80 73 77 79 81 78 92 97 96 93 85 58 94 63 74 59 66 76 75 79 73 81 94 89 90 83 94 85 92 85 73 81 60 74 96 98 99
69 71 69 72 72 72 73 74 79 81 81 82 82 80 81 89 93 96 93 86 67 80 86 76 74 76 80 71 72 77 78 75 83 94 88 96 77 86 86 71 61 57 74 86 94 99 99
71 72 74 73 73 74 73 73 76 82 83 81 80 80 84 82 98 94 87 71 85 88 56 74 82 81 82 77 76 82 90 96 98 98 91 85 86 87 83 92 80 89 100 98 97 97 94
72 72 73 74 72 74 75 78 81 80 78 80 79 82 83 87 96 91 74 78 88 68 71 63 72 77 83 76 77 83 90 95 94 92 96 91 83 91 84 91 99 100 100 99 98 97 94
71 73 74 73 72 72 75 77 76 76 81 84 78 95 94 90 93 84 71 94 85 77 69 71 68 81 76 67 69 81 95 86 80 90 91 96 90 65 72 78 86 92 100 96 100 96 94
71 70 70 72 72 72 73 74 76 78 84 85 95 95 90 89 92 81 90 82 80 67 69 68 75 69 75 74 76 79 84 75 77 70 79 82 94 73 66 72 85 85 80 98 98 97 95
72 72 72 71 72 73 73 75 76 79 85 77 94 88 82 91 85 85 94 86 72 58 67 71 77 74 75 78 78 80 79 71 74 74 82 83 89 78 69 74 77 80 81 83 74 90 95
66 69 70 75 77 74 74 76 76 80 84 82 93 90 81 88 87 95 89 82 72 69 68 71 70 69 76 72 78 78 79 71 69 77 83 79 84 96 74 71 70 72 78 76 91 74 92
75 70 71 71 77 78 80 80 80 79 86 92 95 94 86 81 93 93 78 70 71 73 73 69 68 64 65 72 78 76 72 61 70 74 77 76 86 91 57 54 64 76 69 74 76 79 91
80 81 74 75 75 80 82 82 81 81 82 89 89 92 91 89 93 85 87 70 65 67 72 66 66 62 64 66 67 74 69 62 66 67 68 66 82 76 81 67 76 80 70 77 80 92 91
82 78 84 77 78 77 80 78 79 81 81 86 90 91 88 94 83 85 87 80 72 70 69 67 67 73 80 77 77 80 76 68 60 64 76 67 75 83 72 73 72 66 67 76 84 83 80
80 81 76 84 81 79 81 81 80 79 76 91 92 93 94 90 86 80 79 81 72 68 76 70 76 74 80 80 79 80 81 79 79 66 74 69 73 82 80 68 63 61 59 65 77 82 82
76 80 80 76 76 80 78 74 75 74 77 95 96 89 84 81 83 82 82 80 74 78 71 72 80 82 76 74 76 74 72 73 75 79 74 73 79 86 83 71 61 56 60 62 70 75 75
72 77 80 79 81 78 77 79 79 73 76 93 95 92 90 88 88 77 69 73 78 79 82 74 80 81 75 76 73 78 81 77 77 72 69 74 76 83 89 59 46 36 66 59 60 60 72
70 72 76 79 83 82 82 82 80 78 75 88 95 91 93 90 88 78 73 71 81 81 80 80 78 72 80 78 75 65 64 62 66 75 75 72 76 73 69 74 44 56 62 66 66 49 63
72 71 72 77 81 86 88 84 81 78 73 82 92 94 94 90 83 74 80 77 84 87 84 79 79 78 80 82 72 74 66 66 58 51 76 74 72 69 78 67 37 26 56 58 48 48 50
72 74 72 74 80 85 88 90 85 77 76 76 84 89 94 92 88 81 84 80 85 88 89 87 83 81 78 86 83 88 78 71 70 75 73 78 81 84 77 81 56 49 61 52 43 18 69
75 75 75 74 79 83 80 88 90 82 76 77 84 91 89 94 90 82 79 83 88 91 89 79 75 73 89 81 87 85 85 73 81 73 70 60 73 81 83 82 58 64 62 51 35 73 75
78 76 77 77 82 89 89 80 89 88 77 79 93 82 87 93 82 83 79 80 79 80 87 91 81 84 86 92 93 91 78 85 77 72 72 68 60 58 63 60 47 61 58 54 63 68 74